<?xml version="1.0" encoding="UTF-8" standalone="no" ?>
<gpx xmlns="http://www.topografix.com/GPX/1/1" xmlns:xsi="http://www.w3.org/2001/XMLSchema-instance" xsi:schemaLocation="http://www.topografix.com/GPX/1/1 http://www.topografix.com/GPX/1/1/gpx.xsd" version="1.1" creator="VisuGPX - https://www.visugpx.com">
  <metadata>
    <name>Col d Allos Allos 2021-08-07 </name>
  </metadata>
  <trk>
    <name><![CDATA[Col d Allos Allos 2021-08-07 _1]]></name>
    <trkseg>
      <trkpt lat="44.29672" lon="6.59456">
        <ele>2244.8</ele>
        <time>2021-08-07T11:19:00Z</time>
      </trkpt>
      <trkpt lat="44.29672" lon="6.59456">
        <ele>2244.6</ele>
        <time>2021-08-07T11:19:01Z</time>
      </trkpt>
      <trkpt lat="44.29671" lon="6.59456">
        <ele>2244.4</ele>
        <time>2021-08-07T11:19:06Z</time>
      </trkpt>
      <trkpt lat="44.29664" lon="6.59458">
        <ele>2243.4</ele>
        <time>2021-08-07T11:19:09Z</time>
      </trkpt>
      <trkpt lat="44.29659" lon="6.59458">
        <ele>2242</ele>
        <time>2021-08-07T11:19:11Z</time>
      </trkpt>
      <trkpt lat="44.29647" lon="6.59458">
        <ele>2241</ele>
        <time>2021-08-07T11:19:16Z</time>
      </trkpt>
      <trkpt lat="44.29641" lon="6.59458">
        <ele>2241.4</ele>
        <time>2021-08-07T11:19:19Z</time>
      </trkpt>
      <trkpt lat="44.29636" lon="6.59458">
        <ele>2241.8</ele>
        <time>2021-08-07T11:19:21Z</time>
      </trkpt>
      <trkpt lat="44.29629" lon="6.59458">
        <ele>2242.4</ele>
        <time>2021-08-07T11:19:25Z</time>
      </trkpt>
      <trkpt lat="44.29625" lon="6.59458">
        <ele>2243</ele>
        <time>2021-08-07T11:19:27Z</time>
      </trkpt>
      <trkpt lat="44.29619" lon="6.59458">
        <ele>2243.6</ele>
        <time>2021-08-07T11:19:31Z</time>
      </trkpt>
      <trkpt lat="44.29615" lon="6.59458">
        <ele>2243.6</ele>
        <time>2021-08-07T11:19:33Z</time>
      </trkpt>
      <trkpt lat="44.29613" lon="6.59459">
        <ele>2243.8</ele>
        <time>2021-08-07T11:19:34Z</time>
      </trkpt>
      <trkpt lat="44.29611" lon="6.59459">
        <ele>2244</ele>
        <time>2021-08-07T11:19:35Z</time>
      </trkpt>
      <trkpt lat="44.29608" lon="6.59459">
        <ele>2244.2</ele>
        <time>2021-08-07T11:19:37Z</time>
      </trkpt>
      <trkpt lat="44.29604" lon="6.59459">
        <ele>2244.4</ele>
        <time>2021-08-07T11:19:39Z</time>
      </trkpt>
      <trkpt lat="44.29595" lon="6.59458">
        <ele>2244.8</ele>
        <time>2021-08-07T11:19:44Z</time>
      </trkpt>
      <trkpt lat="44.2959" lon="6.59458">
        <ele>2245.2</ele>
        <time>2021-08-07T11:19:47Z</time>
      </trkpt>
      <trkpt lat="44.29574" lon="6.59458">
        <ele>2246.2</ele>
        <time>2021-08-07T11:19:56Z</time>
      </trkpt>
      <trkpt lat="44.29566" lon="6.59457">
        <ele>2247.4</ele>
        <time>2021-08-07T11:20:01Z</time>
      </trkpt>
      <trkpt lat="44.29554" lon="6.59458">
        <ele>2247.8</ele>
        <time>2021-08-07T11:20:09Z</time>
      </trkpt>
      <trkpt lat="44.29546" lon="6.59461">
        <ele>2248</ele>
        <time>2021-08-07T11:20:14Z</time>
      </trkpt>
      <trkpt lat="44.29543" lon="6.59462">
        <ele>2248.2</ele>
        <time>2021-08-07T11:20:17Z</time>
      </trkpt>
      <trkpt lat="44.2954" lon="6.59463">
        <ele>2248.4</ele>
        <time>2021-08-07T11:20:19Z</time>
      </trkpt>
      <trkpt lat="44.29527" lon="6.5946">
        <ele>2248.6</ele>
        <time>2021-08-07T11:20:27Z</time>
      </trkpt>
      <trkpt lat="44.29511" lon="6.59458">
        <ele>2248.8</ele>
        <time>2021-08-07T11:20:38Z</time>
      </trkpt>
      <trkpt lat="44.29476" lon="6.59472">
        <ele>2249.8</ele>
        <time>2021-08-07T11:20:51Z</time>
      </trkpt>
      <trkpt lat="44.29471" lon="6.59471">
        <ele>2250.8</ele>
        <time>2021-08-07T11:20:55Z</time>
      </trkpt>
      <trkpt lat="44.29464" lon="6.59467">
        <ele>2252</ele>
        <time>2021-08-07T11:21:01Z</time>
      </trkpt>
      <trkpt lat="44.29458" lon="6.59461">
        <ele>2253.2</ele>
        <time>2021-08-07T11:21:07Z</time>
      </trkpt>
      <trkpt lat="44.29452" lon="6.59459">
        <ele>2254.4</ele>
        <time>2021-08-07T11:21:13Z</time>
      </trkpt>
      <trkpt lat="44.29451" lon="6.59458">
        <ele>2254.6</ele>
        <time>2021-08-07T11:21:15Z</time>
      </trkpt>
      <trkpt lat="44.29449" lon="6.59457">
        <ele>2255</ele>
        <time>2021-08-07T11:21:17Z</time>
      </trkpt>
      <trkpt lat="44.29448" lon="6.59457">
        <ele>2255.2</ele>
        <time>2021-08-07T11:21:18Z</time>
      </trkpt>
      <trkpt lat="44.29447" lon="6.59456">
        <ele>2255.4</ele>
        <time>2021-08-07T11:21:19Z</time>
      </trkpt>
      <trkpt lat="44.29442" lon="6.59454">
        <ele>2255.8</ele>
        <time>2021-08-07T11:21:24Z</time>
      </trkpt>
      <trkpt lat="44.29438" lon="6.59453">
        <ele>2256.2</ele>
        <time>2021-08-07T11:21:27Z</time>
      </trkpt>
      <trkpt lat="44.29437" lon="6.59453">
        <ele>2256.4</ele>
        <time>2021-08-07T11:21:28Z</time>
      </trkpt>
      <trkpt lat="44.29435" lon="6.59452">
        <ele>2256.6</ele>
        <time>2021-08-07T11:21:29Z</time>
      </trkpt>
      <trkpt lat="44.29434" lon="6.59452">
        <ele>2256.8</ele>
        <time>2021-08-07T11:21:30Z</time>
      </trkpt>
      <trkpt lat="44.29433" lon="6.59452">
        <ele>2256.8</ele>
        <time>2021-08-07T11:21:31Z</time>
      </trkpt>
      <trkpt lat="44.29425" lon="6.59454">
        <ele>2257.2</ele>
        <time>2021-08-07T11:21:37Z</time>
      </trkpt>
      <trkpt lat="44.29417" lon="6.59458">
        <ele>2257.2</ele>
        <time>2021-08-07T11:21:43Z</time>
      </trkpt>
      <trkpt lat="44.29414" lon="6.59459">
        <ele>2257.4</ele>
        <time>2021-08-07T11:21:45Z</time>
      </trkpt>
      <trkpt lat="44.29412" lon="6.59462">
        <ele>2257.6</ele>
        <time>2021-08-07T11:21:47Z</time>
      </trkpt>
      <trkpt lat="44.2941" lon="6.59466">
        <ele>2258.2</ele>
        <time>2021-08-07T11:21:50Z</time>
      </trkpt>
      <trkpt lat="44.29407" lon="6.59469">
        <ele>2258.6</ele>
        <time>2021-08-07T11:21:53Z</time>
      </trkpt>
      <trkpt lat="44.29403" lon="6.59474">
        <ele>2258.8</ele>
        <time>2021-08-07T11:21:57Z</time>
      </trkpt>
      <trkpt lat="44.29393" lon="6.5948">
        <ele>2259.6</ele>
        <time>2021-08-07T11:22:04Z</time>
      </trkpt>
      <trkpt lat="44.29388" lon="6.5948">
        <ele>2260</ele>
        <time>2021-08-07T11:22:07Z</time>
      </trkpt>
      <trkpt lat="44.29373" lon="6.59477">
        <ele>2260.6</ele>
        <time>2021-08-07T11:22:17Z</time>
      </trkpt>
      <trkpt lat="44.29359" lon="6.59484">
        <ele>2260.4</ele>
        <time>2021-08-07T11:22:27Z</time>
      </trkpt>
      <trkpt lat="44.29357" lon="6.59486">
        <ele>2260.8</ele>
        <time>2021-08-07T11:22:29Z</time>
      </trkpt>
      <trkpt lat="44.29346" lon="6.59489">
        <ele>2261.6</ele>
        <time>2021-08-07T11:22:37Z</time>
      </trkpt>
      <trkpt lat="44.29336" lon="6.59489">
        <ele>2261.8</ele>
        <time>2021-08-07T11:22:43Z</time>
      </trkpt>
      <trkpt lat="44.29329" lon="6.59491">
        <ele>2261.8</ele>
        <time>2021-08-07T11:22:47Z</time>
      </trkpt>
      <trkpt lat="44.2932" lon="6.59497">
        <ele>2262.2</ele>
        <time>2021-08-07T11:22:57Z</time>
      </trkpt>
      <trkpt lat="44.29319" lon="6.59502">
        <ele>2263</ele>
        <time>2021-08-07T11:23:00Z</time>
      </trkpt>
      <trkpt lat="44.29315" lon="6.5951">
        <ele>2264.2</ele>
        <time>2021-08-07T11:23:05Z</time>
      </trkpt>
      <trkpt lat="44.29313" lon="6.59512">
        <ele>2264.6</ele>
        <time>2021-08-07T11:23:07Z</time>
      </trkpt>
      <trkpt lat="44.29304" lon="6.59529">
        <ele>2263.6</ele>
        <time>2021-08-07T11:23:17Z</time>
      </trkpt>
      <trkpt lat="44.29299" lon="6.59544">
        <ele>2265.2</ele>
        <time>2021-08-07T11:23:27Z</time>
      </trkpt>
      <trkpt lat="44.29298" lon="6.59544">
        <ele>2265.2</ele>
        <time>2021-08-07T11:23:28Z</time>
      </trkpt>
      <trkpt lat="44.29296" lon="6.59546">
        <ele>2265.6</ele>
        <time>2021-08-07T11:23:30Z</time>
      </trkpt>
      <trkpt lat="44.29293" lon="6.59547">
        <ele>2266.4</ele>
        <time>2021-08-07T11:23:32Z</time>
      </trkpt>
      <trkpt lat="44.29291" lon="6.59549">
        <ele>2267.4</ele>
        <time>2021-08-07T11:23:34Z</time>
      </trkpt>
      <trkpt lat="44.29288" lon="6.5955">
        <ele>2267.6</ele>
        <time>2021-08-07T11:23:36Z</time>
      </trkpt>
      <trkpt lat="44.29286" lon="6.59551">
        <ele>2267.6</ele>
        <time>2021-08-07T11:23:37Z</time>
      </trkpt>
      <trkpt lat="44.29277" lon="6.59555">
        <ele>2268.4</ele>
        <time>2021-08-07T11:23:44Z</time>
      </trkpt>
      <trkpt lat="44.29275" lon="6.59555">
        <ele>2268.4</ele>
        <time>2021-08-07T11:23:45Z</time>
      </trkpt>
      <trkpt lat="44.29274" lon="6.59554">
        <ele>2268.6</ele>
        <time>2021-08-07T11:23:46Z</time>
      </trkpt>
      <trkpt lat="44.29272" lon="6.59554">
        <ele>2268.8</ele>
        <time>2021-08-07T11:23:47Z</time>
      </trkpt>
      <trkpt lat="44.29269" lon="6.59555">
        <ele>2269.2</ele>
        <time>2021-08-07T11:23:50Z</time>
      </trkpt>
      <trkpt lat="44.29268" lon="6.59556">
        <ele>2269.2</ele>
        <time>2021-08-07T11:23:51Z</time>
      </trkpt>
      <trkpt lat="44.29266" lon="6.59562">
        <ele>2269</ele>
        <time>2021-08-07T11:23:57Z</time>
      </trkpt>
      <trkpt lat="44.29262" lon="6.59564">
        <ele>2269</ele>
        <time>2021-08-07T11:24:07Z</time>
      </trkpt>
      <trkpt lat="44.29261" lon="6.59565">
        <ele>2269.2</ele>
        <time>2021-08-07T11:24:08Z</time>
      </trkpt>
      <trkpt lat="44.29252" lon="6.59569">
        <ele>2269.6</ele>
        <time>2021-08-07T11:24:12Z</time>
      </trkpt>
      <trkpt lat="44.29242" lon="6.59574">
        <ele>2270</ele>
        <time>2021-08-07T11:24:17Z</time>
      </trkpt>
      <trkpt lat="44.29237" lon="6.59576">
        <ele>2270.8</ele>
        <time>2021-08-07T11:24:20Z</time>
      </trkpt>
      <trkpt lat="44.2923" lon="6.59582">
        <ele>2271.2</ele>
        <time>2021-08-07T11:24:26Z</time>
      </trkpt>
      <trkpt lat="44.29229" lon="6.59583">
        <ele>2271.2</ele>
        <time>2021-08-07T11:24:27Z</time>
      </trkpt>
      <trkpt lat="44.29224" lon="6.59586">
        <ele>2271.8</ele>
        <time>2021-08-07T11:24:31Z</time>
      </trkpt>
      <trkpt lat="44.29216" lon="6.59591">
        <ele>2272.2</ele>
        <time>2021-08-07T11:24:37Z</time>
      </trkpt>
      <trkpt lat="44.29205" lon="6.59602">
        <ele>2272.6</ele>
        <time>2021-08-07T11:24:46Z</time>
      </trkpt>
      <trkpt lat="44.29203" lon="6.59603">
        <ele>2272.6</ele>
        <time>2021-08-07T11:24:47Z</time>
      </trkpt>
      <trkpt lat="44.29201" lon="6.59607">
        <ele>2272.8</ele>
        <time>2021-08-07T11:24:50Z</time>
      </trkpt>
      <trkpt lat="44.29196" lon="6.59615">
        <ele>2274</ele>
        <time>2021-08-07T11:24:56Z</time>
      </trkpt>
      <trkpt lat="44.29196" lon="6.59615">
        <ele>2274.2</ele>
        <time>2021-08-07T11:24:57Z</time>
      </trkpt>
      <trkpt lat="44.29195" lon="6.59621">
        <ele>2274.4</ele>
        <time>2021-08-07T11:25:02Z</time>
      </trkpt>
      <trkpt lat="44.29194" lon="6.59625">
        <ele>2274.4</ele>
        <time>2021-08-07T11:25:04Z</time>
      </trkpt>
      <trkpt lat="44.29191" lon="6.59628">
        <ele>2274.4</ele>
        <time>2021-08-07T11:25:07Z</time>
      </trkpt>
      <trkpt lat="44.29189" lon="6.59639">
        <ele>2274.4</ele>
        <time>2021-08-07T11:25:13Z</time>
      </trkpt>
      <trkpt lat="44.29187" lon="6.59645">
        <ele>2274.2</ele>
        <time>2021-08-07T11:25:17Z</time>
      </trkpt>
      <trkpt lat="44.29188" lon="6.59651">
        <ele>2275.2</ele>
        <time>2021-08-07T11:25:21Z</time>
      </trkpt>
      <trkpt lat="44.29189" lon="6.59656">
        <ele>2276.4</ele>
        <time>2021-08-07T11:25:24Z</time>
      </trkpt>
      <trkpt lat="44.29191" lon="6.5966">
        <ele>2277.2</ele>
        <time>2021-08-07T11:25:27Z</time>
      </trkpt>
      <trkpt lat="44.29191" lon="6.59662">
        <ele>2277.6</ele>
        <time>2021-08-07T11:25:28Z</time>
      </trkpt>
      <trkpt lat="44.29192" lon="6.59677">
        <ele>2278</ele>
        <time>2021-08-07T11:25:37Z</time>
      </trkpt>
      <trkpt lat="44.29197" lon="6.59691">
        <ele>2278.6</ele>
        <time>2021-08-07T11:25:45Z</time>
      </trkpt>
      <trkpt lat="44.29198" lon="6.59694">
        <ele>2279</ele>
        <time>2021-08-07T11:25:47Z</time>
      </trkpt>
      <trkpt lat="44.29199" lon="6.59697">
        <ele>2279.4</ele>
        <time>2021-08-07T11:25:49Z</time>
      </trkpt>
      <trkpt lat="44.29199" lon="6.59698">
        <ele>2279.8</ele>
        <time>2021-08-07T11:25:51Z</time>
      </trkpt>
      <trkpt lat="44.29199" lon="6.59701">
        <ele>2280.6</ele>
        <time>2021-08-07T11:25:57Z</time>
      </trkpt>
      <trkpt lat="44.29196" lon="6.59703">
        <ele>2281</ele>
        <time>2021-08-07T11:26:04Z</time>
      </trkpt>
      <trkpt lat="44.29195" lon="6.59703">
        <ele>2281.2</ele>
        <time>2021-08-07T11:26:07Z</time>
      </trkpt>
      <trkpt lat="44.29192" lon="6.59706">
        <ele>2282</ele>
        <time>2021-08-07T11:26:12Z</time>
      </trkpt>
      <trkpt lat="44.29189" lon="6.59709">
        <ele>2282.8</ele>
        <time>2021-08-07T11:26:17Z</time>
      </trkpt>
      <trkpt lat="44.29188" lon="6.5971">
        <ele>2283</ele>
        <time>2021-08-07T11:26:20Z</time>
      </trkpt>
      <trkpt lat="44.29185" lon="6.59714">
        <ele>2283.6</ele>
        <time>2021-08-07T11:26:27Z</time>
      </trkpt>
      <trkpt lat="44.29185" lon="6.59716">
        <ele>2283.4</ele>
        <time>2021-08-07T11:26:29Z</time>
      </trkpt>
      <trkpt lat="44.29184" lon="6.59723">
        <ele>2282.8</ele>
        <time>2021-08-07T11:26:32Z</time>
      </trkpt>
      <trkpt lat="44.29184" lon="6.59733">
        <ele>2281.8</ele>
        <time>2021-08-07T11:26:36Z</time>
      </trkpt>
      <trkpt lat="44.29183" lon="6.59734">
        <ele>2281.6</ele>
        <time>2021-08-07T11:26:37Z</time>
      </trkpt>
      <trkpt lat="44.29168" lon="6.59742">
        <ele>2281.6</ele>
        <time>2021-08-07T11:26:47Z</time>
      </trkpt>
      <trkpt lat="44.29161" lon="6.59744">
        <ele>2282.6</ele>
        <time>2021-08-07T11:26:52Z</time>
      </trkpt>
      <trkpt lat="44.29159" lon="6.59746">
        <ele>2283</ele>
        <time>2021-08-07T11:26:54Z</time>
      </trkpt>
      <trkpt lat="44.29158" lon="6.5975">
        <ele>2283.6</ele>
        <time>2021-08-07T11:26:57Z</time>
      </trkpt>
      <trkpt lat="44.2915" lon="6.59762">
        <ele>2284.2</ele>
        <time>2021-08-07T11:27:06Z</time>
      </trkpt>
      <trkpt lat="44.29149" lon="6.59764">
        <ele>2284.4</ele>
        <time>2021-08-07T11:27:07Z</time>
      </trkpt>
      <trkpt lat="44.29138" lon="6.59774">
        <ele>2284.6</ele>
        <time>2021-08-07T11:27:17Z</time>
      </trkpt>
      <trkpt lat="44.29137" lon="6.59775">
        <ele>2284.8</ele>
        <time>2021-08-07T11:27:18Z</time>
      </trkpt>
      <trkpt lat="44.29132" lon="6.59786">
        <ele>2285.2</ele>
        <time>2021-08-07T11:27:26Z</time>
      </trkpt>
      <trkpt lat="44.29131" lon="6.59787">
        <ele>2285.4</ele>
        <time>2021-08-07T11:27:27Z</time>
      </trkpt>
      <trkpt lat="44.29128" lon="6.59791">
        <ele>2286.2</ele>
        <time>2021-08-07T11:27:32Z</time>
      </trkpt>
      <trkpt lat="44.29125" lon="6.59794">
        <ele>2286.4</ele>
        <time>2021-08-07T11:27:37Z</time>
      </trkpt>
      <trkpt lat="44.2912" lon="6.598">
        <ele>2287.2</ele>
        <time>2021-08-07T11:27:46Z</time>
      </trkpt>
      <trkpt lat="44.29119" lon="6.59801">
        <ele>2287.2</ele>
        <time>2021-08-07T11:27:47Z</time>
      </trkpt>
      <trkpt lat="44.29117" lon="6.59801">
        <ele>2287.4</ele>
        <time>2021-08-07T11:27:49Z</time>
      </trkpt>
      <trkpt lat="44.29114" lon="6.59803">
        <ele>2288</ele>
        <time>2021-08-07T11:27:55Z</time>
      </trkpt>
      <trkpt lat="44.29113" lon="6.59804">
        <ele>2287.8</ele>
        <time>2021-08-07T11:27:57Z</time>
      </trkpt>
      <trkpt lat="44.29108" lon="6.59806">
        <ele>2287.2</ele>
        <time>2021-08-07T11:28:03Z</time>
      </trkpt>
      <trkpt lat="44.29103" lon="6.59807">
        <ele>2287</ele>
        <time>2021-08-07T11:28:07Z</time>
      </trkpt>
      <trkpt lat="44.29101" lon="6.59809">
        <ele>2288.4</ele>
        <time>2021-08-07T11:28:12Z</time>
      </trkpt>
      <trkpt lat="44.29099" lon="6.59812">
        <ele>2289.2</ele>
        <time>2021-08-07T11:28:15Z</time>
      </trkpt>
      <trkpt lat="44.29097" lon="6.59814">
        <ele>2289.6</ele>
        <time>2021-08-07T11:28:17Z</time>
      </trkpt>
      <trkpt lat="44.29095" lon="6.59814">
        <ele>2289.6</ele>
        <time>2021-08-07T11:28:20Z</time>
      </trkpt>
      <trkpt lat="44.29093" lon="6.59815">
        <ele>2288.6</ele>
        <time>2021-08-07T11:28:22Z</time>
      </trkpt>
      <trkpt lat="44.29091" lon="6.59816">
        <ele>2288</ele>
        <time>2021-08-07T11:28:23Z</time>
      </trkpt>
      <trkpt lat="44.29089" lon="6.59816">
        <ele>2287.4</ele>
        <time>2021-08-07T11:28:24Z</time>
      </trkpt>
      <trkpt lat="44.29082" lon="6.59815">
        <ele>2286</ele>
        <time>2021-08-07T11:28:26Z</time>
      </trkpt>
      <trkpt lat="44.29079" lon="6.59814">
        <ele>2285.2</ele>
        <time>2021-08-07T11:28:27Z</time>
      </trkpt>
      <trkpt lat="44.29076" lon="6.59812">
        <ele>2284.8</ele>
        <time>2021-08-07T11:28:28Z</time>
      </trkpt>
      <trkpt lat="44.29067" lon="6.59809">
        <ele>2283.6</ele>
        <time>2021-08-07T11:28:31Z</time>
      </trkpt>
      <trkpt lat="44.29057" lon="6.5981">
        <ele>2284</ele>
        <time>2021-08-07T11:28:34Z</time>
      </trkpt>
      <trkpt lat="44.29053" lon="6.59807">
        <ele>2284.6</ele>
        <time>2021-08-07T11:28:36Z</time>
      </trkpt>
      <trkpt lat="44.29053" lon="6.59807">
        <ele>2285</ele>
        <time>2021-08-07T11:28:37Z</time>
      </trkpt>
      <trkpt lat="44.2905" lon="6.59803">
        <ele>2285</ele>
        <time>2021-08-07T11:28:43Z</time>
      </trkpt>
      <trkpt lat="44.29048" lon="6.59801">
        <ele>2284.4</ele>
        <time>2021-08-07T11:28:47Z</time>
      </trkpt>
      <trkpt lat="44.29044" lon="6.598">
        <ele>2284.8</ele>
        <time>2021-08-07T11:28:52Z</time>
      </trkpt>
      <trkpt lat="44.29042" lon="6.598">
        <ele>2286.2</ele>
        <time>2021-08-07T11:28:55Z</time>
      </trkpt>
      <trkpt lat="44.29041" lon="6.59799">
        <ele>2287</ele>
        <time>2021-08-07T11:28:57Z</time>
      </trkpt>
      <trkpt lat="44.2904" lon="6.59799">
        <ele>2287.2</ele>
        <time>2021-08-07T11:28:58Z</time>
      </trkpt>
      <trkpt lat="44.29035" lon="6.59797">
        <ele>2288.4</ele>
        <time>2021-08-07T11:29:05Z</time>
      </trkpt>
      <trkpt lat="44.29034" lon="6.59796">
        <ele>2288.8</ele>
        <time>2021-08-07T11:29:07Z</time>
      </trkpt>
      <trkpt lat="44.29032" lon="6.59795">
        <ele>2288.8</ele>
        <time>2021-08-07T11:29:09Z</time>
      </trkpt>
      <trkpt lat="44.29031" lon="6.59795">
        <ele>2289</ele>
        <time>2021-08-07T11:29:10Z</time>
      </trkpt>
      <trkpt lat="44.2903" lon="6.59794">
        <ele>2289.2</ele>
        <time>2021-08-07T11:29:11Z</time>
      </trkpt>
      <trkpt lat="44.29028" lon="6.59794">
        <ele>2289.6</ele>
        <time>2021-08-07T11:29:13Z</time>
      </trkpt>
      <trkpt lat="44.29025" lon="6.59794">
        <ele>2289.8</ele>
        <time>2021-08-07T11:29:16Z</time>
      </trkpt>
      <trkpt lat="44.29024" lon="6.59794">
        <ele>2289.6</ele>
        <time>2021-08-07T11:29:17Z</time>
      </trkpt>
      <trkpt lat="44.29018" lon="6.59793">
        <ele>2290.4</ele>
        <time>2021-08-07T11:29:27Z</time>
      </trkpt>
      <trkpt lat="44.29016" lon="6.59792">
        <ele>2290.6</ele>
        <time>2021-08-07T11:29:29Z</time>
      </trkpt>
      <trkpt lat="44.29013" lon="6.59792">
        <ele>2291.6</ele>
        <time>2021-08-07T11:29:35Z</time>
      </trkpt>
      <trkpt lat="44.29011" lon="6.59792">
        <ele>2292.2</ele>
        <time>2021-08-07T11:29:37Z</time>
      </trkpt>
      <trkpt lat="44.2901" lon="6.59793">
        <ele>2292.8</ele>
        <time>2021-08-07T11:29:39Z</time>
      </trkpt>
      <trkpt lat="44.29008" lon="6.59794">
        <ele>2293.2</ele>
        <time>2021-08-07T11:29:41Z</time>
      </trkpt>
      <trkpt lat="44.29002" lon="6.59799">
        <ele>2293.4</ele>
        <time>2021-08-07T11:29:47Z</time>
      </trkpt>
      <trkpt lat="44.29" lon="6.598">
        <ele>2294</ele>
        <time>2021-08-07T11:29:50Z</time>
      </trkpt>
      <trkpt lat="44.28999" lon="6.59801">
        <ele>2295</ele>
        <time>2021-08-07T11:29:53Z</time>
      </trkpt>
      <trkpt lat="44.28998" lon="6.59803">
        <ele>2295.2</ele>
        <time>2021-08-07T11:29:54Z</time>
      </trkpt>
      <trkpt lat="44.28996" lon="6.59804">
        <ele>2296</ele>
        <time>2021-08-07T11:29:56Z</time>
      </trkpt>
      <trkpt lat="44.28995" lon="6.59805">
        <ele>2296.4</ele>
        <time>2021-08-07T11:29:57Z</time>
      </trkpt>
      <trkpt lat="44.28992" lon="6.59806">
        <ele>2297.4</ele>
        <time>2021-08-07T11:30:00Z</time>
      </trkpt>
      <trkpt lat="44.28987" lon="6.59807">
        <ele>2297.6</ele>
        <time>2021-08-07T11:30:05Z</time>
      </trkpt>
      <trkpt lat="44.28985" lon="6.59807">
        <ele>2297.4</ele>
        <time>2021-08-07T11:30:07Z</time>
      </trkpt>
      <trkpt lat="44.28981" lon="6.5981">
        <ele>2297.4</ele>
        <time>2021-08-07T11:30:11Z</time>
      </trkpt>
      <trkpt lat="44.28976" lon="6.59815">
        <ele>2298</ele>
        <time>2021-08-07T11:30:17Z</time>
      </trkpt>
      <trkpt lat="44.28973" lon="6.59819">
        <ele>2298.4</ele>
        <time>2021-08-07T11:30:20Z</time>
      </trkpt>
      <trkpt lat="44.28968" lon="6.59825">
        <ele>2299.4</ele>
        <time>2021-08-07T11:30:25Z</time>
      </trkpt>
      <trkpt lat="44.28966" lon="6.59826">
        <ele>2299.6</ele>
        <time>2021-08-07T11:30:27Z</time>
      </trkpt>
      <trkpt lat="44.28963" lon="6.59828">
        <ele>2300.4</ele>
        <time>2021-08-07T11:30:31Z</time>
      </trkpt>
      <trkpt lat="44.28962" lon="6.59829">
        <ele>2301</ele>
        <time>2021-08-07T11:30:33Z</time>
      </trkpt>
      <trkpt lat="44.2896" lon="6.59831">
        <ele>2301.2</ele>
        <time>2021-08-07T11:30:37Z</time>
      </trkpt>
      <trkpt lat="44.28955" lon="6.59836">
        <ele>2300.6</ele>
        <time>2021-08-07T11:30:40Z</time>
      </trkpt>
      <trkpt lat="44.28947" lon="6.59849">
        <ele>2300.8</ele>
        <time>2021-08-07T11:30:47Z</time>
      </trkpt>
      <trkpt lat="44.28939" lon="6.59857">
        <ele>2301.6</ele>
        <time>2021-08-07T11:30:54Z</time>
      </trkpt>
      <trkpt lat="44.28939" lon="6.59858">
        <ele>2301.6</ele>
        <time>2021-08-07T11:30:55Z</time>
      </trkpt>
      <trkpt lat="44.28938" lon="6.59859">
        <ele>2301.8</ele>
        <time>2021-08-07T11:30:57Z</time>
      </trkpt>
      <trkpt lat="44.28934" lon="6.59863">
        <ele>2302.2</ele>
        <time>2021-08-07T11:31:07Z</time>
      </trkpt>
      <trkpt lat="44.28934" lon="6.59863">
        <ele>2302.6</ele>
        <time>2021-08-07T11:31:10Z</time>
      </trkpt>
      <trkpt lat="44.28933" lon="6.59864">
        <ele>2303</ele>
        <time>2021-08-07T11:31:12Z</time>
      </trkpt>
      <trkpt lat="44.28932" lon="6.59865">
        <ele>2303.4</ele>
        <time>2021-08-07T11:31:14Z</time>
      </trkpt>
      <trkpt lat="44.28932" lon="6.59866">
        <ele>2303.6</ele>
        <time>2021-08-07T11:31:15Z</time>
      </trkpt>
      <trkpt lat="44.28931" lon="6.59866">
        <ele>2303.8</ele>
        <time>2021-08-07T11:31:16Z</time>
      </trkpt>
      <trkpt lat="44.2893" lon="6.59867">
        <ele>2303.8</ele>
        <time>2021-08-07T11:31:17Z</time>
      </trkpt>
      <trkpt lat="44.28928" lon="6.59868">
        <ele>2305</ele>
        <time>2021-08-07T11:31:21Z</time>
      </trkpt>
      <trkpt lat="44.28926" lon="6.59869">
        <ele>2305</ele>
        <time>2021-08-07T11:31:23Z</time>
      </trkpt>
      <trkpt lat="44.28923" lon="6.5987">
        <ele>2305.6</ele>
        <time>2021-08-07T11:31:26Z</time>
      </trkpt>
      <trkpt lat="44.28922" lon="6.5987">
        <ele>2306.2</ele>
        <time>2021-08-07T11:31:27Z</time>
      </trkpt>
      <trkpt lat="44.28921" lon="6.59871">
        <ele>2307</ele>
        <time>2021-08-07T11:31:29Z</time>
      </trkpt>
      <trkpt lat="44.2892" lon="6.59871">
        <ele>2307.8</ele>
        <time>2021-08-07T11:31:30Z</time>
      </trkpt>
      <trkpt lat="44.2892" lon="6.59871">
        <ele>2309</ele>
        <time>2021-08-07T11:31:31Z</time>
      </trkpt>
      <trkpt lat="44.2892" lon="6.59872">
        <ele>2310.2</ele>
        <time>2021-08-07T11:31:32Z</time>
      </trkpt>
      <trkpt lat="44.28919" lon="6.59874">
        <ele>2311.4</ele>
        <time>2021-08-07T11:31:34Z</time>
      </trkpt>
      <trkpt lat="44.28918" lon="6.59877">
        <ele>2311.8</ele>
        <time>2021-08-07T11:31:36Z</time>
      </trkpt>
      <trkpt lat="44.28917" lon="6.59879">
        <ele>2311.8</ele>
        <time>2021-08-07T11:31:37Z</time>
      </trkpt>
      <trkpt lat="44.28915" lon="6.59884">
        <ele>2310.2</ele>
        <time>2021-08-07T11:31:42Z</time>
      </trkpt>
      <trkpt lat="44.28914" lon="6.59887">
        <ele>2309.2</ele>
        <time>2021-08-07T11:31:44Z</time>
      </trkpt>
      <trkpt lat="44.28912" lon="6.59891">
        <ele>2308.4</ele>
        <time>2021-08-07T11:31:47Z</time>
      </trkpt>
      <trkpt lat="44.28908" lon="6.59904">
        <ele>2310.4</ele>
        <time>2021-08-07T11:31:55Z</time>
      </trkpt>
      <trkpt lat="44.28907" lon="6.59907">
        <ele>2311.6</ele>
        <time>2021-08-07T11:31:57Z</time>
      </trkpt>
      <trkpt lat="44.28903" lon="6.59926">
        <ele>2310.8</ele>
        <time>2021-08-07T11:32:07Z</time>
      </trkpt>
      <trkpt lat="44.28902" lon="6.59939">
        <ele>2311</ele>
        <time>2021-08-07T11:32:13Z</time>
      </trkpt>
      <trkpt lat="44.28903" lon="6.59947">
        <ele>2310.6</ele>
        <time>2021-08-07T11:32:17Z</time>
      </trkpt>
      <trkpt lat="44.28905" lon="6.59957">
        <ele>2309.4</ele>
        <time>2021-08-07T11:32:22Z</time>
      </trkpt>
      <trkpt lat="44.28905" lon="6.59966">
        <ele>2309</ele>
        <time>2021-08-07T11:32:27Z</time>
      </trkpt>
      <trkpt lat="44.28904" lon="6.59972">
        <ele>2310.6</ele>
        <time>2021-08-07T11:32:34Z</time>
      </trkpt>
      <trkpt lat="44.28904" lon="6.59972">
        <ele>2311</ele>
        <time>2021-08-07T11:32:37Z</time>
      </trkpt>
      <trkpt lat="44.28903" lon="6.5998">
        <ele>2311</ele>
        <time>2021-08-07T11:32:47Z</time>
      </trkpt>
      <trkpt lat="44.28903" lon="6.59982">
        <ele>2310.8</ele>
        <time>2021-08-07T11:32:48Z</time>
      </trkpt>
      <trkpt lat="44.28904" lon="6.59985">
        <ele>2310.6</ele>
        <time>2021-08-07T11:32:50Z</time>
      </trkpt>
      <trkpt lat="44.28908" lon="6.59994">
        <ele>2310.6</ele>
        <time>2021-08-07T11:32:57Z</time>
      </trkpt>
      <trkpt lat="44.28908" lon="6.60003">
        <ele>2311</ele>
        <time>2021-08-07T11:33:05Z</time>
      </trkpt>
      <trkpt lat="44.28908" lon="6.60005">
        <ele>2311.2</ele>
        <time>2021-08-07T11:33:07Z</time>
      </trkpt>
      <trkpt lat="44.28908" lon="6.60008">
        <ele>2311.8</ele>
        <time>2021-08-07T11:33:09Z</time>
      </trkpt>
      <trkpt lat="44.28911" lon="6.60013">
        <ele>2312.2</ele>
        <time>2021-08-07T11:33:17Z</time>
      </trkpt>
      <trkpt lat="44.28916" lon="6.60019">
        <ele>2312.2</ele>
        <time>2021-08-07T11:33:24Z</time>
      </trkpt>
      <trkpt lat="44.28917" lon="6.60022">
        <ele>2312.4</ele>
        <time>2021-08-07T11:33:27Z</time>
      </trkpt>
      <trkpt lat="44.28917" lon="6.60022">
        <ele>2312.4</ele>
        <time>2021-08-07T11:33:28Z</time>
      </trkpt>
      <trkpt lat="44.2892" lon="6.60031">
        <ele>2312</ele>
        <time>2021-08-07T11:33:37Z</time>
      </trkpt>
      <trkpt lat="44.28921" lon="6.60039">
        <ele>2312.8</ele>
        <time>2021-08-07T11:33:43Z</time>
      </trkpt>
      <trkpt lat="44.28922" lon="6.60041">
        <ele>2313</ele>
        <time>2021-08-07T11:33:44Z</time>
      </trkpt>
      <trkpt lat="44.28922" lon="6.60048">
        <ele>2313.4</ele>
        <time>2021-08-07T11:33:47Z</time>
      </trkpt>
      <trkpt lat="44.28913" lon="6.60065">
        <ele>2312.6</ele>
        <time>2021-08-07T11:33:57Z</time>
      </trkpt>
      <trkpt lat="44.28912" lon="6.6008">
        <ele>2313.8</ele>
        <time>2021-08-07T11:34:07Z</time>
      </trkpt>
      <trkpt lat="44.28908" lon="6.60085">
        <ele>2315</ele>
        <time>2021-08-07T11:34:11Z</time>
      </trkpt>
      <trkpt lat="44.28906" lon="6.60087">
        <ele>2316.2</ele>
        <time>2021-08-07T11:34:13Z</time>
      </trkpt>
      <trkpt lat="44.28901" lon="6.60091">
        <ele>2316.8</ele>
        <time>2021-08-07T11:34:17Z</time>
      </trkpt>
      <trkpt lat="44.2889" lon="6.60112">
        <ele>2317</ele>
        <time>2021-08-07T11:34:27Z</time>
      </trkpt>
      <trkpt lat="44.28888" lon="6.60116">
        <ele>2317.2</ele>
        <time>2021-08-07T11:34:29Z</time>
      </trkpt>
      <trkpt lat="44.28887" lon="6.60119">
        <ele>2317.2</ele>
        <time>2021-08-07T11:34:30Z</time>
      </trkpt>
      <trkpt lat="44.28884" lon="6.60133">
        <ele>2318</ele>
        <time>2021-08-07T11:34:37Z</time>
      </trkpt>
      <trkpt lat="44.28884" lon="6.60135">
        <ele>2318.2</ele>
        <time>2021-08-07T11:34:38Z</time>
      </trkpt>
      <trkpt lat="44.28884" lon="6.60137">
        <ele>2318.2</ele>
        <time>2021-08-07T11:34:39Z</time>
      </trkpt>
      <trkpt lat="44.28888" lon="6.60147">
        <ele>2319.4</ele>
        <time>2021-08-07T11:34:44Z</time>
      </trkpt>
      <trkpt lat="44.28891" lon="6.60153">
        <ele>2319.6</ele>
        <time>2021-08-07T11:34:47Z</time>
      </trkpt>
      <trkpt lat="44.28895" lon="6.60159">
        <ele>2320.4</ele>
        <time>2021-08-07T11:34:52Z</time>
      </trkpt>
      <trkpt lat="44.28899" lon="6.60165">
        <ele>2320.4</ele>
        <time>2021-08-07T11:34:57Z</time>
      </trkpt>
      <trkpt lat="44.289" lon="6.60166">
        <ele>2320.4</ele>
        <time>2021-08-07T11:34:58Z</time>
      </trkpt>
      <trkpt lat="44.28905" lon="6.60178">
        <ele>2320</ele>
        <time>2021-08-07T11:35:06Z</time>
      </trkpt>
      <trkpt lat="44.28905" lon="6.60179">
        <ele>2320</ele>
        <time>2021-08-07T11:35:07Z</time>
      </trkpt>
      <trkpt lat="44.28906" lon="6.60186">
        <ele>2319.6</ele>
        <time>2021-08-07T11:35:11Z</time>
      </trkpt>
      <trkpt lat="44.28908" lon="6.60194">
        <ele>2320.2</ele>
        <time>2021-08-07T11:35:17Z</time>
      </trkpt>
      <trkpt lat="44.2891" lon="6.60204">
        <ele>2321.4</ele>
        <time>2021-08-07T11:35:27Z</time>
      </trkpt>
      <trkpt lat="44.28911" lon="6.60206">
        <ele>2321.6</ele>
        <time>2021-08-07T11:35:28Z</time>
      </trkpt>
      <trkpt lat="44.28912" lon="6.60211">
        <ele>2323</ele>
        <time>2021-08-07T11:35:33Z</time>
      </trkpt>
      <trkpt lat="44.28912" lon="6.60216">
        <ele>2324</ele>
        <time>2021-08-07T11:35:37Z</time>
      </trkpt>
      <trkpt lat="44.28913" lon="6.60223">
        <ele>2323.2</ele>
        <time>2021-08-07T11:35:47Z</time>
      </trkpt>
      <trkpt lat="44.28915" lon="6.60228">
        <ele>2323</ele>
        <time>2021-08-07T11:35:51Z</time>
      </trkpt>
      <trkpt lat="44.28917" lon="6.60235">
        <ele>2322.8</ele>
        <time>2021-08-07T11:35:54Z</time>
      </trkpt>
      <trkpt lat="44.28918" lon="6.60239">
        <ele>2322.8</ele>
        <time>2021-08-07T11:35:56Z</time>
      </trkpt>
      <trkpt lat="44.28919" lon="6.60241">
        <ele>2322.6</ele>
        <time>2021-08-07T11:35:57Z</time>
      </trkpt>
      <trkpt lat="44.28924" lon="6.60253">
        <ele>2321.6</ele>
        <time>2021-08-07T11:36:02Z</time>
      </trkpt>
      <trkpt lat="44.28924" lon="6.60256">
        <ele>2321.2</ele>
        <time>2021-08-07T11:36:06Z</time>
      </trkpt>
      <trkpt lat="44.28924" lon="6.60256">
        <ele>2321.4</ele>
        <time>2021-08-07T11:36:07Z</time>
      </trkpt>
      <trkpt lat="44.28923" lon="6.6026">
        <ele>2323</ele>
        <time>2021-08-07T11:36:12Z</time>
      </trkpt>
      <trkpt lat="44.28923" lon="6.60263">
        <ele>2324</ele>
        <time>2021-08-07T11:36:15Z</time>
      </trkpt>
      <trkpt lat="44.28923" lon="6.60264">
        <ele>2324.4</ele>
        <time>2021-08-07T11:36:17Z</time>
      </trkpt>
      <trkpt lat="44.28923" lon="6.60265">
        <ele>2324.4</ele>
        <time>2021-08-07T11:36:18Z</time>
      </trkpt>
      <trkpt lat="44.28923" lon="6.60266">
        <ele>2324.4</ele>
        <time>2021-08-07T11:36:19Z</time>
      </trkpt>
      <trkpt lat="44.28923" lon="6.60268">
        <ele>2324.8</ele>
        <time>2021-08-07T11:36:21Z</time>
      </trkpt>
      <trkpt lat="44.28923" lon="6.60269">
        <ele>2325</ele>
        <time>2021-08-07T11:36:22Z</time>
      </trkpt>
      <trkpt lat="44.28923" lon="6.60273">
        <ele>2325.2</ele>
        <time>2021-08-07T11:36:25Z</time>
      </trkpt>
      <trkpt lat="44.28924" lon="6.60276">
        <ele>2325.4</ele>
        <time>2021-08-07T11:36:27Z</time>
      </trkpt>
      <trkpt lat="44.28925" lon="6.60286">
        <ele>2326</ele>
        <time>2021-08-07T11:36:35Z</time>
      </trkpt>
      <trkpt lat="44.28925" lon="6.60288">
        <ele>2326.2</ele>
        <time>2021-08-07T11:36:37Z</time>
      </trkpt>
      <trkpt lat="44.28925" lon="6.60294">
        <ele>2327.2</ele>
        <time>2021-08-07T11:36:41Z</time>
      </trkpt>
      <trkpt lat="44.28926" lon="6.60303">
        <ele>2328</ele>
        <time>2021-08-07T11:36:47Z</time>
      </trkpt>
      <trkpt lat="44.28927" lon="6.60303">
        <ele>2328.2</ele>
        <time>2021-08-07T11:36:48Z</time>
      </trkpt>
      <trkpt lat="44.28927" lon="6.6031">
        <ele>2328.4</ele>
        <time>2021-08-07T11:36:55Z</time>
      </trkpt>
      <trkpt lat="44.28928" lon="6.60316">
        <ele>2328.2</ele>
        <time>2021-08-07T11:36:57Z</time>
      </trkpt>
      <trkpt lat="44.28929" lon="6.60331">
        <ele>2328.2</ele>
        <time>2021-08-07T11:37:05Z</time>
      </trkpt>
      <trkpt lat="44.28928" lon="6.60334">
        <ele>2328.4</ele>
        <time>2021-08-07T11:37:07Z</time>
      </trkpt>
      <trkpt lat="44.28928" lon="6.60341">
        <ele>2329.2</ele>
        <time>2021-08-07T11:37:11Z</time>
      </trkpt>
      <trkpt lat="44.28929" lon="6.60351">
        <ele>2330</ele>
        <time>2021-08-07T11:37:17Z</time>
      </trkpt>
      <trkpt lat="44.28929" lon="6.60354">
        <ele>2330.4</ele>
        <time>2021-08-07T11:37:19Z</time>
      </trkpt>
      <trkpt lat="44.28929" lon="6.60367">
        <ele>2330.8</ele>
        <time>2021-08-07T11:37:27Z</time>
      </trkpt>
      <trkpt lat="44.28929" lon="6.6037">
        <ele>2331.4</ele>
        <time>2021-08-07T11:37:29Z</time>
      </trkpt>
      <trkpt lat="44.2893" lon="6.6038">
        <ele>2332.4</ele>
        <time>2021-08-07T11:37:35Z</time>
      </trkpt>
      <trkpt lat="44.28931" lon="6.60383">
        <ele>2332.6</ele>
        <time>2021-08-07T11:37:37Z</time>
      </trkpt>
      <trkpt lat="44.28935" lon="6.60393">
        <ele>2333.6</ele>
        <time>2021-08-07T11:37:44Z</time>
      </trkpt>
      <trkpt lat="44.28936" lon="6.60398">
        <ele>2333.8</ele>
        <time>2021-08-07T11:37:47Z</time>
      </trkpt>
      <trkpt lat="44.28939" lon="6.60407">
        <ele>2334.6</ele>
        <time>2021-08-07T11:37:51Z</time>
      </trkpt>
      <trkpt lat="44.28942" lon="6.60419">
        <ele>2334.2</ele>
        <time>2021-08-07T11:37:57Z</time>
      </trkpt>
      <trkpt lat="44.28942" lon="6.6042">
        <ele>2334.2</ele>
        <time>2021-08-07T11:37:58Z</time>
      </trkpt>
      <trkpt lat="44.28941" lon="6.60422">
        <ele>2334.6</ele>
        <time>2021-08-07T11:38:00Z</time>
      </trkpt>
      <trkpt lat="44.2894" lon="6.60424">
        <ele>2335</ele>
        <time>2021-08-07T11:38:02Z</time>
      </trkpt>
      <trkpt lat="44.2894" lon="6.60429">
        <ele>2335.4</ele>
        <time>2021-08-07T11:38:07Z</time>
      </trkpt>
      <trkpt lat="44.2894" lon="6.60432">
        <ele>2335.6</ele>
        <time>2021-08-07T11:38:10Z</time>
      </trkpt>
      <trkpt lat="44.2894" lon="6.60433">
        <ele>2335.6</ele>
        <time>2021-08-07T11:38:11Z</time>
      </trkpt>
      <trkpt lat="44.28941" lon="6.60437">
        <ele>2336</ele>
        <time>2021-08-07T11:38:14Z</time>
      </trkpt>
      <trkpt lat="44.28941" lon="6.6044">
        <ele>2336.4</ele>
        <time>2021-08-07T11:38:17Z</time>
      </trkpt>
      <trkpt lat="44.28943" lon="6.60444">
        <ele>2337</ele>
        <time>2021-08-07T11:38:20Z</time>
      </trkpt>
      <trkpt lat="44.28942" lon="6.60448">
        <ele>2338</ele>
        <time>2021-08-07T11:38:23Z</time>
      </trkpt>
      <trkpt lat="44.28939" lon="6.60453">
        <ele>2338</ele>
        <time>2021-08-07T11:38:27Z</time>
      </trkpt>
      <trkpt lat="44.28938" lon="6.60457">
        <ele>2337.8</ele>
        <time>2021-08-07T11:38:31Z</time>
      </trkpt>
      <trkpt lat="44.28936" lon="6.60463">
        <ele>2339.2</ele>
        <time>2021-08-07T11:38:36Z</time>
      </trkpt>
      <trkpt lat="44.28936" lon="6.60464">
        <ele>2339.8</ele>
        <time>2021-08-07T11:38:37Z</time>
      </trkpt>
      <trkpt lat="44.28935" lon="6.60466">
        <ele>2340.6</ele>
        <time>2021-08-07T11:38:39Z</time>
      </trkpt>
      <trkpt lat="44.28928" lon="6.60476">
        <ele>2341.4</ele>
        <time>2021-08-07T11:38:47Z</time>
      </trkpt>
      <trkpt lat="44.28927" lon="6.60478">
        <ele>2342.2</ele>
        <time>2021-08-07T11:38:48Z</time>
      </trkpt>
      <trkpt lat="44.28924" lon="6.60481">
        <ele>2343.6</ele>
        <time>2021-08-07T11:38:50Z</time>
      </trkpt>
      <trkpt lat="44.28922" lon="6.60484">
        <ele>2344.6</ele>
        <time>2021-08-07T11:38:52Z</time>
      </trkpt>
      <trkpt lat="44.2892" lon="6.60486">
        <ele>2343.2</ele>
        <time>2021-08-07T11:38:54Z</time>
      </trkpt>
      <trkpt lat="44.28918" lon="6.60489">
        <ele>2342</ele>
        <time>2021-08-07T11:38:56Z</time>
      </trkpt>
      <trkpt lat="44.28918" lon="6.6049">
        <ele>2341.8</ele>
        <time>2021-08-07T11:38:57Z</time>
      </trkpt>
      <trkpt lat="44.28914" lon="6.60495">
        <ele>2341.8</ele>
        <time>2021-08-07T11:39:04Z</time>
      </trkpt>
      <trkpt lat="44.28913" lon="6.60498">
        <ele>2342</ele>
        <time>2021-08-07T11:39:07Z</time>
      </trkpt>
      <trkpt lat="44.28912" lon="6.605">
        <ele>2341.6</ele>
        <time>2021-08-07T11:39:09Z</time>
      </trkpt>
      <trkpt lat="44.28911" lon="6.60502">
        <ele>2341.4</ele>
        <time>2021-08-07T11:39:11Z</time>
      </trkpt>
      <trkpt lat="44.28909" lon="6.60505">
        <ele>2341.4</ele>
        <time>2021-08-07T11:39:14Z</time>
      </trkpt>
      <trkpt lat="44.28906" lon="6.60509">
        <ele>2342</ele>
        <time>2021-08-07T11:39:17Z</time>
      </trkpt>
      <trkpt lat="44.28904" lon="6.60514">
        <ele>2342.8</ele>
        <time>2021-08-07T11:39:20Z</time>
      </trkpt>
      <trkpt lat="44.28903" lon="6.60518">
        <ele>2343.2</ele>
        <time>2021-08-07T11:39:22Z</time>
      </trkpt>
      <trkpt lat="44.289" lon="6.60525">
        <ele>2344</ele>
        <time>2021-08-07T11:39:27Z</time>
      </trkpt>
      <trkpt lat="44.28899" lon="6.60526">
        <ele>2344.4</ele>
        <time>2021-08-07T11:39:28Z</time>
      </trkpt>
      <trkpt lat="44.28897" lon="6.60532">
        <ele>2345</ele>
        <time>2021-08-07T11:39:32Z</time>
      </trkpt>
      <trkpt lat="44.28897" lon="6.60536">
        <ele>2345.2</ele>
        <time>2021-08-07T11:39:34Z</time>
      </trkpt>
      <trkpt lat="44.28896" lon="6.60542">
        <ele>2345</ele>
        <time>2021-08-07T11:39:37Z</time>
      </trkpt>
      <trkpt lat="44.28896" lon="6.60543">
        <ele>2345</ele>
        <time>2021-08-07T11:39:38Z</time>
      </trkpt>
      <trkpt lat="44.28895" lon="6.60545">
        <ele>2345.6</ele>
        <time>2021-08-07T11:39:42Z</time>
      </trkpt>
      <trkpt lat="44.28895" lon="6.6055">
        <ele>2346</ele>
        <time>2021-08-07T11:39:46Z</time>
      </trkpt>
      <trkpt lat="44.28895" lon="6.60552">
        <ele>2346</ele>
        <time>2021-08-07T11:39:47Z</time>
      </trkpt>
      <trkpt lat="44.28896" lon="6.60559">
        <ele>2346.4</ele>
        <time>2021-08-07T11:39:54Z</time>
      </trkpt>
      <trkpt lat="44.28896" lon="6.60561">
        <ele>2346.8</ele>
        <time>2021-08-07T11:39:55Z</time>
      </trkpt>
      <trkpt lat="44.28895" lon="6.60565">
        <ele>2347.2</ele>
        <time>2021-08-07T11:39:57Z</time>
      </trkpt>
      <trkpt lat="44.28895" lon="6.60567">
        <ele>2347.4</ele>
        <time>2021-08-07T11:39:59Z</time>
      </trkpt>
      <trkpt lat="44.28894" lon="6.60569">
        <ele>2347.6</ele>
        <time>2021-08-07T11:40:00Z</time>
      </trkpt>
      <trkpt lat="44.28894" lon="6.6057">
        <ele>2347.8</ele>
        <time>2021-08-07T11:40:01Z</time>
      </trkpt>
      <trkpt lat="44.28893" lon="6.60571">
        <ele>2348</ele>
        <time>2021-08-07T11:40:02Z</time>
      </trkpt>
      <trkpt lat="44.28893" lon="6.60572">
        <ele>2348.2</ele>
        <time>2021-08-07T11:40:03Z</time>
      </trkpt>
      <trkpt lat="44.28892" lon="6.60573">
        <ele>2348.4</ele>
        <time>2021-08-07T11:40:04Z</time>
      </trkpt>
      <trkpt lat="44.28892" lon="6.60574">
        <ele>2348.6</ele>
        <time>2021-08-07T11:40:05Z</time>
      </trkpt>
      <trkpt lat="44.28891" lon="6.60577">
        <ele>2348.8</ele>
        <time>2021-08-07T11:40:07Z</time>
      </trkpt>
      <trkpt lat="44.28883" lon="6.60586">
        <ele>2348.8</ele>
        <time>2021-08-07T11:40:17Z</time>
      </trkpt>
      <trkpt lat="44.28877" lon="6.60592">
        <ele>2350.2</ele>
        <time>2021-08-07T11:40:24Z</time>
      </trkpt>
      <trkpt lat="44.28875" lon="6.60594">
        <ele>2350.8</ele>
        <time>2021-08-07T11:40:27Z</time>
      </trkpt>
      <trkpt lat="44.28871" lon="6.60603">
        <ele>2351.2</ele>
        <time>2021-08-07T11:40:35Z</time>
      </trkpt>
      <trkpt lat="44.28869" lon="6.60604">
        <ele>2351.4</ele>
        <time>2021-08-07T11:40:37Z</time>
      </trkpt>
      <trkpt lat="44.28867" lon="6.60607">
        <ele>2352.2</ele>
        <time>2021-08-07T11:40:41Z</time>
      </trkpt>
      <trkpt lat="44.28865" lon="6.60612">
        <ele>2353.4</ele>
        <time>2021-08-07T11:40:45Z</time>
      </trkpt>
      <trkpt lat="44.28864" lon="6.60614">
        <ele>2354.2</ele>
        <time>2021-08-07T11:40:47Z</time>
      </trkpt>
      <trkpt lat="44.28864" lon="6.60616">
        <ele>2354.6</ele>
        <time>2021-08-07T11:40:48Z</time>
      </trkpt>
      <trkpt lat="44.28861" lon="6.60629">
        <ele>2355.4</ele>
        <time>2021-08-07T11:40:57Z</time>
      </trkpt>
      <trkpt lat="44.28857" lon="6.60643">
        <ele>2355.2</ele>
        <time>2021-08-07T11:41:07Z</time>
      </trkpt>
      <trkpt lat="44.28856" lon="6.60647">
        <ele>2355.6</ele>
        <time>2021-08-07T11:41:10Z</time>
      </trkpt>
      <trkpt lat="44.28856" lon="6.60651">
        <ele>2356.6</ele>
        <time>2021-08-07T11:41:13Z</time>
      </trkpt>
      <trkpt lat="44.28856" lon="6.60654">
        <ele>2357.8</ele>
        <time>2021-08-07T11:41:15Z</time>
      </trkpt>
      <trkpt lat="44.28856" lon="6.60657">
        <ele>2359</ele>
        <time>2021-08-07T11:41:17Z</time>
      </trkpt>
      <trkpt lat="44.28855" lon="6.60669">
        <ele>2359.2</ele>
        <time>2021-08-07T11:41:27Z</time>
      </trkpt>
      <trkpt lat="44.28856" lon="6.60679">
        <ele>2360</ele>
        <time>2021-08-07T11:41:35Z</time>
      </trkpt>
      <trkpt lat="44.28856" lon="6.60682">
        <ele>2360.6</ele>
        <time>2021-08-07T11:41:37Z</time>
      </trkpt>
      <trkpt lat="44.28856" lon="6.60685">
        <ele>2361.2</ele>
        <time>2021-08-07T11:41:39Z</time>
      </trkpt>
      <trkpt lat="44.28855" lon="6.60696">
        <ele>2361.8</ele>
        <time>2021-08-07T11:41:47Z</time>
      </trkpt>
      <trkpt lat="44.28855" lon="6.60699">
        <ele>2362.4</ele>
        <time>2021-08-07T11:41:49Z</time>
      </trkpt>
      <trkpt lat="44.28854" lon="6.60704">
        <ele>2363.8</ele>
        <time>2021-08-07T11:41:56Z</time>
      </trkpt>
      <trkpt lat="44.28854" lon="6.60704">
        <ele>2364.2</ele>
        <time>2021-08-07T11:41:57Z</time>
      </trkpt>
      <trkpt lat="44.28853" lon="6.60708">
        <ele>2364.8</ele>
        <time>2021-08-07T11:42:02Z</time>
      </trkpt>
      <trkpt lat="44.28851" lon="6.60708">
        <ele>2365</ele>
        <time>2021-08-07T11:42:04Z</time>
      </trkpt>
      <trkpt lat="44.28851" lon="6.60708">
        <ele>2365</ele>
        <time>2021-08-07T11:42:06Z</time>
      </trkpt>
      <trkpt lat="44.28851" lon="6.60707">
        <ele>2365</ele>
        <time>2021-08-07T11:42:07Z</time>
      </trkpt>
      <trkpt lat="44.28851" lon="6.60707">
        <ele>2365</ele>
        <time>2021-08-07T11:42:09Z</time>
      </trkpt>
      <trkpt lat="44.28851" lon="6.60707">
        <ele>2365</ele>
        <time>2021-08-07T11:42:10Z</time>
      </trkpt>
      <trkpt lat="44.28852" lon="6.60707">
        <ele>2365</ele>
        <time>2021-08-07T11:42:11Z</time>
      </trkpt>
      <trkpt lat="44.28852" lon="6.60707">
        <ele>2365.2</ele>
        <time>2021-08-07T11:42:12Z</time>
      </trkpt>
      <trkpt lat="44.28854" lon="6.6071">
        <ele>2366.2</ele>
        <time>2021-08-07T11:42:15Z</time>
      </trkpt>
      <trkpt lat="44.28854" lon="6.60712">
        <ele>2366.6</ele>
        <time>2021-08-07T11:42:17Z</time>
      </trkpt>
      <trkpt lat="44.28855" lon="6.60713">
        <ele>2366.6</ele>
        <time>2021-08-07T11:42:18Z</time>
      </trkpt>
      <trkpt lat="44.28853" lon="6.60714">
        <ele>2365</ele>
        <time>2021-08-07T11:42:25Z</time>
      </trkpt>
      <trkpt lat="44.28853" lon="6.60714">
        <ele>2365</ele>
        <time>2021-08-07T11:42:27Z</time>
      </trkpt>
      <trkpt lat="44.28854" lon="6.60713">
        <ele>2364</ele>
        <time>2021-08-07T11:42:32Z</time>
      </trkpt>
      <trkpt lat="44.28853" lon="6.60713">
        <ele>2363.4</ele>
        <time>2021-08-07T11:42:37Z</time>
      </trkpt>
      <trkpt lat="44.28854" lon="6.60712">
        <ele>2363.2</ele>
        <time>2021-08-07T11:42:41Z</time>
      </trkpt>
      <trkpt lat="44.28854" lon="6.60712">
        <ele>2363.4</ele>
        <time>2021-08-07T11:42:46Z</time>
      </trkpt>
      <trkpt lat="44.28854" lon="6.60712">
        <ele>2363.4</ele>
        <time>2021-08-07T11:42:47Z</time>
      </trkpt>
      <trkpt lat="44.28854" lon="6.60712">
        <ele>2363.2</ele>
        <time>2021-08-07T11:42:57Z</time>
      </trkpt>
      <trkpt lat="44.28854" lon="6.60711">
        <ele>2363</ele>
        <time>2021-08-07T11:42:58Z</time>
      </trkpt>
      <trkpt lat="44.28853" lon="6.60708">
        <ele>2363</ele>
        <time>2021-08-07T11:43:01Z</time>
      </trkpt>
      <trkpt lat="44.28853" lon="6.60707">
        <ele>2365.8</ele>
        <time>2021-08-07T11:43:02Z</time>
      </trkpt>
      <trkpt lat="44.28853" lon="6.60706">
        <ele>2362.6</ele>
        <time>2021-08-07T11:43:03Z</time>
      </trkpt>
      <trkpt lat="44.28853" lon="6.60705">
        <ele>2359.6</ele>
        <time>2021-08-07T11:43:04Z</time>
      </trkpt>
      <trkpt lat="44.28852" lon="6.60704">
        <ele>2358.2</ele>
        <time>2021-08-07T11:43:05Z</time>
      </trkpt>
      <trkpt lat="44.28851" lon="6.60704">
        <ele>2358.6</ele>
        <time>2021-08-07T11:43:07Z</time>
      </trkpt>
      <trkpt lat="44.28847" lon="6.60704">
        <ele>2359.4</ele>
        <time>2021-08-07T11:43:16Z</time>
      </trkpt>
      <trkpt lat="44.28847" lon="6.60704">
        <ele>2359.6</ele>
        <time>2021-08-07T11:43:17Z</time>
      </trkpt>
      <trkpt lat="44.28847" lon="6.60704">
        <ele>2360.6</ele>
        <time>2021-08-07T11:43:19Z</time>
      </trkpt>
      <trkpt lat="44.28847" lon="6.60704">
        <ele>2360</ele>
        <time>2021-08-07T11:43:23Z</time>
      </trkpt>
      <trkpt lat="44.28846" lon="6.60703">
        <ele>2360</ele>
        <time>2021-08-07T11:43:25Z</time>
      </trkpt>
      <trkpt lat="44.28846" lon="6.60703">
        <ele>2359.8</ele>
        <time>2021-08-07T11:43:27Z</time>
      </trkpt>
      <trkpt lat="44.28846" lon="6.60703">
        <ele>2360.4</ele>
        <time>2021-08-07T11:43:30Z</time>
      </trkpt>
      <trkpt lat="44.28844" lon="6.60704">
        <ele>2361</ele>
        <time>2021-08-07T11:43:37Z</time>
      </trkpt>
      <trkpt lat="44.28843" lon="6.60703">
        <ele>2362.6</ele>
        <time>2021-08-07T11:43:41Z</time>
      </trkpt>
      <trkpt lat="44.28843" lon="6.60704">
        <ele>2363.8</ele>
        <time>2021-08-07T11:43:43Z</time>
      </trkpt>
      <trkpt lat="44.28842" lon="6.60703">
        <ele>2364.4</ele>
        <time>2021-08-07T11:43:47Z</time>
      </trkpt>
      <trkpt lat="44.28841" lon="6.60701">
        <ele>2363.8</ele>
        <time>2021-08-07T11:43:57Z</time>
      </trkpt>
      <trkpt lat="44.28841" lon="6.607">
        <ele>2363.6</ele>
        <time>2021-08-07T11:43:58Z</time>
      </trkpt>
      <trkpt lat="44.28841" lon="6.607">
        <ele>2363.2</ele>
        <time>2021-08-07T11:44:00Z</time>
      </trkpt>
      <trkpt lat="44.28841" lon="6.60699">
        <ele>2362.8</ele>
        <time>2021-08-07T11:44:02Z</time>
      </trkpt>
      <trkpt lat="44.28841" lon="6.60699">
        <ele>2362.6</ele>
        <time>2021-08-07T11:44:03Z</time>
      </trkpt>
      <trkpt lat="44.28841" lon="6.60699">
        <ele>2362.4</ele>
        <time>2021-08-07T11:44:04Z</time>
      </trkpt>
      <trkpt lat="44.28841" lon="6.60699">
        <ele>2362.4</ele>
        <time>2021-08-07T11:44:05Z</time>
      </trkpt>
      <trkpt lat="44.28841" lon="6.60699">
        <ele>2362.2</ele>
        <time>2021-08-07T11:44:06Z</time>
      </trkpt>
      <trkpt lat="44.28841" lon="6.607">
        <ele>2362</ele>
        <time>2021-08-07T11:44:07Z</time>
      </trkpt>
      <trkpt lat="44.28841" lon="6.60701">
        <ele>2361.8</ele>
        <time>2021-08-07T11:44:14Z</time>
      </trkpt>
      <trkpt lat="44.28841" lon="6.60702">
        <ele>2361.8</ele>
        <time>2021-08-07T11:44:15Z</time>
      </trkpt>
      <trkpt lat="44.28841" lon="6.60702">
        <ele>2361.6</ele>
        <time>2021-08-07T11:44:16Z</time>
      </trkpt>
      <trkpt lat="44.28841" lon="6.60702">
        <ele>2361.4</ele>
        <time>2021-08-07T11:44:17Z</time>
      </trkpt>
      <trkpt lat="44.28841" lon="6.60703">
        <ele>2361.6</ele>
        <time>2021-08-07T11:44:19Z</time>
      </trkpt>
      <trkpt lat="44.28841" lon="6.60704">
        <ele>2361.6</ele>
        <time>2021-08-07T11:44:20Z</time>
      </trkpt>
      <trkpt lat="44.28842" lon="6.60702">
        <ele>2361.6</ele>
        <time>2021-08-07T11:44:27Z</time>
      </trkpt>
      <trkpt lat="44.28842" lon="6.60702">
        <ele>2361.6</ele>
        <time>2021-08-07T11:44:28Z</time>
      </trkpt>
      <trkpt lat="44.2884" lon="6.60702">
        <ele>2361.6</ele>
        <time>2021-08-07T11:44:37Z</time>
      </trkpt>
      <trkpt lat="44.28839" lon="6.60703">
        <ele>2361.6</ele>
        <time>2021-08-07T11:44:47Z</time>
      </trkpt>
      <trkpt lat="44.28844" lon="6.60703">
        <ele>2361.6</ele>
        <time>2021-08-07T11:44:57Z</time>
      </trkpt>
      <trkpt lat="44.28847" lon="6.60704">
        <ele>2361.6</ele>
        <time>2021-08-07T11:45:03Z</time>
      </trkpt>
      <trkpt lat="44.28848" lon="6.60704">
        <ele>2361.6</ele>
        <time>2021-08-07T11:45:05Z</time>
      </trkpt>
      <trkpt lat="44.28849" lon="6.60704">
        <ele>2361.6</ele>
        <time>2021-08-07T11:45:07Z</time>
      </trkpt>
      <trkpt lat="44.28849" lon="6.60704">
        <ele>2361.6</ele>
        <time>2021-08-07T11:45:08Z</time>
      </trkpt>
      <trkpt lat="44.28849" lon="6.60704">
        <ele>2361.6</ele>
        <time>2021-08-07T11:45:09Z</time>
      </trkpt>
      <trkpt lat="44.28849" lon="6.60704">
        <ele>2361.6</ele>
        <time>2021-08-07T11:45:12Z</time>
      </trkpt>
      <trkpt lat="44.28849" lon="6.60705">
        <ele>2361.6</ele>
        <time>2021-08-07T11:45:13Z</time>
      </trkpt>
      <trkpt lat="44.28849" lon="6.60705">
        <ele>2361.6</ele>
        <time>2021-08-07T11:45:14Z</time>
      </trkpt>
      <trkpt lat="44.2885" lon="6.60706">
        <ele>2361.6</ele>
        <time>2021-08-07T11:45:16Z</time>
      </trkpt>
      <trkpt lat="44.2885" lon="6.60706">
        <ele>2361.6</ele>
        <time>2021-08-07T11:45:17Z</time>
      </trkpt>
      <trkpt lat="44.28851" lon="6.60707">
        <ele>2361.6</ele>
        <time>2021-08-07T11:45:19Z</time>
      </trkpt>
      <trkpt lat="44.28852" lon="6.60708">
        <ele>2357.8</ele>
        <time>2021-08-07T11:45:20Z</time>
      </trkpt>
      <trkpt lat="44.28852" lon="6.60708">
        <ele>2360.4</ele>
        <time>2021-08-07T11:45:21Z</time>
      </trkpt>
      <trkpt lat="44.28851" lon="6.60708">
        <ele>2361.8</ele>
        <time>2021-08-07T11:45:23Z</time>
      </trkpt>
      <trkpt lat="44.28851" lon="6.60708">
        <ele>2359.8</ele>
        <time>2021-08-07T11:45:25Z</time>
      </trkpt>
      <trkpt lat="44.28851" lon="6.60708">
        <ele>2360.4</ele>
        <time>2021-08-07T11:45:27Z</time>
      </trkpt>
      <trkpt lat="44.28851" lon="6.60708">
        <ele>2359.2</ele>
        <time>2021-08-07T11:45:29Z</time>
      </trkpt>
      <trkpt lat="44.28851" lon="6.60708">
        <ele>2358.2</ele>
        <time>2021-08-07T11:45:30Z</time>
      </trkpt>
      <trkpt lat="44.28851" lon="6.60708">
        <ele>2357.4</ele>
        <time>2021-08-07T11:45:31Z</time>
      </trkpt>
      <trkpt lat="44.2885" lon="6.60709">
        <ele>2356.8</ele>
        <time>2021-08-07T11:45:32Z</time>
      </trkpt>
      <trkpt lat="44.2885" lon="6.60706">
        <ele>2358.6</ele>
        <time>2021-08-07T11:45:36Z</time>
      </trkpt>
      <trkpt lat="44.28849" lon="6.60705">
        <ele>2360.2</ele>
        <time>2021-08-07T11:45:37Z</time>
      </trkpt>
      <trkpt lat="44.28844" lon="6.60704">
        <ele>2360.2</ele>
        <time>2021-08-07T11:45:42Z</time>
      </trkpt>
      <trkpt lat="44.28843" lon="6.60704">
        <ele>2359.2</ele>
        <time>2021-08-07T11:45:44Z</time>
      </trkpt>
      <trkpt lat="44.28842" lon="6.60704">
        <ele>2359.4</ele>
        <time>2021-08-07T11:45:46Z</time>
      </trkpt>
      <trkpt lat="44.28842" lon="6.60703">
        <ele>2359.2</ele>
        <time>2021-08-07T11:45:47Z</time>
      </trkpt>
      <trkpt lat="44.28841" lon="6.60703">
        <ele>2358.6</ele>
        <time>2021-08-07T11:45:52Z</time>
      </trkpt>
      <trkpt lat="44.2884" lon="6.60703">
        <ele>2360</ele>
        <time>2021-08-07T11:45:57Z</time>
      </trkpt>
      <trkpt lat="44.28839" lon="6.60703">
        <ele>2360.6</ele>
        <time>2021-08-07T11:45:58Z</time>
      </trkpt>
      <trkpt lat="44.28837" lon="6.60701">
        <ele>2361</ele>
        <time>2021-08-07T11:46:04Z</time>
      </trkpt>
      <trkpt lat="44.28834" lon="6.60699">
        <ele>2360.8</ele>
        <time>2021-08-07T11:46:06Z</time>
      </trkpt>
      <trkpt lat="44.28832" lon="6.60697">
        <ele>2360.4</ele>
        <time>2021-08-07T11:46:07Z</time>
      </trkpt>
      <trkpt lat="44.28824" lon="6.60686">
        <ele>2359.4</ele>
        <time>2021-08-07T11:46:11Z</time>
      </trkpt>
      <trkpt lat="44.2882" lon="6.60678">
        <ele>2359.2</ele>
        <time>2021-08-07T11:46:13Z</time>
      </trkpt>
      <trkpt lat="44.28814" lon="6.60671">
        <ele>2358.4</ele>
        <time>2021-08-07T11:46:15Z</time>
      </trkpt>
      <trkpt lat="44.28811" lon="6.6067">
        <ele>2357.4</ele>
        <time>2021-08-07T11:46:16Z</time>
      </trkpt>
      <trkpt lat="44.28808" lon="6.6067">
        <ele>2356.2</ele>
        <time>2021-08-07T11:46:17Z</time>
      </trkpt>
      <trkpt lat="44.28806" lon="6.60669">
        <ele>2355.2</ele>
        <time>2021-08-07T11:46:18Z</time>
      </trkpt>
      <trkpt lat="44.28804" lon="6.60667">
        <ele>2354.8</ele>
        <time>2021-08-07T11:46:19Z</time>
      </trkpt>
      <trkpt lat="44.28794" lon="6.60654">
        <ele>2355.4</ele>
        <time>2021-08-07T11:46:27Z</time>
      </trkpt>
      <trkpt lat="44.2878" lon="6.60644">
        <ele>2355</ele>
        <time>2021-08-07T11:46:37Z</time>
      </trkpt>
      <trkpt lat="44.28766" lon="6.60633">
        <ele>2355.6</ele>
        <time>2021-08-07T11:46:47Z</time>
      </trkpt>
      <trkpt lat="44.28752" lon="6.60626">
        <ele>2354.8</ele>
        <time>2021-08-07T11:46:57Z</time>
      </trkpt>
      <trkpt lat="44.28742" lon="6.60618">
        <ele>2354.4</ele>
        <time>2021-08-07T11:47:02Z</time>
      </trkpt>
      <trkpt lat="44.28737" lon="6.60613">
        <ele>2353.8</ele>
        <time>2021-08-07T11:47:04Z</time>
      </trkpt>
      <trkpt lat="44.2873" lon="6.60606">
        <ele>2352</ele>
        <time>2021-08-07T11:47:07Z</time>
      </trkpt>
      <trkpt lat="44.28722" lon="6.60604">
        <ele>2350.6</ele>
        <time>2021-08-07T11:47:09Z</time>
      </trkpt>
      <trkpt lat="44.28716" lon="6.60602">
        <ele>2349.6</ele>
        <time>2021-08-07T11:47:13Z</time>
      </trkpt>
      <trkpt lat="44.2871" lon="6.60601">
        <ele>2350</ele>
        <time>2021-08-07T11:47:17Z</time>
      </trkpt>
      <trkpt lat="44.28708" lon="6.606">
        <ele>2350.6</ele>
        <time>2021-08-07T11:47:19Z</time>
      </trkpt>
      <trkpt lat="44.28701" lon="6.60595">
        <ele>2351.8</ele>
        <time>2021-08-07T11:47:24Z</time>
      </trkpt>
      <trkpt lat="44.28696" lon="6.60592">
        <ele>2352</ele>
        <time>2021-08-07T11:47:27Z</time>
      </trkpt>
      <trkpt lat="44.28688" lon="6.60587">
        <ele>2350.4</ele>
        <time>2021-08-07T11:47:31Z</time>
      </trkpt>
      <trkpt lat="44.28684" lon="6.60585">
        <ele>2349.4</ele>
        <time>2021-08-07T11:47:33Z</time>
      </trkpt>
      <trkpt lat="44.28673" lon="6.60581">
        <ele>2348.6</ele>
        <time>2021-08-07T11:47:37Z</time>
      </trkpt>
      <trkpt lat="44.28667" lon="6.60579">
        <ele>2348</ele>
        <time>2021-08-07T11:47:39Z</time>
      </trkpt>
      <trkpt lat="44.28645" lon="6.60569">
        <ele>2348.6</ele>
        <time>2021-08-07T11:47:47Z</time>
      </trkpt>
      <trkpt lat="44.28643" lon="6.60567">
        <ele>2348.8</ele>
        <time>2021-08-07T11:47:48Z</time>
      </trkpt>
      <trkpt lat="44.28632" lon="6.60563">
        <ele>2349</ele>
        <time>2021-08-07T11:47:52Z</time>
      </trkpt>
      <trkpt lat="44.28619" lon="6.60558">
        <ele>2348.6</ele>
        <time>2021-08-07T11:47:57Z</time>
      </trkpt>
      <trkpt lat="44.28609" lon="6.60554">
        <ele>2349.6</ele>
        <time>2021-08-07T11:48:01Z</time>
      </trkpt>
      <trkpt lat="44.28606" lon="6.60554">
        <ele>2349.8</ele>
        <time>2021-08-07T11:48:02Z</time>
      </trkpt>
      <trkpt lat="44.28594" lon="6.60552">
        <ele>2350</ele>
        <time>2021-08-07T11:48:06Z</time>
      </trkpt>
      <trkpt lat="44.28591" lon="6.60552">
        <ele>2350</ele>
        <time>2021-08-07T11:48:07Z</time>
      </trkpt>
      <trkpt lat="44.28579" lon="6.60551">
        <ele>2350.2</ele>
        <time>2021-08-07T11:48:11Z</time>
      </trkpt>
      <trkpt lat="44.28561" lon="6.6055">
        <ele>2350.6</ele>
        <time>2021-08-07T11:48:17Z</time>
      </trkpt>
      <trkpt lat="44.28553" lon="6.6055">
        <ele>2351.2</ele>
        <time>2021-08-07T11:48:20Z</time>
      </trkpt>
      <trkpt lat="44.28537" lon="6.60554">
        <ele>2351.4</ele>
        <time>2021-08-07T11:48:27Z</time>
      </trkpt>
      <trkpt lat="44.2852" lon="6.60555">
        <ele>2350.8</ele>
        <time>2021-08-07T11:48:34Z</time>
      </trkpt>
      <trkpt lat="44.28515" lon="6.60555">
        <ele>2350.6</ele>
        <time>2021-08-07T11:48:37Z</time>
      </trkpt>
      <trkpt lat="44.28512" lon="6.60557">
        <ele>2350.8</ele>
        <time>2021-08-07T11:48:39Z</time>
      </trkpt>
      <trkpt lat="44.28507" lon="6.60561">
        <ele>2351.2</ele>
        <time>2021-08-07T11:48:41Z</time>
      </trkpt>
      <trkpt lat="44.28496" lon="6.60563">
        <ele>2351.4</ele>
        <time>2021-08-07T11:48:47Z</time>
      </trkpt>
      <trkpt lat="44.28487" lon="6.60563">
        <ele>2351.8</ele>
        <time>2021-08-07T11:48:57Z</time>
      </trkpt>
      <trkpt lat="44.28486" lon="6.60563">
        <ele>2351.8</ele>
        <time>2021-08-07T11:48:58Z</time>
      </trkpt>
      <trkpt lat="44.28481" lon="6.60563">
        <ele>2352.2</ele>
        <time>2021-08-07T11:49:05Z</time>
      </trkpt>
      <trkpt lat="44.28479" lon="6.60563">
        <ele>2352.4</ele>
        <time>2021-08-07T11:49:07Z</time>
      </trkpt>
      <trkpt lat="44.28474" lon="6.60563">
        <ele>2353.2</ele>
        <time>2021-08-07T11:49:15Z</time>
      </trkpt>
      <trkpt lat="44.28473" lon="6.60563">
        <ele>2353.4</ele>
        <time>2021-08-07T11:49:17Z</time>
      </trkpt>
      <trkpt lat="44.28472" lon="6.60563">
        <ele>2353.4</ele>
        <time>2021-08-07T11:49:18Z</time>
      </trkpt>
      <trkpt lat="44.28471" lon="6.60563">
        <ele>2353.8</ele>
        <time>2021-08-07T11:49:22Z</time>
      </trkpt>
      <trkpt lat="44.28469" lon="6.60564">
        <ele>2354.2</ele>
        <time>2021-08-07T11:49:24Z</time>
      </trkpt>
      <trkpt lat="44.28467" lon="6.60565">
        <ele>2354.8</ele>
        <time>2021-08-07T11:49:27Z</time>
      </trkpt>
      <trkpt lat="44.28465" lon="6.60566">
        <ele>2355.4</ele>
        <time>2021-08-07T11:49:31Z</time>
      </trkpt>
      <trkpt lat="44.28465" lon="6.60566">
        <ele>2355.4</ele>
        <time>2021-08-07T11:49:35Z</time>
      </trkpt>
      <trkpt lat="44.28466" lon="6.60566">
        <ele>2355</ele>
        <time>2021-08-07T11:49:37Z</time>
      </trkpt>
      <trkpt lat="44.28462" lon="6.60568">
        <ele>2356.6</ele>
        <time>2021-08-07T11:49:46Z</time>
      </trkpt>
      <trkpt lat="44.28462" lon="6.60568">
        <ele>2356.8</ele>
        <time>2021-08-07T11:49:47Z</time>
      </trkpt>
      <trkpt lat="44.28461" lon="6.60569">
        <ele>2357.2</ele>
        <time>2021-08-07T11:49:49Z</time>
      </trkpt>
      <trkpt lat="44.2846" lon="6.6057">
        <ele>2357.6</ele>
        <time>2021-08-07T11:49:54Z</time>
      </trkpt>
      <trkpt lat="44.28458" lon="6.60571">
        <ele>2358.4</ele>
        <time>2021-08-07T11:49:57Z</time>
      </trkpt>
      <trkpt lat="44.28457" lon="6.60571">
        <ele>2358.6</ele>
        <time>2021-08-07T11:49:58Z</time>
      </trkpt>
      <trkpt lat="44.28453" lon="6.60572">
        <ele>2359.8</ele>
        <time>2021-08-07T11:50:05Z</time>
      </trkpt>
      <trkpt lat="44.28452" lon="6.60573">
        <ele>2360</ele>
        <time>2021-08-07T11:50:07Z</time>
      </trkpt>
      <trkpt lat="44.28447" lon="6.60573">
        <ele>2360.4</ele>
        <time>2021-08-07T11:50:12Z</time>
      </trkpt>
      <trkpt lat="44.28445" lon="6.60573">
        <ele>2361</ele>
        <time>2021-08-07T11:50:15Z</time>
      </trkpt>
      <trkpt lat="44.28445" lon="6.60573">
        <ele>2361.2</ele>
        <time>2021-08-07T11:50:17Z</time>
      </trkpt>
      <trkpt lat="44.28442" lon="6.60575">
        <ele>2362</ele>
        <time>2021-08-07T11:50:21Z</time>
      </trkpt>
      <trkpt lat="44.28437" lon="6.60576">
        <ele>2362</ele>
        <time>2021-08-07T11:50:24Z</time>
      </trkpt>
      <trkpt lat="44.28432" lon="6.60578">
        <ele>2361.8</ele>
        <time>2021-08-07T11:50:27Z</time>
      </trkpt>
      <trkpt lat="44.28413" lon="6.60586">
        <ele>2362.6</ele>
        <time>2021-08-07T11:50:37Z</time>
      </trkpt>
      <trkpt lat="44.28394" lon="6.60593">
        <ele>2362.6</ele>
        <time>2021-08-07T11:50:47Z</time>
      </trkpt>
      <trkpt lat="44.28388" lon="6.60596">
        <ele>2363</ele>
        <time>2021-08-07T11:50:50Z</time>
      </trkpt>
      <trkpt lat="44.28378" lon="6.60602">
        <ele>2363</ele>
        <time>2021-08-07T11:50:56Z</time>
      </trkpt>
      <trkpt lat="44.28376" lon="6.60603">
        <ele>2362.8</ele>
        <time>2021-08-07T11:50:57Z</time>
      </trkpt>
      <trkpt lat="44.28371" lon="6.60605">
        <ele>2362.4</ele>
        <time>2021-08-07T11:50:59Z</time>
      </trkpt>
      <trkpt lat="44.28363" lon="6.60609">
        <ele>2362</ele>
        <time>2021-08-07T11:51:03Z</time>
      </trkpt>
      <trkpt lat="44.28354" lon="6.60613">
        <ele>2360.8</ele>
        <time>2021-08-07T11:51:07Z</time>
      </trkpt>
      <trkpt lat="44.28343" lon="6.60618">
        <ele>2361.8</ele>
        <time>2021-08-07T11:51:12Z</time>
      </trkpt>
      <trkpt lat="44.28343" lon="6.60618">
        <ele>2361.8</ele>
        <time>2021-08-07T11:51:13Z</time>
      </trkpt>
      <trkpt lat="44.28337" lon="6.60621">
        <ele>2362</ele>
        <time>2021-08-07T11:51:15Z</time>
      </trkpt>
      <trkpt lat="44.28335" lon="6.60622">
        <ele>2361.8</ele>
        <time>2021-08-07T11:51:17Z</time>
      </trkpt>
      <trkpt lat="44.28308" lon="6.60633">
        <ele>2360.8</ele>
        <time>2021-08-07T11:51:27Z</time>
      </trkpt>
      <trkpt lat="44.28297" lon="6.60637">
        <ele>2359.6</ele>
        <time>2021-08-07T11:51:31Z</time>
      </trkpt>
      <trkpt lat="44.28289" lon="6.6064">
        <ele>2358.2</ele>
        <time>2021-08-07T11:51:33Z</time>
      </trkpt>
      <trkpt lat="44.28282" lon="6.60644">
        <ele>2357.8</ele>
        <time>2021-08-07T11:51:37Z</time>
      </trkpt>
      <trkpt lat="44.28281" lon="6.60644">
        <ele>2358.8</ele>
        <time>2021-08-07T11:51:47Z</time>
      </trkpt>
      <trkpt lat="44.28272" lon="6.60639">
        <ele>2357</ele>
        <time>2021-08-07T11:51:51Z</time>
      </trkpt>
      <trkpt lat="44.28268" lon="6.60636">
        <ele>2356.6</ele>
        <time>2021-08-07T11:51:52Z</time>
      </trkpt>
      <trkpt lat="44.28261" lon="6.60627">
        <ele>2355.6</ele>
        <time>2021-08-07T11:51:54Z</time>
      </trkpt>
      <trkpt lat="44.28251" lon="6.60617">
        <ele>2353.8</ele>
        <time>2021-08-07T11:51:56Z</time>
      </trkpt>
      <trkpt lat="44.28245" lon="6.60611">
        <ele>2352.4</ele>
        <time>2021-08-07T11:51:57Z</time>
      </trkpt>
      <trkpt lat="44.28232" lon="6.60597">
        <ele>2350.6</ele>
        <time>2021-08-07T11:51:58Z</time>
      </trkpt>
      <trkpt lat="44.28232" lon="6.60597">
        <ele>2348.4</ele>
        <time>2021-08-07T11:51:59Z</time>
      </trkpt>
      <trkpt lat="44.28226" lon="6.60591">
        <ele>2346.6</ele>
        <time>2021-08-07T11:52:00Z</time>
      </trkpt>
      <trkpt lat="44.28212" lon="6.60582">
        <ele>2345</ele>
        <time>2021-08-07T11:52:01Z</time>
      </trkpt>
      <trkpt lat="44.28212" lon="6.60582">
        <ele>2343.6</ele>
        <time>2021-08-07T11:52:02Z</time>
      </trkpt>
      <trkpt lat="44.28204" lon="6.60576">
        <ele>2342.2</ele>
        <time>2021-08-07T11:52:03Z</time>
      </trkpt>
      <trkpt lat="44.28181" lon="6.60553">
        <ele>2340.6</ele>
        <time>2021-08-07T11:52:05Z</time>
      </trkpt>
      <trkpt lat="44.28173" lon="6.60546">
        <ele>2339.4</ele>
        <time>2021-08-07T11:52:07Z</time>
      </trkpt>
      <trkpt lat="44.28154" lon="6.60537">
        <ele>2337.4</ele>
        <time>2021-08-07T11:52:09Z</time>
      </trkpt>
      <trkpt lat="44.28148" lon="6.60536">
        <ele>2336.2</ele>
        <time>2021-08-07T11:52:10Z</time>
      </trkpt>
      <trkpt lat="44.28148" lon="6.60536">
        <ele>2335.2</ele>
        <time>2021-08-07T11:52:11Z</time>
      </trkpt>
      <trkpt lat="44.28142" lon="6.60535">
        <ele>2334.2</ele>
        <time>2021-08-07T11:52:12Z</time>
      </trkpt>
      <trkpt lat="44.28136" lon="6.60533">
        <ele>2333.6</ele>
        <time>2021-08-07T11:52:13Z</time>
      </trkpt>
      <trkpt lat="44.2813" lon="6.6053">
        <ele>2332.8</ele>
        <time>2021-08-07T11:52:14Z</time>
      </trkpt>
      <trkpt lat="44.28118" lon="6.60527">
        <ele>2331.6</ele>
        <time>2021-08-07T11:52:17Z</time>
      </trkpt>
      <trkpt lat="44.28114" lon="6.60525">
        <ele>2331.4</ele>
        <time>2021-08-07T11:52:18Z</time>
      </trkpt>
      <trkpt lat="44.28098" lon="6.60513">
        <ele>2330.2</ele>
        <time>2021-08-07T11:52:20Z</time>
      </trkpt>
      <trkpt lat="44.28091" lon="6.60509">
        <ele>2328.2</ele>
        <time>2021-08-07T11:52:22Z</time>
      </trkpt>
      <trkpt lat="44.28073" lon="6.605">
        <ele>2325.6</ele>
        <time>2021-08-07T11:52:24Z</time>
      </trkpt>
      <trkpt lat="44.28068" lon="6.60498">
        <ele>2324.2</ele>
        <time>2021-08-07T11:52:25Z</time>
      </trkpt>
      <trkpt lat="44.28068" lon="6.60498">
        <ele>2323</ele>
        <time>2021-08-07T11:52:26Z</time>
      </trkpt>
      <trkpt lat="44.28063" lon="6.60496">
        <ele>2322.2</ele>
        <time>2021-08-07T11:52:27Z</time>
      </trkpt>
      <trkpt lat="44.28056" lon="6.60497">
        <ele>2321.8</ele>
        <time>2021-08-07T11:52:30Z</time>
      </trkpt>
      <trkpt lat="44.28056" lon="6.60497">
        <ele>2321.2</ele>
        <time>2021-08-07T11:52:37Z</time>
      </trkpt>
      <trkpt lat="44.28056" lon="6.60497">
        <ele>2322.4</ele>
        <time>2021-08-07T11:52:47Z</time>
      </trkpt>
      <trkpt lat="44.28056" lon="6.60497">
        <ele>2322</ele>
        <time>2021-08-07T11:52:50Z</time>
      </trkpt>
      <trkpt lat="44.28056" lon="6.60497">
        <ele>2321.4</ele>
        <time>2021-08-07T11:52:56Z</time>
      </trkpt>
      <trkpt lat="44.28056" lon="6.60497">
        <ele>2321.4</ele>
        <time>2021-08-07T11:52:57Z</time>
      </trkpt>
      <trkpt lat="44.28056" lon="6.60497">
        <ele>2322</ele>
        <time>2021-08-07T11:53:05Z</time>
      </trkpt>
      <trkpt lat="44.28056" lon="6.60497">
        <ele>2322</ele>
        <time>2021-08-07T11:53:07Z</time>
      </trkpt>
      <trkpt lat="44.28056" lon="6.60497">
        <ele>2321.4</ele>
        <time>2021-08-07T11:53:17Z</time>
      </trkpt>
      <trkpt lat="44.28056" lon="6.60497">
        <ele>2320.8</ele>
        <time>2021-08-07T11:53:20Z</time>
      </trkpt>
      <trkpt lat="44.28056" lon="6.60497">
        <ele>2320.6</ele>
        <time>2021-08-07T11:53:27Z</time>
      </trkpt>
      <trkpt lat="44.28056" lon="6.60497">
        <ele>2320.8</ele>
        <time>2021-08-07T11:53:29Z</time>
      </trkpt>
      <trkpt lat="44.28056" lon="6.60497">
        <ele>2321</ele>
        <time>2021-08-07T11:53:30Z</time>
      </trkpt>
      <trkpt lat="44.28056" lon="6.60497">
        <ele>2321.2</ele>
        <time>2021-08-07T11:53:31Z</time>
      </trkpt>
      <trkpt lat="44.28052" lon="6.60499">
        <ele>2321</ele>
        <time>2021-08-07T11:53:35Z</time>
      </trkpt>
      <trkpt lat="44.28046" lon="6.605">
        <ele>2320.2</ele>
        <time>2021-08-07T11:53:37Z</time>
      </trkpt>
      <trkpt lat="44.28043" lon="6.60501">
        <ele>2319.4</ele>
        <time>2021-08-07T11:53:38Z</time>
      </trkpt>
      <trkpt lat="44.28038" lon="6.60503">
        <ele>2318.2</ele>
        <time>2021-08-07T11:53:41Z</time>
      </trkpt>
      <trkpt lat="44.28034" lon="6.60506">
        <ele>2317.2</ele>
        <time>2021-08-07T11:53:43Z</time>
      </trkpt>
      <trkpt lat="44.2803" lon="6.60508">
        <ele>2315.8</ele>
        <time>2021-08-07T11:53:45Z</time>
      </trkpt>
      <trkpt lat="44.28024" lon="6.60509">
        <ele>2315</ele>
        <time>2021-08-07T11:53:47Z</time>
      </trkpt>
      <trkpt lat="44.28021" lon="6.60508">
        <ele>2314.8</ele>
        <time>2021-08-07T11:53:48Z</time>
      </trkpt>
      <trkpt lat="44.28017" lon="6.60505">
        <ele>2313.2</ele>
        <time>2021-08-07T11:53:50Z</time>
      </trkpt>
      <trkpt lat="44.28014" lon="6.60505">
        <ele>2312.2</ele>
        <time>2021-08-07T11:53:51Z</time>
      </trkpt>
      <trkpt lat="44.2801" lon="6.60505">
        <ele>2310.8</ele>
        <time>2021-08-07T11:53:53Z</time>
      </trkpt>
      <trkpt lat="44.28007" lon="6.60504">
        <ele>2310</ele>
        <time>2021-08-07T11:53:54Z</time>
      </trkpt>
      <trkpt lat="44.28005" lon="6.60503">
        <ele>2309</ele>
        <time>2021-08-07T11:53:55Z</time>
      </trkpt>
      <trkpt lat="44.27998" lon="6.60502">
        <ele>2307.4</ele>
        <time>2021-08-07T11:53:57Z</time>
      </trkpt>
      <trkpt lat="44.27993" lon="6.60504">
        <ele>2306.2</ele>
        <time>2021-08-07T11:53:59Z</time>
      </trkpt>
      <trkpt lat="44.27991" lon="6.60507">
        <ele>2305.2</ele>
        <time>2021-08-07T11:54:00Z</time>
      </trkpt>
      <trkpt lat="44.27988" lon="6.60509">
        <ele>2304.4</ele>
        <time>2021-08-07T11:54:01Z</time>
      </trkpt>
      <trkpt lat="44.27985" lon="6.6051">
        <ele>2303.2</ele>
        <time>2021-08-07T11:54:02Z</time>
      </trkpt>
      <trkpt lat="44.27981" lon="6.60512">
        <ele>2302.2</ele>
        <time>2021-08-07T11:54:03Z</time>
      </trkpt>
      <trkpt lat="44.27978" lon="6.60513">
        <ele>2301</ele>
        <time>2021-08-07T11:54:04Z</time>
      </trkpt>
      <trkpt lat="44.27975" lon="6.60515">
        <ele>2300</ele>
        <time>2021-08-07T11:54:05Z</time>
      </trkpt>
      <trkpt lat="44.27969" lon="6.60523">
        <ele>2298.2</ele>
        <time>2021-08-07T11:54:07Z</time>
      </trkpt>
      <trkpt lat="44.27963" lon="6.60531">
        <ele>2296.6</ele>
        <time>2021-08-07T11:54:09Z</time>
      </trkpt>
      <trkpt lat="44.27956" lon="6.60538">
        <ele>2295</ele>
        <time>2021-08-07T11:54:11Z</time>
      </trkpt>
      <trkpt lat="44.27951" lon="6.60546">
        <ele>2294</ele>
        <time>2021-08-07T11:54:13Z</time>
      </trkpt>
      <trkpt lat="44.27944" lon="6.60555">
        <ele>2293.2</ele>
        <time>2021-08-07T11:54:15Z</time>
      </trkpt>
      <trkpt lat="44.27941" lon="6.60558">
        <ele>2292.6</ele>
        <time>2021-08-07T11:54:16Z</time>
      </trkpt>
      <trkpt lat="44.27937" lon="6.60562">
        <ele>2291.8</ele>
        <time>2021-08-07T11:54:17Z</time>
      </trkpt>
      <trkpt lat="44.27934" lon="6.60565">
        <ele>2291.2</ele>
        <time>2021-08-07T11:54:18Z</time>
      </trkpt>
      <trkpt lat="44.27927" lon="6.60574">
        <ele>2290.2</ele>
        <time>2021-08-07T11:54:20Z</time>
      </trkpt>
      <trkpt lat="44.27923" lon="6.60583">
        <ele>2288.6</ele>
        <time>2021-08-07T11:54:22Z</time>
      </trkpt>
      <trkpt lat="44.27917" lon="6.6059">
        <ele>2287</ele>
        <time>2021-08-07T11:54:24Z</time>
      </trkpt>
      <trkpt lat="44.27909" lon="6.60599">
        <ele>2285.4</ele>
        <time>2021-08-07T11:54:27Z</time>
      </trkpt>
      <trkpt lat="44.27898" lon="6.60617">
        <ele>2284.2</ele>
        <time>2021-08-07T11:54:32Z</time>
      </trkpt>
      <trkpt lat="44.27891" lon="6.60627">
        <ele>2282.6</ele>
        <time>2021-08-07T11:54:34Z</time>
      </trkpt>
      <trkpt lat="44.27885" lon="6.60636">
        <ele>2280.8</ele>
        <time>2021-08-07T11:54:36Z</time>
      </trkpt>
      <trkpt lat="44.27883" lon="6.60641">
        <ele>2280</ele>
        <time>2021-08-07T11:54:37Z</time>
      </trkpt>
      <trkpt lat="44.27879" lon="6.60647">
        <ele>2279.4</ele>
        <time>2021-08-07T11:54:38Z</time>
      </trkpt>
      <trkpt lat="44.27869" lon="6.60662">
        <ele>2278.2</ele>
        <time>2021-08-07T11:54:41Z</time>
      </trkpt>
      <trkpt lat="44.27859" lon="6.60675">
        <ele>2277</ele>
        <time>2021-08-07T11:54:44Z</time>
      </trkpt>
      <trkpt lat="44.27855" lon="6.60682">
        <ele>2275.6</ele>
        <time>2021-08-07T11:54:46Z</time>
      </trkpt>
      <trkpt lat="44.27853" lon="6.60686">
        <ele>2275</ele>
        <time>2021-08-07T11:54:47Z</time>
      </trkpt>
      <trkpt lat="44.2785" lon="6.60689">
        <ele>2274.2</ele>
        <time>2021-08-07T11:54:48Z</time>
      </trkpt>
      <trkpt lat="44.27839" lon="6.60697">
        <ele>2273.2</ele>
        <time>2021-08-07T11:54:51Z</time>
      </trkpt>
      <trkpt lat="44.27832" lon="6.60702">
        <ele>2271.8</ele>
        <time>2021-08-07T11:54:54Z</time>
      </trkpt>
      <trkpt lat="44.27831" lon="6.60704">
        <ele>2271.2</ele>
        <time>2021-08-07T11:54:55Z</time>
      </trkpt>
      <trkpt lat="44.27831" lon="6.60705">
        <ele>2270.6</ele>
        <time>2021-08-07T11:54:56Z</time>
      </trkpt>
      <trkpt lat="44.27832" lon="6.60708">
        <ele>2270</ele>
        <time>2021-08-07T11:54:57Z</time>
      </trkpt>
      <trkpt lat="44.27837" lon="6.6071">
        <ele>2269.4</ele>
        <time>2021-08-07T11:54:59Z</time>
      </trkpt>
      <trkpt lat="44.2784" lon="6.60712">
        <ele>2269</ele>
        <time>2021-08-07T11:55:00Z</time>
      </trkpt>
      <trkpt lat="44.27844" lon="6.60713">
        <ele>2268.6</ele>
        <time>2021-08-07T11:55:01Z</time>
      </trkpt>
      <trkpt lat="44.27848" lon="6.60714">
        <ele>2268</ele>
        <time>2021-08-07T11:55:02Z</time>
      </trkpt>
      <trkpt lat="44.27852" lon="6.60714">
        <ele>2267.4</ele>
        <time>2021-08-07T11:55:03Z</time>
      </trkpt>
      <trkpt lat="44.27857" lon="6.60714">
        <ele>2266.6</ele>
        <time>2021-08-07T11:55:04Z</time>
      </trkpt>
      <trkpt lat="44.27861" lon="6.60714">
        <ele>2265.8</ele>
        <time>2021-08-07T11:55:05Z</time>
      </trkpt>
      <trkpt lat="44.27865" lon="6.60713">
        <ele>2265.2</ele>
        <time>2021-08-07T11:55:06Z</time>
      </trkpt>
      <trkpt lat="44.2787" lon="6.60712">
        <ele>2264.4</ele>
        <time>2021-08-07T11:55:07Z</time>
      </trkpt>
      <trkpt lat="44.27874" lon="6.6071">
        <ele>2263.6</ele>
        <time>2021-08-07T11:55:08Z</time>
      </trkpt>
      <trkpt lat="44.27885" lon="6.60702">
        <ele>2262</ele>
        <time>2021-08-07T11:55:11Z</time>
      </trkpt>
      <trkpt lat="44.27893" lon="6.60696">
        <ele>2260.6</ele>
        <time>2021-08-07T11:55:13Z</time>
      </trkpt>
      <trkpt lat="44.27901" lon="6.60692">
        <ele>2259.4</ele>
        <time>2021-08-07T11:55:15Z</time>
      </trkpt>
      <trkpt lat="44.27908" lon="6.60685">
        <ele>2258.2</ele>
        <time>2021-08-07T11:55:17Z</time>
      </trkpt>
      <trkpt lat="44.2791" lon="6.60683">
        <ele>2257.8</ele>
        <time>2021-08-07T11:55:18Z</time>
      </trkpt>
      <trkpt lat="44.27912" lon="6.60683">
        <ele>2256.8</ele>
        <time>2021-08-07T11:55:20Z</time>
      </trkpt>
      <trkpt lat="44.27912" lon="6.60684">
        <ele>2256.2</ele>
        <time>2021-08-07T11:55:21Z</time>
      </trkpt>
      <trkpt lat="44.27912" lon="6.60686">
        <ele>2255.6</ele>
        <time>2021-08-07T11:55:22Z</time>
      </trkpt>
      <trkpt lat="44.2791" lon="6.60692">
        <ele>2254.4</ele>
        <time>2021-08-07T11:55:24Z</time>
      </trkpt>
      <trkpt lat="44.27908" lon="6.60699">
        <ele>2253.2</ele>
        <time>2021-08-07T11:55:26Z</time>
      </trkpt>
      <trkpt lat="44.27908" lon="6.60702">
        <ele>2252.8</ele>
        <time>2021-08-07T11:55:27Z</time>
      </trkpt>
      <trkpt lat="44.27908" lon="6.60706">
        <ele>2251.8</ele>
        <time>2021-08-07T11:55:29Z</time>
      </trkpt>
      <trkpt lat="44.27908" lon="6.60708">
        <ele>2250.6</ele>
        <time>2021-08-07T11:55:31Z</time>
      </trkpt>
      <trkpt lat="44.27909" lon="6.60708">
        <ele>2250</ele>
        <time>2021-08-07T11:55:37Z</time>
      </trkpt>
      <trkpt lat="44.27909" lon="6.60707">
        <ele>2249.6</ele>
        <time>2021-08-07T11:55:40Z</time>
      </trkpt>
      <trkpt lat="44.2791" lon="6.60707">
        <ele>2249</ele>
        <time>2021-08-07T11:55:47Z</time>
      </trkpt>
      <trkpt lat="44.2791" lon="6.60707">
        <ele>2248.8</ele>
        <time>2021-08-07T11:55:53Z</time>
      </trkpt>
      <trkpt lat="44.27912" lon="6.60705">
        <ele>2248.8</ele>
        <time>2021-08-07T11:55:55Z</time>
      </trkpt>
      <trkpt lat="44.27914" lon="6.60703">
        <ele>2248.6</ele>
        <time>2021-08-07T11:55:56Z</time>
      </trkpt>
      <trkpt lat="44.27915" lon="6.60701">
        <ele>2248.4</ele>
        <time>2021-08-07T11:55:57Z</time>
      </trkpt>
      <trkpt lat="44.27919" lon="6.60699">
        <ele>2247.6</ele>
        <time>2021-08-07T11:55:59Z</time>
      </trkpt>
      <trkpt lat="44.27926" lon="6.60697">
        <ele>2246.4</ele>
        <time>2021-08-07T11:56:02Z</time>
      </trkpt>
      <trkpt lat="44.27928" lon="6.60694">
        <ele>2245.2</ele>
        <time>2021-08-07T11:56:04Z</time>
      </trkpt>
      <trkpt lat="44.2793" lon="6.60692">
        <ele>2244</ele>
        <time>2021-08-07T11:56:06Z</time>
      </trkpt>
      <trkpt lat="44.27931" lon="6.60692">
        <ele>2243.6</ele>
        <time>2021-08-07T11:56:07Z</time>
      </trkpt>
      <trkpt lat="44.27932" lon="6.60693">
        <ele>2243.4</ele>
        <time>2021-08-07T11:56:08Z</time>
      </trkpt>
      <trkpt lat="44.27933" lon="6.60699">
        <ele>2242.8</ele>
        <time>2021-08-07T11:56:11Z</time>
      </trkpt>
      <trkpt lat="44.27925" lon="6.60714">
        <ele>2241.6</ele>
        <time>2021-08-07T11:56:16Z</time>
      </trkpt>
      <trkpt lat="44.27924" lon="6.60718">
        <ele>2241</ele>
        <time>2021-08-07T11:56:17Z</time>
      </trkpt>
      <trkpt lat="44.27923" lon="6.60723">
        <ele>2240.6</ele>
        <time>2021-08-07T11:56:18Z</time>
      </trkpt>
      <trkpt lat="44.27917" lon="6.60741">
        <ele>2239.4</ele>
        <time>2021-08-07T11:56:22Z</time>
      </trkpt>
      <trkpt lat="44.2791" lon="6.6076">
        <ele>2238</ele>
        <time>2021-08-07T11:56:26Z</time>
      </trkpt>
      <trkpt lat="44.27907" lon="6.60763">
        <ele>2237.2</ele>
        <time>2021-08-07T11:56:27Z</time>
      </trkpt>
      <trkpt lat="44.27905" lon="6.60767">
        <ele>2236.6</ele>
        <time>2021-08-07T11:56:28Z</time>
      </trkpt>
      <trkpt lat="44.27901" lon="6.60775">
        <ele>2235.4</ele>
        <time>2021-08-07T11:56:30Z</time>
      </trkpt>
      <trkpt lat="44.27897" lon="6.60783">
        <ele>2234.4</ele>
        <time>2021-08-07T11:56:32Z</time>
      </trkpt>
      <trkpt lat="44.27889" lon="6.60798">
        <ele>2233</ele>
        <time>2021-08-07T11:56:35Z</time>
      </trkpt>
      <trkpt lat="44.27886" lon="6.60803">
        <ele>2232.4</ele>
        <time>2021-08-07T11:56:36Z</time>
      </trkpt>
      <trkpt lat="44.27882" lon="6.60809">
        <ele>2231.6</ele>
        <time>2021-08-07T11:56:37Z</time>
      </trkpt>
      <trkpt lat="44.27874" lon="6.6082">
        <ele>2230.4</ele>
        <time>2021-08-07T11:56:39Z</time>
      </trkpt>
      <trkpt lat="44.27866" lon="6.60829">
        <ele>2228.6</ele>
        <time>2021-08-07T11:56:41Z</time>
      </trkpt>
      <trkpt lat="44.27862" lon="6.60834">
        <ele>2227.6</ele>
        <time>2021-08-07T11:56:42Z</time>
      </trkpt>
      <trkpt lat="44.27855" lon="6.60843">
        <ele>2226.4</ele>
        <time>2021-08-07T11:56:44Z</time>
      </trkpt>
      <trkpt lat="44.27848" lon="6.60852">
        <ele>2225.4</ele>
        <time>2021-08-07T11:56:47Z</time>
      </trkpt>
      <trkpt lat="44.27847" lon="6.60855">
        <ele>2225.2</ele>
        <time>2021-08-07T11:56:48Z</time>
      </trkpt>
      <trkpt lat="44.27847" lon="6.6087">
        <ele>2223.6</ele>
        <time>2021-08-07T11:56:51Z</time>
      </trkpt>
      <trkpt lat="44.27846" lon="6.60875">
        <ele>2222.4</ele>
        <time>2021-08-07T11:56:52Z</time>
      </trkpt>
      <trkpt lat="44.27844" lon="6.60881">
        <ele>2221</ele>
        <time>2021-08-07T11:56:53Z</time>
      </trkpt>
      <trkpt lat="44.27842" lon="6.60888">
        <ele>2219.8</ele>
        <time>2021-08-07T11:56:54Z</time>
      </trkpt>
      <trkpt lat="44.27841" lon="6.60894">
        <ele>2218.6</ele>
        <time>2021-08-07T11:56:55Z</time>
      </trkpt>
      <trkpt lat="44.2784" lon="6.60907">
        <ele>2216.8</ele>
        <time>2021-08-07T11:56:57Z</time>
      </trkpt>
      <trkpt lat="44.27839" lon="6.60913">
        <ele>2216</ele>
        <time>2021-08-07T11:56:58Z</time>
      </trkpt>
      <trkpt lat="44.27837" lon="6.6092">
        <ele>2215</ele>
        <time>2021-08-07T11:56:59Z</time>
      </trkpt>
      <trkpt lat="44.27836" lon="6.60926">
        <ele>2214</ele>
        <time>2021-08-07T11:57:00Z</time>
      </trkpt>
      <trkpt lat="44.27834" lon="6.60931">
        <ele>2212.6</ele>
        <time>2021-08-07T11:57:01Z</time>
      </trkpt>
      <trkpt lat="44.27833" lon="6.60937">
        <ele>2211.4</ele>
        <time>2021-08-07T11:57:02Z</time>
      </trkpt>
      <trkpt lat="44.27834" lon="6.60941">
        <ele>2210.4</ele>
        <time>2021-08-07T11:57:03Z</time>
      </trkpt>
      <trkpt lat="44.27835" lon="6.60949">
        <ele>2208.6</ele>
        <time>2021-08-07T11:57:05Z</time>
      </trkpt>
      <trkpt lat="44.27835" lon="6.60952">
        <ele>2207.4</ele>
        <time>2021-08-07T11:57:06Z</time>
      </trkpt>
      <trkpt lat="44.27834" lon="6.60955">
        <ele>2206.2</ele>
        <time>2021-08-07T11:57:07Z</time>
      </trkpt>
      <trkpt lat="44.27831" lon="6.60958">
        <ele>2205.2</ele>
        <time>2021-08-07T11:57:08Z</time>
      </trkpt>
      <trkpt lat="44.27825" lon="6.60957">
        <ele>2203.2</ele>
        <time>2021-08-07T11:57:10Z</time>
      </trkpt>
      <trkpt lat="44.27818" lon="6.60954">
        <ele>2201.4</ele>
        <time>2021-08-07T11:57:12Z</time>
      </trkpt>
      <trkpt lat="44.27815" lon="6.60955">
        <ele>2200.2</ele>
        <time>2021-08-07T11:57:13Z</time>
      </trkpt>
      <trkpt lat="44.27813" lon="6.60957">
        <ele>2199</ele>
        <time>2021-08-07T11:57:14Z</time>
      </trkpt>
      <trkpt lat="44.27813" lon="6.6096">
        <ele>2197.6</ele>
        <time>2021-08-07T11:57:16Z</time>
      </trkpt>
      <trkpt lat="44.27814" lon="6.60962">
        <ele>2196.8</ele>
        <time>2021-08-07T11:57:17Z</time>
      </trkpt>
      <trkpt lat="44.27816" lon="6.60965">
        <ele>2196.2</ele>
        <time>2021-08-07T11:57:18Z</time>
      </trkpt>
      <trkpt lat="44.2782" lon="6.60973">
        <ele>2194.8</ele>
        <time>2021-08-07T11:57:20Z</time>
      </trkpt>
      <trkpt lat="44.27823" lon="6.60978">
        <ele>2194.2</ele>
        <time>2021-08-07T11:57:21Z</time>
      </trkpt>
      <trkpt lat="44.27826" lon="6.60983">
        <ele>2193.4</ele>
        <time>2021-08-07T11:57:22Z</time>
      </trkpt>
      <trkpt lat="44.27832" lon="6.60993">
        <ele>2191.8</ele>
        <time>2021-08-07T11:57:24Z</time>
      </trkpt>
      <trkpt lat="44.27836" lon="6.60999">
        <ele>2190.6</ele>
        <time>2021-08-07T11:57:26Z</time>
      </trkpt>
      <trkpt lat="44.27838" lon="6.61003">
        <ele>2190</ele>
        <time>2021-08-07T11:57:27Z</time>
      </trkpt>
      <trkpt lat="44.27841" lon="6.61006">
        <ele>2189.4</ele>
        <time>2021-08-07T11:57:28Z</time>
      </trkpt>
      <trkpt lat="44.27844" lon="6.61009">
        <ele>2188.4</ele>
        <time>2021-08-07T11:57:29Z</time>
      </trkpt>
      <trkpt lat="44.27849" lon="6.61011">
        <ele>2187.8</ele>
        <time>2021-08-07T11:57:30Z</time>
      </trkpt>
      <trkpt lat="44.27855" lon="6.61013">
        <ele>2187</ele>
        <time>2021-08-07T11:57:31Z</time>
      </trkpt>
      <trkpt lat="44.2786" lon="6.61015">
        <ele>2186.6</ele>
        <time>2021-08-07T11:57:32Z</time>
      </trkpt>
      <trkpt lat="44.27868" lon="6.61021">
        <ele>2184.4</ele>
        <time>2021-08-07T11:57:34Z</time>
      </trkpt>
      <trkpt lat="44.27872" lon="6.61021">
        <ele>2183.2</ele>
        <time>2021-08-07T11:57:35Z</time>
      </trkpt>
      <trkpt lat="44.27876" lon="6.6102">
        <ele>2181.8</ele>
        <time>2021-08-07T11:57:36Z</time>
      </trkpt>
      <trkpt lat="44.2788" lon="6.61018">
        <ele>2181</ele>
        <time>2021-08-07T11:57:37Z</time>
      </trkpt>
      <trkpt lat="44.27884" lon="6.61014">
        <ele>2180.2</ele>
        <time>2021-08-07T11:57:38Z</time>
      </trkpt>
      <trkpt lat="44.27891" lon="6.61008">
        <ele>2178.8</ele>
        <time>2021-08-07T11:57:40Z</time>
      </trkpt>
      <trkpt lat="44.27896" lon="6.61004">
        <ele>2177.8</ele>
        <time>2021-08-07T11:57:41Z</time>
      </trkpt>
      <trkpt lat="44.279" lon="6.60999">
        <ele>2177</ele>
        <time>2021-08-07T11:57:42Z</time>
      </trkpt>
      <trkpt lat="44.27903" lon="6.60993">
        <ele>2176</ele>
        <time>2021-08-07T11:57:43Z</time>
      </trkpt>
      <trkpt lat="44.27906" lon="6.60986">
        <ele>2174.8</ele>
        <time>2021-08-07T11:57:44Z</time>
      </trkpt>
      <trkpt lat="44.27912" lon="6.60979">
        <ele>2173.8</ele>
        <time>2021-08-07T11:57:45Z</time>
      </trkpt>
      <trkpt lat="44.27919" lon="6.60975">
        <ele>2172.2</ele>
        <time>2021-08-07T11:57:47Z</time>
      </trkpt>
      <trkpt lat="44.27925" lon="6.60971">
        <ele>2171</ele>
        <time>2021-08-07T11:57:49Z</time>
      </trkpt>
      <trkpt lat="44.27928" lon="6.6097">
        <ele>2170.2</ele>
        <time>2021-08-07T11:57:50Z</time>
      </trkpt>
      <trkpt lat="44.27931" lon="6.60968">
        <ele>2169.4</ele>
        <time>2021-08-07T11:57:51Z</time>
      </trkpt>
      <trkpt lat="44.27933" lon="6.60965">
        <ele>2168.6</ele>
        <time>2021-08-07T11:57:52Z</time>
      </trkpt>
      <trkpt lat="44.27935" lon="6.60961">
        <ele>2167.8</ele>
        <time>2021-08-07T11:57:53Z</time>
      </trkpt>
      <trkpt lat="44.2794" lon="6.60956">
        <ele>2167.2</ele>
        <time>2021-08-07T11:57:54Z</time>
      </trkpt>
      <trkpt lat="44.27944" lon="6.60957">
        <ele>2166.6</ele>
        <time>2021-08-07T11:57:55Z</time>
      </trkpt>
      <trkpt lat="44.27951" lon="6.60965">
        <ele>2165.8</ele>
        <time>2021-08-07T11:57:57Z</time>
      </trkpt>
      <trkpt lat="44.27955" lon="6.60969">
        <ele>2165.2</ele>
        <time>2021-08-07T11:57:58Z</time>
      </trkpt>
      <trkpt lat="44.27962" lon="6.60975">
        <ele>2163.4</ele>
        <time>2021-08-07T11:58:00Z</time>
      </trkpt>
      <trkpt lat="44.27964" lon="6.60977">
        <ele>2162.6</ele>
        <time>2021-08-07T11:58:01Z</time>
      </trkpt>
      <trkpt lat="44.27964" lon="6.60979">
        <ele>2162</ele>
        <time>2021-08-07T11:58:02Z</time>
      </trkpt>
      <trkpt lat="44.27964" lon="6.60979">
        <ele>2161.6</ele>
        <time>2021-08-07T11:58:03Z</time>
      </trkpt>
      <trkpt lat="44.27961" lon="6.60976">
        <ele>2161</ele>
        <time>2021-08-07T11:58:05Z</time>
      </trkpt>
      <trkpt lat="44.27959" lon="6.60976">
        <ele>2160.8</ele>
        <time>2021-08-07T11:58:06Z</time>
      </trkpt>
      <trkpt lat="44.27957" lon="6.60978">
        <ele>2160.4</ele>
        <time>2021-08-07T11:58:07Z</time>
      </trkpt>
      <trkpt lat="44.27954" lon="6.60983">
        <ele>2159.6</ele>
        <time>2021-08-07T11:58:09Z</time>
      </trkpt>
      <trkpt lat="44.27953" lon="6.60986">
        <ele>2159.2</ele>
        <time>2021-08-07T11:58:10Z</time>
      </trkpt>
      <trkpt lat="44.27954" lon="6.60992">
        <ele>2158.8</ele>
        <time>2021-08-07T11:58:12Z</time>
      </trkpt>
      <trkpt lat="44.27954" lon="6.60995">
        <ele>2158.6</ele>
        <time>2021-08-07T11:58:13Z</time>
      </trkpt>
      <trkpt lat="44.27948" lon="6.61008">
        <ele>2157.8</ele>
        <time>2021-08-07T11:58:17Z</time>
      </trkpt>
      <trkpt lat="44.27944" lon="6.61015">
        <ele>2157.2</ele>
        <time>2021-08-07T11:58:19Z</time>
      </trkpt>
      <trkpt lat="44.2794" lon="6.61023">
        <ele>2155.8</ele>
        <time>2021-08-07T11:58:21Z</time>
      </trkpt>
      <trkpt lat="44.27934" lon="6.61031">
        <ele>2154</ele>
        <time>2021-08-07T11:58:23Z</time>
      </trkpt>
      <trkpt lat="44.27931" lon="6.61036">
        <ele>2153.2</ele>
        <time>2021-08-07T11:58:24Z</time>
      </trkpt>
      <trkpt lat="44.27928" lon="6.61042">
        <ele>2152.8</ele>
        <time>2021-08-07T11:58:25Z</time>
      </trkpt>
      <trkpt lat="44.27924" lon="6.61054">
        <ele>2151.8</ele>
        <time>2021-08-07T11:58:27Z</time>
      </trkpt>
      <trkpt lat="44.27922" lon="6.61059">
        <ele>2151</ele>
        <time>2021-08-07T11:58:28Z</time>
      </trkpt>
      <trkpt lat="44.27916" lon="6.61071">
        <ele>2149</ele>
        <time>2021-08-07T11:58:30Z</time>
      </trkpt>
      <trkpt lat="44.27911" lon="6.61085">
        <ele>2147.2</ele>
        <time>2021-08-07T11:58:32Z</time>
      </trkpt>
      <trkpt lat="44.27908" lon="6.61094">
        <ele>2146.2</ele>
        <time>2021-08-07T11:58:33Z</time>
      </trkpt>
      <trkpt lat="44.27905" lon="6.61103">
        <ele>2145.4</ele>
        <time>2021-08-07T11:58:34Z</time>
      </trkpt>
      <trkpt lat="44.27903" lon="6.61113">
        <ele>2144.6</ele>
        <time>2021-08-07T11:58:35Z</time>
      </trkpt>
      <trkpt lat="44.27902" lon="6.61121">
        <ele>2144</ele>
        <time>2021-08-07T11:58:36Z</time>
      </trkpt>
      <trkpt lat="44.27902" lon="6.6113">
        <ele>2143.4</ele>
        <time>2021-08-07T11:58:37Z</time>
      </trkpt>
      <trkpt lat="44.27902" lon="6.61137">
        <ele>2143.4</ele>
        <time>2021-08-07T11:58:38Z</time>
      </trkpt>
      <trkpt lat="44.27895" lon="6.61144">
        <ele>2143</ele>
        <time>2021-08-07T11:58:41Z</time>
      </trkpt>
      <trkpt lat="44.27887" lon="6.61142">
        <ele>2143</ele>
        <time>2021-08-07T11:58:43Z</time>
      </trkpt>
      <trkpt lat="44.27879" lon="6.61139">
        <ele>2143</ele>
        <time>2021-08-07T11:58:45Z</time>
      </trkpt>
      <trkpt lat="44.27874" lon="6.61136">
        <ele>2142.8</ele>
        <time>2021-08-07T11:58:47Z</time>
      </trkpt>
      <trkpt lat="44.27874" lon="6.61133">
        <ele>2143</ele>
        <time>2021-08-07T11:58:57Z</time>
      </trkpt>
      <trkpt lat="44.27874" lon="6.61133">
        <ele>2142.6</ele>
        <time>2021-08-07T11:59:07Z</time>
      </trkpt>
      <trkpt lat="44.27874" lon="6.61133">
        <ele>2142.4</ele>
        <time>2021-08-07T11:59:17Z</time>
      </trkpt>
      <trkpt lat="44.27874" lon="6.61133">
        <ele>2142.2</ele>
        <time>2021-08-07T11:59:27Z</time>
      </trkpt>
      <trkpt lat="44.27874" lon="6.61133">
        <ele>2142.2</ele>
        <time>2021-08-07T11:59:32Z</time>
      </trkpt>
      <trkpt lat="44.27874" lon="6.61133">
        <ele>2142.4</ele>
        <time>2021-08-07T11:59:37Z</time>
      </trkpt>
      <trkpt lat="44.27869" lon="6.6113">
        <ele>2142</ele>
        <time>2021-08-07T11:59:44Z</time>
      </trkpt>
      <trkpt lat="44.27865" lon="6.61127">
        <ele>2142</ele>
        <time>2021-08-07T11:59:46Z</time>
      </trkpt>
      <trkpt lat="44.27863" lon="6.61125">
        <ele>2142</ele>
        <time>2021-08-07T11:59:47Z</time>
      </trkpt>
      <trkpt lat="44.27861" lon="6.61124">
        <ele>2142</ele>
        <time>2021-08-07T11:59:48Z</time>
      </trkpt>
      <trkpt lat="44.27859" lon="6.61125">
        <ele>2142</ele>
        <time>2021-08-07T11:59:49Z</time>
      </trkpt>
      <trkpt lat="44.27858" lon="6.61127">
        <ele>2142</ele>
        <time>2021-08-07T11:59:50Z</time>
      </trkpt>
      <trkpt lat="44.27849" lon="6.61143">
        <ele>2142.6</ele>
        <time>2021-08-07T11:59:57Z</time>
      </trkpt>
      <trkpt lat="44.27848" lon="6.61145">
        <ele>2142.8</ele>
        <time>2021-08-07T11:59:58Z</time>
      </trkpt>
      <trkpt lat="44.2784" lon="6.61152">
        <ele>2142.8</ele>
        <time>2021-08-07T12:00:02Z</time>
      </trkpt>
      <trkpt lat="44.27836" lon="6.61154">
        <ele>2143</ele>
        <time>2021-08-07T12:00:04Z</time>
      </trkpt>
      <trkpt lat="44.27828" lon="6.61157">
        <ele>2143.2</ele>
        <time>2021-08-07T12:00:07Z</time>
      </trkpt>
      <trkpt lat="44.27823" lon="6.61157">
        <ele>2143.4</ele>
        <time>2021-08-07T12:00:09Z</time>
      </trkpt>
      <trkpt lat="44.2782" lon="6.61157">
        <ele>2143.4</ele>
        <time>2021-08-07T12:00:10Z</time>
      </trkpt>
      <trkpt lat="44.27818" lon="6.61156">
        <ele>2143.4</ele>
        <time>2021-08-07T12:00:11Z</time>
      </trkpt>
      <trkpt lat="44.27812" lon="6.61156">
        <ele>2143.6</ele>
        <time>2021-08-07T12:00:13Z</time>
      </trkpt>
      <trkpt lat="44.27809" lon="6.61156">
        <ele>2143.6</ele>
        <time>2021-08-07T12:00:14Z</time>
      </trkpt>
      <trkpt lat="44.27807" lon="6.61156">
        <ele>2143.6</ele>
        <time>2021-08-07T12:00:15Z</time>
      </trkpt>
      <trkpt lat="44.27803" lon="6.61156">
        <ele>2143.6</ele>
        <time>2021-08-07T12:00:16Z</time>
      </trkpt>
      <trkpt lat="44.278" lon="6.61156">
        <ele>2143.6</ele>
        <time>2021-08-07T12:00:17Z</time>
      </trkpt>
      <trkpt lat="44.27797" lon="6.61156">
        <ele>2143.8</ele>
        <time>2021-08-07T12:00:18Z</time>
      </trkpt>
      <trkpt lat="44.27795" lon="6.61156">
        <ele>2144</ele>
        <time>2021-08-07T12:00:19Z</time>
      </trkpt>
      <trkpt lat="44.27787" lon="6.61158">
        <ele>2144.6</ele>
        <time>2021-08-07T12:00:22Z</time>
      </trkpt>
      <trkpt lat="44.27779" lon="6.61162">
        <ele>2144.8</ele>
        <time>2021-08-07T12:00:25Z</time>
      </trkpt>
      <trkpt lat="44.27775" lon="6.61164">
        <ele>2144.6</ele>
        <time>2021-08-07T12:00:27Z</time>
      </trkpt>
      <trkpt lat="44.27747" lon="6.61164">
        <ele>2145</ele>
        <time>2021-08-07T12:00:37Z</time>
      </trkpt>
      <trkpt lat="44.27741" lon="6.61158">
        <ele>2145.2</ele>
        <time>2021-08-07T12:00:40Z</time>
      </trkpt>
      <trkpt lat="44.27736" lon="6.61154">
        <ele>2145.6</ele>
        <time>2021-08-07T12:00:43Z</time>
      </trkpt>
      <trkpt lat="44.27732" lon="6.61154">
        <ele>2145.6</ele>
        <time>2021-08-07T12:00:46Z</time>
      </trkpt>
      <trkpt lat="44.27732" lon="6.61155">
        <ele>2145.8</ele>
        <time>2021-08-07T12:00:47Z</time>
      </trkpt>
      <trkpt lat="44.27731" lon="6.61156">
        <ele>2145.8</ele>
        <time>2021-08-07T12:00:48Z</time>
      </trkpt>
      <trkpt lat="44.2773" lon="6.61158">
        <ele>2145.6</ele>
        <time>2021-08-07T12:00:49Z</time>
      </trkpt>
      <trkpt lat="44.27729" lon="6.6116">
        <ele>2145.6</ele>
        <time>2021-08-07T12:00:50Z</time>
      </trkpt>
      <trkpt lat="44.27724" lon="6.61168">
        <ele>2145.6</ele>
        <time>2021-08-07T12:00:54Z</time>
      </trkpt>
      <trkpt lat="44.27722" lon="6.61169">
        <ele>2145.6</ele>
        <time>2021-08-07T12:00:55Z</time>
      </trkpt>
      <trkpt lat="44.27718" lon="6.6117">
        <ele>2145.6</ele>
        <time>2021-08-07T12:00:57Z</time>
      </trkpt>
      <trkpt lat="44.27716" lon="6.61171">
        <ele>2145.6</ele>
        <time>2021-08-07T12:00:58Z</time>
      </trkpt>
      <trkpt lat="44.27701" lon="6.61181">
        <ele>2145.8</ele>
        <time>2021-08-07T12:01:07Z</time>
      </trkpt>
      <trkpt lat="44.2769" lon="6.61193">
        <ele>2146</ele>
        <time>2021-08-07T12:01:15Z</time>
      </trkpt>
      <trkpt lat="44.27689" lon="6.61192">
        <ele>2146.2</ele>
        <time>2021-08-07T12:01:16Z</time>
      </trkpt>
      <trkpt lat="44.27688" lon="6.61192">
        <ele>2146.2</ele>
        <time>2021-08-07T12:01:17Z</time>
      </trkpt>
      <trkpt lat="44.27687" lon="6.61184">
        <ele>2146.6</ele>
        <time>2021-08-07T12:01:22Z</time>
      </trkpt>
      <trkpt lat="44.27686" lon="6.61174">
        <ele>2146.6</ele>
        <time>2021-08-07T12:01:27Z</time>
      </trkpt>
      <trkpt lat="44.27689" lon="6.6115">
        <ele>2146.4</ele>
        <time>2021-08-07T12:01:36Z</time>
      </trkpt>
      <trkpt lat="44.2769" lon="6.61147">
        <ele>2146.4</ele>
        <time>2021-08-07T12:01:37Z</time>
      </trkpt>
      <trkpt lat="44.27692" lon="6.61125">
        <ele>2146</ele>
        <time>2021-08-07T12:01:45Z</time>
      </trkpt>
      <trkpt lat="44.27692" lon="6.6112">
        <ele>2146</ele>
        <time>2021-08-07T12:01:47Z</time>
      </trkpt>
      <trkpt lat="44.27691" lon="6.61101">
        <ele>2146.6</ele>
        <time>2021-08-07T12:01:53Z</time>
      </trkpt>
      <trkpt lat="44.27691" lon="6.6109">
        <ele>2146.8</ele>
        <time>2021-08-07T12:01:57Z</time>
      </trkpt>
      <trkpt lat="44.27684" lon="6.61075">
        <ele>2146.8</ele>
        <time>2021-08-07T12:02:06Z</time>
      </trkpt>
      <trkpt lat="44.27684" lon="6.61073">
        <ele>2146.8</ele>
        <time>2021-08-07T12:02:07Z</time>
      </trkpt>
      <trkpt lat="44.27681" lon="6.61064">
        <ele>2146.8</ele>
        <time>2021-08-07T12:02:13Z</time>
      </trkpt>
      <trkpt lat="44.27678" lon="6.6106">
        <ele>2146.4</ele>
        <time>2021-08-07T12:02:16Z</time>
      </trkpt>
      <trkpt lat="44.27677" lon="6.61061">
        <ele>2146.2</ele>
        <time>2021-08-07T12:02:17Z</time>
      </trkpt>
      <trkpt lat="44.27676" lon="6.61063">
        <ele>2146</ele>
        <time>2021-08-07T12:02:19Z</time>
      </trkpt>
      <trkpt lat="44.2767" lon="6.61076">
        <ele>2146.6</ele>
        <time>2021-08-07T12:02:27Z</time>
      </trkpt>
      <trkpt lat="44.27666" lon="6.61094">
        <ele>2147</ele>
        <time>2021-08-07T12:02:37Z</time>
      </trkpt>
      <trkpt lat="44.27663" lon="6.61098">
        <ele>2147</ele>
        <time>2021-08-07T12:02:40Z</time>
      </trkpt>
      <trkpt lat="44.27654" lon="6.61101">
        <ele>2146.6</ele>
        <time>2021-08-07T12:02:46Z</time>
      </trkpt>
      <trkpt lat="44.27652" lon="6.611">
        <ele>2146.4</ele>
        <time>2021-08-07T12:02:47Z</time>
      </trkpt>
      <trkpt lat="44.27643" lon="6.61094">
        <ele>2146.4</ele>
        <time>2021-08-07T12:02:53Z</time>
      </trkpt>
      <trkpt lat="44.27637" lon="6.61093">
        <ele>2146.4</ele>
        <time>2021-08-07T12:02:57Z</time>
      </trkpt>
      <trkpt lat="44.27633" lon="6.61093">
        <ele>2146.4</ele>
        <time>2021-08-07T12:02:59Z</time>
      </trkpt>
      <trkpt lat="44.27627" lon="6.61085">
        <ele>2146.4</ele>
        <time>2021-08-07T12:03:04Z</time>
      </trkpt>
      <trkpt lat="44.27622" lon="6.61078">
        <ele>2146.6</ele>
        <time>2021-08-07T12:03:07Z</time>
      </trkpt>
      <trkpt lat="44.27618" lon="6.61072">
        <ele>2146.2</ele>
        <time>2021-08-07T12:03:09Z</time>
      </trkpt>
      <trkpt lat="44.27608" lon="6.61084">
        <ele>2146</ele>
        <time>2021-08-07T12:03:17Z</time>
      </trkpt>
      <trkpt lat="44.276" lon="6.61102">
        <ele>2146.2</ele>
        <time>2021-08-07T12:03:25Z</time>
      </trkpt>
      <trkpt lat="44.276" lon="6.61108">
        <ele>2146</ele>
        <time>2021-08-07T12:03:27Z</time>
      </trkpt>
      <trkpt lat="44.2759" lon="6.61128">
        <ele>2145.6</ele>
        <time>2021-08-07T12:03:37Z</time>
      </trkpt>
      <trkpt lat="44.27585" lon="6.61131">
        <ele>2145.6</ele>
        <time>2021-08-07T12:03:41Z</time>
      </trkpt>
      <trkpt lat="44.2758" lon="6.61132">
        <ele>2145.8</ele>
        <time>2021-08-07T12:03:44Z</time>
      </trkpt>
      <trkpt lat="44.27574" lon="6.61127">
        <ele>2145.8</ele>
        <time>2021-08-07T12:03:47Z</time>
      </trkpt>
      <trkpt lat="44.27554" lon="6.61113">
        <ele>2146.8</ele>
        <time>2021-08-07T12:03:57Z</time>
      </trkpt>
      <trkpt lat="44.27539" lon="6.61126">
        <ele>2146.6</ele>
        <time>2021-08-07T12:04:05Z</time>
      </trkpt>
      <trkpt lat="44.27536" lon="6.61129">
        <ele>2146.4</ele>
        <time>2021-08-07T12:04:07Z</time>
      </trkpt>
      <trkpt lat="44.27524" lon="6.6114">
        <ele>2147</ele>
        <time>2021-08-07T12:04:15Z</time>
      </trkpt>
      <trkpt lat="44.27521" lon="6.6114">
        <ele>2147.2</ele>
        <time>2021-08-07T12:04:17Z</time>
      </trkpt>
      <trkpt lat="44.27506" lon="6.61145">
        <ele>2146.6</ele>
        <time>2021-08-07T12:04:24Z</time>
      </trkpt>
      <trkpt lat="44.27505" lon="6.6115">
        <ele>2146.4</ele>
        <time>2021-08-07T12:04:27Z</time>
      </trkpt>
      <trkpt lat="44.27505" lon="6.61154">
        <ele>2146.4</ele>
        <time>2021-08-07T12:04:29Z</time>
      </trkpt>
      <trkpt lat="44.27504" lon="6.61164">
        <ele>2146.8</ele>
        <time>2021-08-07T12:04:33Z</time>
      </trkpt>
      <trkpt lat="44.275" lon="6.61169">
        <ele>2147.2</ele>
        <time>2021-08-07T12:04:36Z</time>
      </trkpt>
      <trkpt lat="44.27499" lon="6.61171">
        <ele>2147.2</ele>
        <time>2021-08-07T12:04:37Z</time>
      </trkpt>
      <trkpt lat="44.27489" lon="6.61179">
        <ele>2147.4</ele>
        <time>2021-08-07T12:04:47Z</time>
      </trkpt>
      <trkpt lat="44.27485" lon="6.6118">
        <ele>2147.2</ele>
        <time>2021-08-07T12:04:52Z</time>
      </trkpt>
      <trkpt lat="44.2748" lon="6.61183">
        <ele>2147.6</ele>
        <time>2021-08-07T12:04:56Z</time>
      </trkpt>
      <trkpt lat="44.27479" lon="6.61185">
        <ele>2147.8</ele>
        <time>2021-08-07T12:04:57Z</time>
      </trkpt>
      <trkpt lat="44.27477" lon="6.61188">
        <ele>2147.4</ele>
        <time>2021-08-07T12:05:03Z</time>
      </trkpt>
      <trkpt lat="44.27472" lon="6.61189">
        <ele>2147</ele>
        <time>2021-08-07T12:05:07Z</time>
      </trkpt>
      <trkpt lat="44.27468" lon="6.61188">
        <ele>2148</ele>
        <time>2021-08-07T12:05:15Z</time>
      </trkpt>
      <trkpt lat="44.27468" lon="6.61188">
        <ele>2147.8</ele>
        <time>2021-08-07T12:05:17Z</time>
      </trkpt>
      <trkpt lat="44.27464" lon="6.61189">
        <ele>2147.8</ele>
        <time>2021-08-07T12:05:19Z</time>
      </trkpt>
      <trkpt lat="44.27449" lon="6.61194">
        <ele>2147.4</ele>
        <time>2021-08-07T12:05:27Z</time>
      </trkpt>
      <trkpt lat="44.27448" lon="6.612">
        <ele>2147</ele>
        <time>2021-08-07T12:05:33Z</time>
      </trkpt>
      <trkpt lat="44.27449" lon="6.61201">
        <ele>2147</ele>
        <time>2021-08-07T12:05:36Z</time>
      </trkpt>
      <trkpt lat="44.27449" lon="6.61202">
        <ele>2147</ele>
        <time>2021-08-07T12:05:37Z</time>
      </trkpt>
      <trkpt lat="44.27453" lon="6.61204">
        <ele>2147.2</ele>
        <time>2021-08-07T12:05:43Z</time>
      </trkpt>
      <trkpt lat="44.27455" lon="6.61207">
        <ele>2147.6</ele>
        <time>2021-08-07T12:05:47Z</time>
      </trkpt>
      <trkpt lat="44.27455" lon="6.61208">
        <ele>2147.8</ele>
        <time>2021-08-07T12:05:48Z</time>
      </trkpt>
      <trkpt lat="44.27458" lon="6.61211">
        <ele>2148.2</ele>
        <time>2021-08-07T12:05:52Z</time>
      </trkpt>
      <trkpt lat="44.27459" lon="6.61212">
        <ele>2148.4</ele>
        <time>2021-08-07T12:05:53Z</time>
      </trkpt>
      <trkpt lat="44.27462" lon="6.61214">
        <ele>2148.4</ele>
        <time>2021-08-07T12:05:55Z</time>
      </trkpt>
      <trkpt lat="44.27463" lon="6.61217">
        <ele>2148.4</ele>
        <time>2021-08-07T12:05:57Z</time>
      </trkpt>
      <trkpt lat="44.27467" lon="6.61222">
        <ele>2148.2</ele>
        <time>2021-08-07T12:06:01Z</time>
      </trkpt>
      <trkpt lat="44.2747" lon="6.61228">
        <ele>2148.2</ele>
        <time>2021-08-07T12:06:04Z</time>
      </trkpt>
      <trkpt lat="44.27473" lon="6.61234">
        <ele>2147.8</ele>
        <time>2021-08-07T12:06:07Z</time>
      </trkpt>
      <trkpt lat="44.27474" lon="6.61236">
        <ele>2148</ele>
        <time>2021-08-07T12:06:08Z</time>
      </trkpt>
      <trkpt lat="44.27483" lon="6.61257">
        <ele>2147.6</ele>
        <time>2021-08-07T12:06:17Z</time>
      </trkpt>
      <trkpt lat="44.27485" lon="6.61264">
        <ele>2147.4</ele>
        <time>2021-08-07T12:06:20Z</time>
      </trkpt>
      <trkpt lat="44.27489" lon="6.61281">
        <ele>2147.6</ele>
        <time>2021-08-07T12:06:27Z</time>
      </trkpt>
      <trkpt lat="44.2749" lon="6.61307">
        <ele>2147.8</ele>
        <time>2021-08-07T12:06:37Z</time>
      </trkpt>
      <trkpt lat="44.27485" lon="6.61319">
        <ele>2148.6</ele>
        <time>2021-08-07T12:06:46Z</time>
      </trkpt>
      <trkpt lat="44.27486" lon="6.6132">
        <ele>2148.6</ele>
        <time>2021-08-07T12:06:47Z</time>
      </trkpt>
      <trkpt lat="44.27489" lon="6.61323">
        <ele>2148.2</ele>
        <time>2021-08-07T12:06:51Z</time>
      </trkpt>
      <trkpt lat="44.27489" lon="6.6133">
        <ele>2148.2</ele>
        <time>2021-08-07T12:06:55Z</time>
      </trkpt>
      <trkpt lat="44.27487" lon="6.61333">
        <ele>2148.2</ele>
        <time>2021-08-07T12:06:57Z</time>
      </trkpt>
      <trkpt lat="44.27485" lon="6.61333">
        <ele>2148.2</ele>
        <time>2021-08-07T12:06:59Z</time>
      </trkpt>
      <trkpt lat="44.27486" lon="6.6134">
        <ele>2147.8</ele>
        <time>2021-08-07T12:07:05Z</time>
      </trkpt>
      <trkpt lat="44.27487" lon="6.61342">
        <ele>2147.8</ele>
        <time>2021-08-07T12:07:07Z</time>
      </trkpt>
      <trkpt lat="44.27495" lon="6.61347">
        <ele>2147.8</ele>
        <time>2021-08-07T12:07:14Z</time>
      </trkpt>
      <trkpt lat="44.27497" lon="6.61351">
        <ele>2147.8</ele>
        <time>2021-08-07T12:07:16Z</time>
      </trkpt>
      <trkpt lat="44.27499" lon="6.61354">
        <ele>2147.6</ele>
        <time>2021-08-07T12:07:17Z</time>
      </trkpt>
      <trkpt lat="44.27501" lon="6.6136">
        <ele>2147.4</ele>
        <time>2021-08-07T12:07:20Z</time>
      </trkpt>
      <trkpt lat="44.27508" lon="6.61376">
        <ele>2148.4</ele>
        <time>2021-08-07T12:07:27Z</time>
      </trkpt>
      <trkpt lat="44.27513" lon="6.61407">
        <ele>2148.4</ele>
        <time>2021-08-07T12:07:37Z</time>
      </trkpt>
      <trkpt lat="44.27516" lon="6.61444">
        <ele>2147.8</ele>
        <time>2021-08-07T12:07:47Z</time>
      </trkpt>
      <trkpt lat="44.27503" lon="6.61484">
        <ele>2147.6</ele>
        <time>2021-08-07T12:07:57Z</time>
      </trkpt>
      <trkpt lat="44.27487" lon="6.61502">
        <ele>2149.2</ele>
        <time>2021-08-07T12:08:04Z</time>
      </trkpt>
      <trkpt lat="44.27479" lon="6.61506">
        <ele>2149.8</ele>
        <time>2021-08-07T12:08:07Z</time>
      </trkpt>
      <trkpt lat="44.27451" lon="6.61528">
        <ele>2148.2</ele>
        <time>2021-08-07T12:08:17Z</time>
      </trkpt>
      <trkpt lat="44.27441" lon="6.61544">
        <ele>2146.8</ele>
        <time>2021-08-07T12:08:20Z</time>
      </trkpt>
      <trkpt lat="44.27429" lon="6.61562">
        <ele>2145.2</ele>
        <time>2021-08-07T12:08:23Z</time>
      </trkpt>
      <trkpt lat="44.27422" lon="6.61574">
        <ele>2143.6</ele>
        <time>2021-08-07T12:08:25Z</time>
      </trkpt>
      <trkpt lat="44.27417" lon="6.61582">
        <ele>2142.8</ele>
        <time>2021-08-07T12:08:27Z</time>
      </trkpt>
      <trkpt lat="44.27387" lon="6.61602">
        <ele>2142.4</ele>
        <time>2021-08-07T12:08:37Z</time>
      </trkpt>
      <trkpt lat="44.27384" lon="6.61605">
        <ele>2142.4</ele>
        <time>2021-08-07T12:08:38Z</time>
      </trkpt>
      <trkpt lat="44.27375" lon="6.61623">
        <ele>2142.2</ele>
        <time>2021-08-07T12:08:43Z</time>
      </trkpt>
      <trkpt lat="44.27375" lon="6.61628">
        <ele>2141.6</ele>
        <time>2021-08-07T12:08:45Z</time>
      </trkpt>
      <trkpt lat="44.27377" lon="6.6163">
        <ele>2141.2</ele>
        <time>2021-08-07T12:08:46Z</time>
      </trkpt>
      <trkpt lat="44.27378" lon="6.61632">
        <ele>2140.6</ele>
        <time>2021-08-07T12:08:47Z</time>
      </trkpt>
      <trkpt lat="44.27377" lon="6.61634">
        <ele>2140.2</ele>
        <time>2021-08-07T12:08:48Z</time>
      </trkpt>
      <trkpt lat="44.27375" lon="6.61639">
        <ele>2138.8</ele>
        <time>2021-08-07T12:08:51Z</time>
      </trkpt>
      <trkpt lat="44.27378" lon="6.61641">
        <ele>2137.6</ele>
        <time>2021-08-07T12:08:53Z</time>
      </trkpt>
      <trkpt lat="44.27378" lon="6.6165">
        <ele>2136.4</ele>
        <time>2021-08-07T12:08:56Z</time>
      </trkpt>
      <trkpt lat="44.27375" lon="6.61652">
        <ele>2135.6</ele>
        <time>2021-08-07T12:08:57Z</time>
      </trkpt>
      <trkpt lat="44.27372" lon="6.61653">
        <ele>2134.8</ele>
        <time>2021-08-07T12:08:58Z</time>
      </trkpt>
      <trkpt lat="44.27368" lon="6.61655">
        <ele>2133.2</ele>
        <time>2021-08-07T12:09:00Z</time>
      </trkpt>
      <trkpt lat="44.27369" lon="6.61658">
        <ele>2132.8</ele>
        <time>2021-08-07T12:09:01Z</time>
      </trkpt>
      <trkpt lat="44.27373" lon="6.61661">
        <ele>2132.2</ele>
        <time>2021-08-07T12:09:02Z</time>
      </trkpt>
      <trkpt lat="44.27378" lon="6.61666">
        <ele>2130.8</ele>
        <time>2021-08-07T12:09:04Z</time>
      </trkpt>
      <trkpt lat="44.27384" lon="6.61669">
        <ele>2129.8</ele>
        <time>2021-08-07T12:09:07Z</time>
      </trkpt>
      <trkpt lat="44.27387" lon="6.61674">
        <ele>2129.4</ele>
        <time>2021-08-07T12:09:09Z</time>
      </trkpt>
      <trkpt lat="44.27382" lon="6.61679">
        <ele>2128.2</ele>
        <time>2021-08-07T12:09:11Z</time>
      </trkpt>
      <trkpt lat="44.27378" lon="6.61684">
        <ele>2126.8</ele>
        <time>2021-08-07T12:09:13Z</time>
      </trkpt>
      <trkpt lat="44.27378" lon="6.61687">
        <ele>2125.6</ele>
        <time>2021-08-07T12:09:14Z</time>
      </trkpt>
      <trkpt lat="44.27381" lon="6.6169">
        <ele>2124.4</ele>
        <time>2021-08-07T12:09:15Z</time>
      </trkpt>
      <trkpt lat="44.27385" lon="6.61694">
        <ele>2123.2</ele>
        <time>2021-08-07T12:09:16Z</time>
      </trkpt>
      <trkpt lat="44.27389" lon="6.61697">
        <ele>2122.2</ele>
        <time>2021-08-07T12:09:17Z</time>
      </trkpt>
      <trkpt lat="44.2739" lon="6.61701">
        <ele>2121.2</ele>
        <time>2021-08-07T12:09:18Z</time>
      </trkpt>
      <trkpt lat="44.27394" lon="6.61704">
        <ele>2120</ele>
        <time>2021-08-07T12:09:20Z</time>
      </trkpt>
      <trkpt lat="44.2739" lon="6.61715">
        <ele>2118.8</ele>
        <time>2021-08-07T12:09:24Z</time>
      </trkpt>
      <trkpt lat="44.27389" lon="6.61719">
        <ele>2117</ele>
        <time>2021-08-07T12:09:26Z</time>
      </trkpt>
      <trkpt lat="44.2739" lon="6.61721">
        <ele>2116.2</ele>
        <time>2021-08-07T12:09:27Z</time>
      </trkpt>
      <trkpt lat="44.27391" lon="6.61723">
        <ele>2115.8</ele>
        <time>2021-08-07T12:09:28Z</time>
      </trkpt>
      <trkpt lat="44.27383" lon="6.6173">
        <ele>2114.2</ele>
        <time>2021-08-07T12:09:31Z</time>
      </trkpt>
      <trkpt lat="44.27379" lon="6.61732">
        <ele>2113.2</ele>
        <time>2021-08-07T12:09:32Z</time>
      </trkpt>
      <trkpt lat="44.27374" lon="6.61733">
        <ele>2112.4</ele>
        <time>2021-08-07T12:09:33Z</time>
      </trkpt>
      <trkpt lat="44.2737" lon="6.61733">
        <ele>2111.4</ele>
        <time>2021-08-07T12:09:34Z</time>
      </trkpt>
      <trkpt lat="44.27362" lon="6.61736">
        <ele>2109.6</ele>
        <time>2021-08-07T12:09:36Z</time>
      </trkpt>
      <trkpt lat="44.27358" lon="6.61737">
        <ele>2108.4</ele>
        <time>2021-08-07T12:09:37Z</time>
      </trkpt>
      <trkpt lat="44.27353" lon="6.61737">
        <ele>2107</ele>
        <time>2021-08-07T12:09:38Z</time>
      </trkpt>
      <trkpt lat="44.27348" lon="6.61737">
        <ele>2105.8</ele>
        <time>2021-08-07T12:09:39Z</time>
      </trkpt>
      <trkpt lat="44.27345" lon="6.61738">
        <ele>2104.8</ele>
        <time>2021-08-07T12:09:40Z</time>
      </trkpt>
      <trkpt lat="44.27343" lon="6.61741">
        <ele>2104</ele>
        <time>2021-08-07T12:09:41Z</time>
      </trkpt>
      <trkpt lat="44.27342" lon="6.61745">
        <ele>2103.4</ele>
        <time>2021-08-07T12:09:42Z</time>
      </trkpt>
      <trkpt lat="44.27342" lon="6.61751">
        <ele>2103.2</ele>
        <time>2021-08-07T12:09:43Z</time>
      </trkpt>
      <trkpt lat="44.27342" lon="6.61777">
        <ele>2102.8</ele>
        <time>2021-08-07T12:09:47Z</time>
      </trkpt>
      <trkpt lat="44.27341" lon="6.61792">
        <ele>2102</ele>
        <time>2021-08-07T12:09:49Z</time>
      </trkpt>
      <trkpt lat="44.27339" lon="6.61809">
        <ele>2100.8</ele>
        <time>2021-08-07T12:09:51Z</time>
      </trkpt>
      <trkpt lat="44.27336" lon="6.61832">
        <ele>2099.6</ele>
        <time>2021-08-07T12:09:54Z</time>
      </trkpt>
      <trkpt lat="44.27332" lon="6.61855">
        <ele>2098.2</ele>
        <time>2021-08-07T12:09:57Z</time>
      </trkpt>
      <trkpt lat="44.27328" lon="6.61877">
        <ele>2097</ele>
        <time>2021-08-07T12:10:00Z</time>
      </trkpt>
      <trkpt lat="44.27322" lon="6.61906">
        <ele>2095.8</ele>
        <time>2021-08-07T12:10:04Z</time>
      </trkpt>
      <trkpt lat="44.27313" lon="6.61919">
        <ele>2095.6</ele>
        <time>2021-08-07T12:10:07Z</time>
      </trkpt>
      <trkpt lat="44.27295" lon="6.61941">
        <ele>2094.6</ele>
        <time>2021-08-07T12:10:13Z</time>
      </trkpt>
      <trkpt lat="44.27289" lon="6.61949">
        <ele>2094.2</ele>
        <time>2021-08-07T12:10:15Z</time>
      </trkpt>
      <trkpt lat="44.27281" lon="6.61951">
        <ele>2094.2</ele>
        <time>2021-08-07T12:10:17Z</time>
      </trkpt>
      <trkpt lat="44.27277" lon="6.61957">
        <ele>2094</ele>
        <time>2021-08-07T12:10:18Z</time>
      </trkpt>
      <trkpt lat="44.27282" lon="6.61989">
        <ele>2094</ele>
        <time>2021-08-07T12:10:27Z</time>
      </trkpt>
      <trkpt lat="44.27283" lon="6.61995">
        <ele>2093.8</ele>
        <time>2021-08-07T12:10:28Z</time>
      </trkpt>
      <trkpt lat="44.27283" lon="6.62001">
        <ele>2093.6</ele>
        <time>2021-08-07T12:10:29Z</time>
      </trkpt>
      <trkpt lat="44.27281" lon="6.62007">
        <ele>2093.2</ele>
        <time>2021-08-07T12:10:30Z</time>
      </trkpt>
      <trkpt lat="44.27277" lon="6.62018">
        <ele>2092.4</ele>
        <time>2021-08-07T12:10:32Z</time>
      </trkpt>
      <trkpt lat="44.27275" lon="6.62022">
        <ele>2091.8</ele>
        <time>2021-08-07T12:10:33Z</time>
      </trkpt>
      <trkpt lat="44.27274" lon="6.62028">
        <ele>2091.2</ele>
        <time>2021-08-07T12:10:34Z</time>
      </trkpt>
      <trkpt lat="44.27272" lon="6.62044">
        <ele>2089.4</ele>
        <time>2021-08-07T12:10:36Z</time>
      </trkpt>
      <trkpt lat="44.2727" lon="6.62055">
        <ele>2088.4</ele>
        <time>2021-08-07T12:10:37Z</time>
      </trkpt>
      <trkpt lat="44.27269" lon="6.62064">
        <ele>2087.4</ele>
        <time>2021-08-07T12:10:38Z</time>
      </trkpt>
      <trkpt lat="44.27271" lon="6.62079">
        <ele>2085.4</ele>
        <time>2021-08-07T12:10:40Z</time>
      </trkpt>
      <trkpt lat="44.27272" lon="6.62088">
        <ele>2084.2</ele>
        <time>2021-08-07T12:10:41Z</time>
      </trkpt>
      <trkpt lat="44.27273" lon="6.62097">
        <ele>2083</ele>
        <time>2021-08-07T12:10:42Z</time>
      </trkpt>
      <trkpt lat="44.27273" lon="6.62107">
        <ele>2081.8</ele>
        <time>2021-08-07T12:10:43Z</time>
      </trkpt>
      <trkpt lat="44.27274" lon="6.62117">
        <ele>2080.6</ele>
        <time>2021-08-07T12:10:44Z</time>
      </trkpt>
      <trkpt lat="44.27275" lon="6.62124">
        <ele>2079.6</ele>
        <time>2021-08-07T12:10:45Z</time>
      </trkpt>
      <trkpt lat="44.27273" lon="6.62134">
        <ele>2077.4</ele>
        <time>2021-08-07T12:10:47Z</time>
      </trkpt>
      <trkpt lat="44.27271" lon="6.62139">
        <ele>2076.4</ele>
        <time>2021-08-07T12:10:48Z</time>
      </trkpt>
      <trkpt lat="44.27267" lon="6.62152">
        <ele>2074.6</ele>
        <time>2021-08-07T12:10:50Z</time>
      </trkpt>
      <trkpt lat="44.27262" lon="6.62167">
        <ele>2073.4</ele>
        <time>2021-08-07T12:10:52Z</time>
      </trkpt>
      <trkpt lat="44.27257" lon="6.62181">
        <ele>2072.2</ele>
        <time>2021-08-07T12:10:54Z</time>
      </trkpt>
      <trkpt lat="44.27252" lon="6.62196">
        <ele>2070.8</ele>
        <time>2021-08-07T12:10:56Z</time>
      </trkpt>
      <trkpt lat="44.27248" lon="6.62202">
        <ele>2070.2</ele>
        <time>2021-08-07T12:10:57Z</time>
      </trkpt>
      <trkpt lat="44.27241" lon="6.62212">
        <ele>2069.4</ele>
        <time>2021-08-07T12:10:59Z</time>
      </trkpt>
      <trkpt lat="44.27239" lon="6.62217">
        <ele>2068.8</ele>
        <time>2021-08-07T12:11:00Z</time>
      </trkpt>
      <trkpt lat="44.27237" lon="6.62223">
        <ele>2068</ele>
        <time>2021-08-07T12:11:01Z</time>
      </trkpt>
      <trkpt lat="44.27236" lon="6.62229">
        <ele>2067.2</ele>
        <time>2021-08-07T12:11:02Z</time>
      </trkpt>
      <trkpt lat="44.27233" lon="6.62235">
        <ele>2066.2</ele>
        <time>2021-08-07T12:11:03Z</time>
      </trkpt>
      <trkpt lat="44.2723" lon="6.6224">
        <ele>2065.6</ele>
        <time>2021-08-07T12:11:04Z</time>
      </trkpt>
      <trkpt lat="44.27229" lon="6.62244">
        <ele>2065</ele>
        <time>2021-08-07T12:11:05Z</time>
      </trkpt>
      <trkpt lat="44.27226" lon="6.62251">
        <ele>2063.8</ele>
        <time>2021-08-07T12:11:07Z</time>
      </trkpt>
      <trkpt lat="44.27224" lon="6.62259">
        <ele>2062.6</ele>
        <time>2021-08-07T12:11:09Z</time>
      </trkpt>
      <trkpt lat="44.27221" lon="6.62265">
        <ele>2061.4</ele>
        <time>2021-08-07T12:11:11Z</time>
      </trkpt>
      <trkpt lat="44.27214" lon="6.62278">
        <ele>2060.4</ele>
        <time>2021-08-07T12:11:14Z</time>
      </trkpt>
      <trkpt lat="44.27208" lon="6.62288">
        <ele>2059.2</ele>
        <time>2021-08-07T12:11:16Z</time>
      </trkpt>
      <trkpt lat="44.27204" lon="6.62293">
        <ele>2058.4</ele>
        <time>2021-08-07T12:11:17Z</time>
      </trkpt>
      <trkpt lat="44.27198" lon="6.623">
        <ele>2057.2</ele>
        <time>2021-08-07T12:11:18Z</time>
      </trkpt>
      <trkpt lat="44.27191" lon="6.62307">
        <ele>2055.8</ele>
        <time>2021-08-07T12:11:19Z</time>
      </trkpt>
      <trkpt lat="44.27184" lon="6.62314">
        <ele>2054.6</ele>
        <time>2021-08-07T12:11:20Z</time>
      </trkpt>
      <trkpt lat="44.27172" lon="6.62324">
        <ele>2052.8</ele>
        <time>2021-08-07T12:11:22Z</time>
      </trkpt>
      <trkpt lat="44.27168" lon="6.62327">
        <ele>2051.6</ele>
        <time>2021-08-07T12:11:23Z</time>
      </trkpt>
      <trkpt lat="44.27164" lon="6.62332">
        <ele>2050.4</ele>
        <time>2021-08-07T12:11:24Z</time>
      </trkpt>
      <trkpt lat="44.27159" lon="6.62338">
        <ele>2049.2</ele>
        <time>2021-08-07T12:11:25Z</time>
      </trkpt>
      <trkpt lat="44.2715" lon="6.62351">
        <ele>2047.8</ele>
        <time>2021-08-07T12:11:27Z</time>
      </trkpt>
      <trkpt lat="44.27138" lon="6.62366">
        <ele>2046.6</ele>
        <time>2021-08-07T12:11:30Z</time>
      </trkpt>
      <trkpt lat="44.27131" lon="6.62372">
        <ele>2045.2</ele>
        <time>2021-08-07T12:11:32Z</time>
      </trkpt>
      <trkpt lat="44.27126" lon="6.62378">
        <ele>2043.8</ele>
        <time>2021-08-07T12:11:34Z</time>
      </trkpt>
      <trkpt lat="44.27122" lon="6.62382">
        <ele>2042.8</ele>
        <time>2021-08-07T12:11:36Z</time>
      </trkpt>
      <trkpt lat="44.27119" lon="6.62385">
        <ele>2042.4</ele>
        <time>2021-08-07T12:11:37Z</time>
      </trkpt>
      <trkpt lat="44.27113" lon="6.62392">
        <ele>2042</ele>
        <time>2021-08-07T12:11:44Z</time>
      </trkpt>
      <trkpt lat="44.27113" lon="6.62392">
        <ele>2042.4</ele>
        <time>2021-08-07T12:11:47Z</time>
      </trkpt>
      <trkpt lat="44.27112" lon="6.62392">
        <ele>2042.4</ele>
        <time>2021-08-07T12:11:48Z</time>
      </trkpt>
      <trkpt lat="44.27112" lon="6.62391">
        <ele>2042.4</ele>
        <time>2021-08-07T12:11:50Z</time>
      </trkpt>
      <trkpt lat="44.27109" lon="6.6239">
        <ele>2041.4</ele>
        <time>2021-08-07T12:11:55Z</time>
      </trkpt>
      <trkpt lat="44.27106" lon="6.6239">
        <ele>2041</ele>
        <time>2021-08-07T12:11:57Z</time>
      </trkpt>
      <trkpt lat="44.27104" lon="6.62393">
        <ele>2041</ele>
        <time>2021-08-07T12:12:07Z</time>
      </trkpt>
      <trkpt lat="44.27104" lon="6.62393">
        <ele>2040.4</ele>
        <time>2021-08-07T12:12:13Z</time>
      </trkpt>
      <trkpt lat="44.27103" lon="6.62393">
        <ele>2040.4</ele>
        <time>2021-08-07T12:12:17Z</time>
      </trkpt>
      <trkpt lat="44.27104" lon="6.62393">
        <ele>2040.8</ele>
        <time>2021-08-07T12:12:27Z</time>
      </trkpt>
      <trkpt lat="44.27104" lon="6.62391">
        <ele>2041.2</ele>
        <time>2021-08-07T12:12:37Z</time>
      </trkpt>
      <trkpt lat="44.27104" lon="6.62391">
        <ele>2041.2</ele>
        <time>2021-08-07T12:12:47Z</time>
      </trkpt>
      <trkpt lat="44.27103" lon="6.6239">
        <ele>2040.2</ele>
        <time>2021-08-07T12:12:56Z</time>
      </trkpt>
      <trkpt lat="44.27104" lon="6.6239">
        <ele>2040.2</ele>
        <time>2021-08-07T12:12:57Z</time>
      </trkpt>
      <trkpt lat="44.27104" lon="6.62391">
        <ele>2040.2</ele>
        <time>2021-08-07T12:12:58Z</time>
      </trkpt>
      <trkpt lat="44.27104" lon="6.6239">
        <ele>2040.8</ele>
        <time>2021-08-07T12:13:05Z</time>
      </trkpt>
      <trkpt lat="44.27104" lon="6.62391">
        <ele>2040.8</ele>
        <time>2021-08-07T12:13:07Z</time>
      </trkpt>
      <trkpt lat="44.27103" lon="6.62391">
        <ele>2040.6</ele>
        <time>2021-08-07T12:13:12Z</time>
      </trkpt>
      <trkpt lat="44.27102" lon="6.62391">
        <ele>2040.4</ele>
        <time>2021-08-07T12:13:15Z</time>
      </trkpt>
      <trkpt lat="44.27102" lon="6.62391">
        <ele>2040.4</ele>
        <time>2021-08-07T12:13:17Z</time>
      </trkpt>
      <trkpt lat="44.27102" lon="6.6239">
        <ele>2040</ele>
        <time>2021-08-07T12:13:25Z</time>
      </trkpt>
      <trkpt lat="44.27102" lon="6.6239">
        <ele>2039.8</ele>
        <time>2021-08-07T12:13:27Z</time>
      </trkpt>
      <trkpt lat="44.27101" lon="6.62389">
        <ele>2039.6</ele>
        <time>2021-08-07T12:13:31Z</time>
      </trkpt>
      <trkpt lat="44.27097" lon="6.6239">
        <ele>2039.2</ele>
        <time>2021-08-07T12:13:33Z</time>
      </trkpt>
      <trkpt lat="44.27095" lon="6.62392">
        <ele>2039</ele>
        <time>2021-08-07T12:13:34Z</time>
      </trkpt>
      <trkpt lat="44.27094" lon="6.62392">
        <ele>2038.6</ele>
        <time>2021-08-07T12:13:37Z</time>
      </trkpt>
      <trkpt lat="44.27094" lon="6.62392">
        <ele>2038.6</ele>
        <time>2021-08-07T12:13:38Z</time>
      </trkpt>
      <trkpt lat="44.27095" lon="6.62392">
        <ele>2038.4</ele>
        <time>2021-08-07T12:13:44Z</time>
      </trkpt>
      <trkpt lat="44.27095" lon="6.62392">
        <ele>2038.4</ele>
        <time>2021-08-07T12:13:47Z</time>
      </trkpt>
      <trkpt lat="44.27095" lon="6.62392">
        <ele>2039</ele>
        <time>2021-08-07T12:13:57Z</time>
      </trkpt>
      <trkpt lat="44.27096" lon="6.62395">
        <ele>2038.6</ele>
        <time>2021-08-07T12:14:07Z</time>
      </trkpt>
      <trkpt lat="44.27096" lon="6.62397">
        <ele>2038.6</ele>
        <time>2021-08-07T12:14:17Z</time>
      </trkpt>
      <trkpt lat="44.27097" lon="6.62395">
        <ele>2038.6</ele>
        <time>2021-08-07T12:14:27Z</time>
      </trkpt>
      <trkpt lat="44.27096" lon="6.62395">
        <ele>2038.2</ele>
        <time>2021-08-07T12:14:31Z</time>
      </trkpt>
      <trkpt lat="44.27094" lon="6.62392">
        <ele>2038</ele>
        <time>2021-08-07T12:14:37Z</time>
      </trkpt>
      <trkpt lat="44.27094" lon="6.62392">
        <ele>2039.2</ele>
        <time>2021-08-07T12:14:47Z</time>
      </trkpt>
      <trkpt lat="44.27094" lon="6.62393">
        <ele>2039.4</ele>
        <time>2021-08-07T12:14:57Z</time>
      </trkpt>
      <trkpt lat="44.27094" lon="6.62393">
        <ele>2039.6</ele>
        <time>2021-08-07T12:15:03Z</time>
      </trkpt>
      <trkpt lat="44.27094" lon="6.62393">
        <ele>2039.4</ele>
        <time>2021-08-07T12:15:07Z</time>
      </trkpt>
      <trkpt lat="44.27095" lon="6.62395">
        <ele>2039.6</ele>
        <time>2021-08-07T12:15:13Z</time>
      </trkpt>
      <trkpt lat="44.27096" lon="6.62396">
        <ele>2039.8</ele>
        <time>2021-08-07T12:15:17Z</time>
      </trkpt>
      <trkpt lat="44.27097" lon="6.62398">
        <ele>2039.6</ele>
        <time>2021-08-07T12:15:26Z</time>
      </trkpt>
      <trkpt lat="44.27097" lon="6.62398">
        <ele>2039.4</ele>
        <time>2021-08-07T12:15:27Z</time>
      </trkpt>
      <trkpt lat="44.27097" lon="6.62398">
        <ele>2039.2</ele>
        <time>2021-08-07T12:15:31Z</time>
      </trkpt>
      <trkpt lat="44.27097" lon="6.62398">
        <ele>2039.2</ele>
        <time>2021-08-07T12:15:33Z</time>
      </trkpt>
      <trkpt lat="44.27097" lon="6.62397">
        <ele>2039</ele>
        <time>2021-08-07T12:15:37Z</time>
      </trkpt>
      <trkpt lat="44.27096" lon="6.62396">
        <ele>2038.6</ele>
        <time>2021-08-07T12:15:40Z</time>
      </trkpt>
      <trkpt lat="44.27096" lon="6.62395">
        <ele>2038.4</ele>
        <time>2021-08-07T12:15:43Z</time>
      </trkpt>
      <trkpt lat="44.27096" lon="6.62394">
        <ele>2038.8</ele>
        <time>2021-08-07T12:15:47Z</time>
      </trkpt>
      <trkpt lat="44.27095" lon="6.62394">
        <ele>2038.6</ele>
        <time>2021-08-07T12:15:54Z</time>
      </trkpt>
      <trkpt lat="44.27095" lon="6.62394">
        <ele>2038.6</ele>
        <time>2021-08-07T12:15:57Z</time>
      </trkpt>
      <trkpt lat="44.27096" lon="6.62395">
        <ele>2039.6</ele>
        <time>2021-08-07T12:16:07Z</time>
      </trkpt>
      <trkpt lat="44.27094" lon="6.62394">
        <ele>2039.4</ele>
        <time>2021-08-07T12:16:11Z</time>
      </trkpt>
      <trkpt lat="44.27089" lon="6.62396">
        <ele>2039.2</ele>
        <time>2021-08-07T12:16:15Z</time>
      </trkpt>
      <trkpt lat="44.27086" lon="6.62396">
        <ele>2038.2</ele>
        <time>2021-08-07T12:16:17Z</time>
      </trkpt>
      <trkpt lat="44.27085" lon="6.62397">
        <ele>2037.6</ele>
        <time>2021-08-07T12:16:18Z</time>
      </trkpt>
      <trkpt lat="44.27084" lon="6.62398">
        <ele>2036.4</ele>
        <time>2021-08-07T12:16:20Z</time>
      </trkpt>
      <trkpt lat="44.27084" lon="6.62399">
        <ele>2035.4</ele>
        <time>2021-08-07T12:16:22Z</time>
      </trkpt>
      <trkpt lat="44.27083" lon="6.62401">
        <ele>2034.6</ele>
        <time>2021-08-07T12:16:27Z</time>
      </trkpt>
      <trkpt lat="44.27088" lon="6.62405">
        <ele>2035</ele>
        <time>2021-08-07T12:16:37Z</time>
      </trkpt>
      <trkpt lat="44.2709" lon="6.62405">
        <ele>2035</ele>
        <time>2021-08-07T12:16:38Z</time>
      </trkpt>
      <trkpt lat="44.27089" lon="6.62406">
        <ele>2035</ele>
        <time>2021-08-07T12:16:39Z</time>
      </trkpt>
      <trkpt lat="44.27089" lon="6.62406">
        <ele>2035</ele>
        <time>2021-08-07T12:16:40Z</time>
      </trkpt>
      <trkpt lat="44.27087" lon="6.62406">
        <ele>2035.2</ele>
        <time>2021-08-07T12:16:42Z</time>
      </trkpt>
      <trkpt lat="44.27086" lon="6.62406">
        <ele>2035.4</ele>
        <time>2021-08-07T12:16:43Z</time>
      </trkpt>
      <trkpt lat="44.27084" lon="6.62405">
        <ele>2035.6</ele>
        <time>2021-08-07T12:16:46Z</time>
      </trkpt>
      <trkpt lat="44.27084" lon="6.62405">
        <ele>2035.6</ele>
        <time>2021-08-07T12:16:47Z</time>
      </trkpt>
      <trkpt lat="44.27084" lon="6.62406">
        <ele>2035.6</ele>
        <time>2021-08-07T12:16:50Z</time>
      </trkpt>
      <trkpt lat="44.27083" lon="6.62404">
        <ele>2035.6</ele>
        <time>2021-08-07T12:16:55Z</time>
      </trkpt>
      <trkpt lat="44.27082" lon="6.62404">
        <ele>2035.6</ele>
        <time>2021-08-07T12:16:56Z</time>
      </trkpt>
      <trkpt lat="44.27082" lon="6.62404">
        <ele>2035.4</ele>
        <time>2021-08-07T12:16:57Z</time>
      </trkpt>
      <trkpt lat="44.27082" lon="6.62404">
        <ele>2035.4</ele>
        <time>2021-08-07T12:16:59Z</time>
      </trkpt>
      <trkpt lat="44.27082" lon="6.62403">
        <ele>2035.2</ele>
        <time>2021-08-07T12:17:02Z</time>
      </trkpt>
      <trkpt lat="44.27082" lon="6.62403">
        <ele>2035</ele>
        <time>2021-08-07T12:17:04Z</time>
      </trkpt>
      <trkpt lat="44.27082" lon="6.62402">
        <ele>2034.6</ele>
        <time>2021-08-07T12:17:07Z</time>
      </trkpt>
      <trkpt lat="44.27081" lon="6.62401">
        <ele>2034.4</ele>
        <time>2021-08-07T12:17:09Z</time>
      </trkpt>
      <trkpt lat="44.27081" lon="6.62401">
        <ele>2034.6</ele>
        <time>2021-08-07T12:17:13Z</time>
      </trkpt>
      <trkpt lat="44.27081" lon="6.624">
        <ele>2034.6</ele>
        <time>2021-08-07T12:17:17Z</time>
      </trkpt>
      <trkpt lat="44.27082" lon="6.62398">
        <ele>2035.4</ele>
        <time>2021-08-07T12:17:27Z</time>
      </trkpt>
      <trkpt lat="44.27084" lon="6.62399">
        <ele>2035.4</ele>
        <time>2021-08-07T12:17:31Z</time>
      </trkpt>
      <trkpt lat="44.27087" lon="6.62403">
        <ele>2035.4</ele>
        <time>2021-08-07T12:17:37Z</time>
      </trkpt>
      <trkpt lat="44.27088" lon="6.62406">
        <ele>2035.4</ele>
        <time>2021-08-07T12:17:44Z</time>
      </trkpt>
      <trkpt lat="44.27089" lon="6.62407">
        <ele>2035.4</ele>
        <time>2021-08-07T12:17:46Z</time>
      </trkpt>
      <trkpt lat="44.27089" lon="6.62406">
        <ele>2035.4</ele>
        <time>2021-08-07T12:17:47Z</time>
      </trkpt>
      <trkpt lat="44.27093" lon="6.62407">
        <ele>2035.4</ele>
        <time>2021-08-07T12:17:54Z</time>
      </trkpt>
      <trkpt lat="44.27097" lon="6.62411">
        <ele>2034</ele>
        <time>2021-08-07T12:17:56Z</time>
      </trkpt>
      <trkpt lat="44.27099" lon="6.62411">
        <ele>2033.4</ele>
        <time>2021-08-07T12:17:57Z</time>
      </trkpt>
      <trkpt lat="44.271" lon="6.62412">
        <ele>2032.6</ele>
        <time>2021-08-07T12:17:58Z</time>
      </trkpt>
      <trkpt lat="44.27103" lon="6.62415">
        <ele>2032</ele>
        <time>2021-08-07T12:18:00Z</time>
      </trkpt>
      <trkpt lat="44.27105" lon="6.62417">
        <ele>2032</ele>
        <time>2021-08-07T12:18:02Z</time>
      </trkpt>
      <trkpt lat="44.27107" lon="6.6242">
        <ele>2031.4</ele>
        <time>2021-08-07T12:18:04Z</time>
      </trkpt>
      <trkpt lat="44.27103" lon="6.62423">
        <ele>2030.2</ele>
        <time>2021-08-07T12:18:06Z</time>
      </trkpt>
      <trkpt lat="44.27101" lon="6.62425">
        <ele>2029.6</ele>
        <time>2021-08-07T12:18:07Z</time>
      </trkpt>
      <trkpt lat="44.27099" lon="6.62426">
        <ele>2029</ele>
        <time>2021-08-07T12:18:08Z</time>
      </trkpt>
      <trkpt lat="44.27098" lon="6.62426">
        <ele>2028.4</ele>
        <time>2021-08-07T12:18:09Z</time>
      </trkpt>
      <trkpt lat="44.27097" lon="6.62426">
        <ele>2027.6</ele>
        <time>2021-08-07T12:18:10Z</time>
      </trkpt>
      <trkpt lat="44.27094" lon="6.62427">
        <ele>2025.8</ele>
        <time>2021-08-07T12:18:12Z</time>
      </trkpt>
      <trkpt lat="44.27093" lon="6.62427">
        <ele>2024.6</ele>
        <time>2021-08-07T12:18:14Z</time>
      </trkpt>
      <trkpt lat="44.27093" lon="6.62428">
        <ele>2024.2</ele>
        <time>2021-08-07T12:18:17Z</time>
      </trkpt>
      <trkpt lat="44.27093" lon="6.62429">
        <ele>2023.6</ele>
        <time>2021-08-07T12:18:22Z</time>
      </trkpt>
      <trkpt lat="44.27094" lon="6.6243">
        <ele>2023.2</ele>
        <time>2021-08-07T12:18:27Z</time>
      </trkpt>
      <trkpt lat="44.27093" lon="6.6243">
        <ele>2023</ele>
        <time>2021-08-07T12:18:35Z</time>
      </trkpt>
      <trkpt lat="44.27092" lon="6.62432">
        <ele>2022.8</ele>
        <time>2021-08-07T12:18:36Z</time>
      </trkpt>
      <trkpt lat="44.2709" lon="6.62434">
        <ele>2022.6</ele>
        <time>2021-08-07T12:18:37Z</time>
      </trkpt>
      <trkpt lat="44.27087" lon="6.62436">
        <ele>2022.4</ele>
        <time>2021-08-07T12:18:38Z</time>
      </trkpt>
      <trkpt lat="44.27084" lon="6.62437">
        <ele>2022</ele>
        <time>2021-08-07T12:18:39Z</time>
      </trkpt>
      <trkpt lat="44.2708" lon="6.62438">
        <ele>2021.6</ele>
        <time>2021-08-07T12:18:40Z</time>
      </trkpt>
      <trkpt lat="44.27077" lon="6.62438">
        <ele>2021</ele>
        <time>2021-08-07T12:18:41Z</time>
      </trkpt>
      <trkpt lat="44.27073" lon="6.62438">
        <ele>2020.4</ele>
        <time>2021-08-07T12:18:42Z</time>
      </trkpt>
      <trkpt lat="44.27069" lon="6.62437">
        <ele>2019.6</ele>
        <time>2021-08-07T12:18:43Z</time>
      </trkpt>
      <trkpt lat="44.27061" lon="6.62433">
        <ele>2018.4</ele>
        <time>2021-08-07T12:18:45Z</time>
      </trkpt>
      <trkpt lat="44.27056" lon="6.62426">
        <ele>2017</ele>
        <time>2021-08-07T12:18:47Z</time>
      </trkpt>
      <trkpt lat="44.27051" lon="6.62423">
        <ele>2016.4</ele>
        <time>2021-08-07T12:18:48Z</time>
      </trkpt>
      <trkpt lat="44.27047" lon="6.6242">
        <ele>2015.6</ele>
        <time>2021-08-07T12:18:49Z</time>
      </trkpt>
      <trkpt lat="44.27037" lon="6.62416">
        <ele>2013.8</ele>
        <time>2021-08-07T12:18:51Z</time>
      </trkpt>
      <trkpt lat="44.2703" lon="6.62419">
        <ele>2012.2</ele>
        <time>2021-08-07T12:18:53Z</time>
      </trkpt>
      <trkpt lat="44.27026" lon="6.62431">
        <ele>2010.2</ele>
        <time>2021-08-07T12:18:55Z</time>
      </trkpt>
      <trkpt lat="44.2702" lon="6.62439">
        <ele>2009</ele>
        <time>2021-08-07T12:18:57Z</time>
      </trkpt>
      <trkpt lat="44.27004" lon="6.62448">
        <ele>2007.8</ele>
        <time>2021-08-07T12:19:01Z</time>
      </trkpt>
      <trkpt lat="44.27" lon="6.6245">
        <ele>2007.4</ele>
        <time>2021-08-07T12:19:03Z</time>
      </trkpt>
      <trkpt lat="44.26998" lon="6.6245">
        <ele>2006.8</ele>
        <time>2021-08-07T12:19:07Z</time>
      </trkpt>
      <trkpt lat="44.26998" lon="6.6245">
        <ele>2006.6</ele>
        <time>2021-08-07T12:19:10Z</time>
      </trkpt>
      <trkpt lat="44.26997" lon="6.62451">
        <ele>2006.4</ele>
        <time>2021-08-07T12:19:14Z</time>
      </trkpt>
      <trkpt lat="44.26992" lon="6.62453">
        <ele>2006</ele>
        <time>2021-08-07T12:19:16Z</time>
      </trkpt>
      <trkpt lat="44.26989" lon="6.62455">
        <ele>2005.6</ele>
        <time>2021-08-07T12:19:17Z</time>
      </trkpt>
      <trkpt lat="44.26979" lon="6.62467">
        <ele>2004.4</ele>
        <time>2021-08-07T12:19:21Z</time>
      </trkpt>
      <trkpt lat="44.26972" lon="6.62472">
        <ele>2002.6</ele>
        <time>2021-08-07T12:19:23Z</time>
      </trkpt>
      <trkpt lat="44.26968" lon="6.62475">
        <ele>2001.6</ele>
        <time>2021-08-07T12:19:24Z</time>
      </trkpt>
      <trkpt lat="44.26964" lon="6.62477">
        <ele>2000.8</ele>
        <time>2021-08-07T12:19:25Z</time>
      </trkpt>
      <trkpt lat="44.26959" lon="6.62479">
        <ele>1999.8</ele>
        <time>2021-08-07T12:19:26Z</time>
      </trkpt>
      <trkpt lat="44.26954" lon="6.62481">
        <ele>1999</ele>
        <time>2021-08-07T12:19:27Z</time>
      </trkpt>
      <trkpt lat="44.26944" lon="6.62483">
        <ele>1998.4</ele>
        <time>2021-08-07T12:19:29Z</time>
      </trkpt>
      <trkpt lat="44.26935" lon="6.62481">
        <ele>1997.6</ele>
        <time>2021-08-07T12:19:31Z</time>
      </trkpt>
      <trkpt lat="44.26922" lon="6.62475">
        <ele>1997.2</ele>
        <time>2021-08-07T12:19:34Z</time>
      </trkpt>
      <trkpt lat="44.26909" lon="6.62468">
        <ele>1995.2</ele>
        <time>2021-08-07T12:19:36Z</time>
      </trkpt>
      <trkpt lat="44.26902" lon="6.62464">
        <ele>1994.4</ele>
        <time>2021-08-07T12:19:37Z</time>
      </trkpt>
      <trkpt lat="44.26896" lon="6.6246">
        <ele>1993.2</ele>
        <time>2021-08-07T12:19:38Z</time>
      </trkpt>
      <trkpt lat="44.2689" lon="6.62454">
        <ele>1991.8</ele>
        <time>2021-08-07T12:19:39Z</time>
      </trkpt>
      <trkpt lat="44.26885" lon="6.62448">
        <ele>1990.2</ele>
        <time>2021-08-07T12:19:40Z</time>
      </trkpt>
      <trkpt lat="44.2688" lon="6.62441">
        <ele>1988.6</ele>
        <time>2021-08-07T12:19:41Z</time>
      </trkpt>
      <trkpt lat="44.26875" lon="6.62435">
        <ele>1987.2</ele>
        <time>2021-08-07T12:19:42Z</time>
      </trkpt>
      <trkpt lat="44.26866" lon="6.62426">
        <ele>1985.6</ele>
        <time>2021-08-07T12:19:44Z</time>
      </trkpt>
      <trkpt lat="44.2686" lon="6.62414">
        <ele>1984.6</ele>
        <time>2021-08-07T12:19:46Z</time>
      </trkpt>
      <trkpt lat="44.26858" lon="6.6241">
        <ele>1984</ele>
        <time>2021-08-07T12:19:47Z</time>
      </trkpt>
      <trkpt lat="44.26853" lon="6.62402">
        <ele>1983.4</ele>
        <time>2021-08-07T12:19:49Z</time>
      </trkpt>
      <trkpt lat="44.26847" lon="6.62395">
        <ele>1983.2</ele>
        <time>2021-08-07T12:19:51Z</time>
      </trkpt>
      <trkpt lat="44.26836" lon="6.6238">
        <ele>1982</ele>
        <time>2021-08-07T12:19:55Z</time>
      </trkpt>
      <trkpt lat="44.26834" lon="6.62378">
        <ele>1981</ele>
        <time>2021-08-07T12:19:57Z</time>
      </trkpt>
      <trkpt lat="44.26832" lon="6.62378">
        <ele>1980.8</ele>
        <time>2021-08-07T12:19:58Z</time>
      </trkpt>
      <trkpt lat="44.26827" lon="6.62374">
        <ele>1980</ele>
        <time>2021-08-07T12:20:01Z</time>
      </trkpt>
      <trkpt lat="44.26824" lon="6.62373">
        <ele>1979.4</ele>
        <time>2021-08-07T12:20:02Z</time>
      </trkpt>
      <trkpt lat="44.26817" lon="6.62372">
        <ele>1977.6</ele>
        <time>2021-08-07T12:20:04Z</time>
      </trkpt>
      <trkpt lat="44.26808" lon="6.6237">
        <ele>1975.6</ele>
        <time>2021-08-07T12:20:06Z</time>
      </trkpt>
      <trkpt lat="44.26803" lon="6.62368">
        <ele>1974.6</ele>
        <time>2021-08-07T12:20:07Z</time>
      </trkpt>
      <trkpt lat="44.26797" lon="6.62364">
        <ele>1973.4</ele>
        <time>2021-08-07T12:20:08Z</time>
      </trkpt>
      <trkpt lat="44.26793" lon="6.62361">
        <ele>1972</ele>
        <time>2021-08-07T12:20:09Z</time>
      </trkpt>
      <trkpt lat="44.2679" lon="6.6236">
        <ele>1970.8</ele>
        <time>2021-08-07T12:20:10Z</time>
      </trkpt>
      <trkpt lat="44.26787" lon="6.6236">
        <ele>1969.6</ele>
        <time>2021-08-07T12:20:11Z</time>
      </trkpt>
      <trkpt lat="44.26783" lon="6.62365">
        <ele>1968</ele>
        <time>2021-08-07T12:20:13Z</time>
      </trkpt>
      <trkpt lat="44.26776" lon="6.6237">
        <ele>1967</ele>
        <time>2021-08-07T12:20:15Z</time>
      </trkpt>
      <trkpt lat="44.2677" lon="6.62375">
        <ele>1966.6</ele>
        <time>2021-08-07T12:20:17Z</time>
      </trkpt>
      <trkpt lat="44.26766" lon="6.62378">
        <ele>1966.4</ele>
        <time>2021-08-07T12:20:18Z</time>
      </trkpt>
      <trkpt lat="44.26763" lon="6.62382">
        <ele>1965.6</ele>
        <time>2021-08-07T12:20:19Z</time>
      </trkpt>
      <trkpt lat="44.26758" lon="6.62385">
        <ele>1964.8</ele>
        <time>2021-08-07T12:20:20Z</time>
      </trkpt>
      <trkpt lat="44.26754" lon="6.62386">
        <ele>1963.6</ele>
        <time>2021-08-07T12:20:21Z</time>
      </trkpt>
      <trkpt lat="44.26749" lon="6.62385">
        <ele>1963.2</ele>
        <time>2021-08-07T12:20:22Z</time>
      </trkpt>
      <trkpt lat="44.26739" lon="6.62388">
        <ele>1962.4</ele>
        <time>2021-08-07T12:20:24Z</time>
      </trkpt>
      <trkpt lat="44.26732" lon="6.62399">
        <ele>1961.2</ele>
        <time>2021-08-07T12:20:26Z</time>
      </trkpt>
      <trkpt lat="44.26728" lon="6.62407">
        <ele>1960.4</ele>
        <time>2021-08-07T12:20:27Z</time>
      </trkpt>
      <trkpt lat="44.26723" lon="6.62415">
        <ele>1959.8</ele>
        <time>2021-08-07T12:20:28Z</time>
      </trkpt>
      <trkpt lat="44.26716" lon="6.62427">
        <ele>1958.4</ele>
        <time>2021-08-07T12:20:30Z</time>
      </trkpt>
      <trkpt lat="44.26707" lon="6.62433">
        <ele>1957.2</ele>
        <time>2021-08-07T12:20:32Z</time>
      </trkpt>
      <trkpt lat="44.26693" lon="6.62444">
        <ele>1956.2</ele>
        <time>2021-08-07T12:20:35Z</time>
      </trkpt>
      <trkpt lat="44.26683" lon="6.62448">
        <ele>1955.8</ele>
        <time>2021-08-07T12:20:37Z</time>
      </trkpt>
      <trkpt lat="44.26677" lon="6.62449">
        <ele>1955.4</ele>
        <time>2021-08-07T12:20:38Z</time>
      </trkpt>
      <trkpt lat="44.26672" lon="6.6245">
        <ele>1955</ele>
        <time>2021-08-07T12:20:39Z</time>
      </trkpt>
      <trkpt lat="44.26663" lon="6.6245">
        <ele>1954</ele>
        <time>2021-08-07T12:20:41Z</time>
      </trkpt>
      <trkpt lat="44.26658" lon="6.6245">
        <ele>1953.6</ele>
        <time>2021-08-07T12:20:42Z</time>
      </trkpt>
      <trkpt lat="44.26635" lon="6.62452">
        <ele>1952.2</ele>
        <time>2021-08-07T12:20:46Z</time>
      </trkpt>
      <trkpt lat="44.26628" lon="6.6245">
        <ele>1951.8</ele>
        <time>2021-08-07T12:20:47Z</time>
      </trkpt>
      <trkpt lat="44.26614" lon="6.62448">
        <ele>1950.8</ele>
        <time>2021-08-07T12:20:49Z</time>
      </trkpt>
      <trkpt lat="44.26599" lon="6.62447">
        <ele>1949.4</ele>
        <time>2021-08-07T12:20:51Z</time>
      </trkpt>
      <trkpt lat="44.26585" lon="6.6244">
        <ele>1948.2</ele>
        <time>2021-08-07T12:20:53Z</time>
      </trkpt>
      <trkpt lat="44.26575" lon="6.6243">
        <ele>1947</ele>
        <time>2021-08-07T12:20:55Z</time>
      </trkpt>
      <trkpt lat="44.26565" lon="6.62422">
        <ele>1945.4</ele>
        <time>2021-08-07T12:20:57Z</time>
      </trkpt>
      <trkpt lat="44.26553" lon="6.62419">
        <ele>1943.8</ele>
        <time>2021-08-07T12:20:59Z</time>
      </trkpt>
      <trkpt lat="44.26538" lon="6.6242">
        <ele>1942.6</ele>
        <time>2021-08-07T12:21:01Z</time>
      </trkpt>
      <trkpt lat="44.26525" lon="6.62422">
        <ele>1941</ele>
        <time>2021-08-07T12:21:03Z</time>
      </trkpt>
      <trkpt lat="44.26513" lon="6.62423">
        <ele>1940</ele>
        <time>2021-08-07T12:21:05Z</time>
      </trkpt>
      <trkpt lat="44.26501" lon="6.62425">
        <ele>1939.4</ele>
        <time>2021-08-07T12:21:07Z</time>
      </trkpt>
      <trkpt lat="44.26495" lon="6.62423">
        <ele>1938.8</ele>
        <time>2021-08-07T12:21:09Z</time>
      </trkpt>
      <trkpt lat="44.26493" lon="6.62424">
        <ele>1938.2</ele>
        <time>2021-08-07T12:21:10Z</time>
      </trkpt>
      <trkpt lat="44.26493" lon="6.62427">
        <ele>1937.4</ele>
        <time>2021-08-07T12:21:11Z</time>
      </trkpt>
      <trkpt lat="44.26496" lon="6.62436">
        <ele>1936</ele>
        <time>2021-08-07T12:21:14Z</time>
      </trkpt>
      <trkpt lat="44.26492" lon="6.62437">
        <ele>1934.8</ele>
        <time>2021-08-07T12:21:17Z</time>
      </trkpt>
      <trkpt lat="44.26492" lon="6.62435">
        <ele>1934</ele>
        <time>2021-08-07T12:21:27Z</time>
      </trkpt>
      <trkpt lat="44.26492" lon="6.62435">
        <ele>1933.8</ele>
        <time>2021-08-07T12:21:31Z</time>
      </trkpt>
      <trkpt lat="44.26492" lon="6.62435">
        <ele>1933</ele>
        <time>2021-08-07T12:21:37Z</time>
      </trkpt>
      <trkpt lat="44.26492" lon="6.62435">
        <ele>1932.8</ele>
        <time>2021-08-07T12:21:47Z</time>
      </trkpt>
      <trkpt lat="44.26492" lon="6.62435">
        <ele>1932.6</ele>
        <time>2021-08-07T12:21:48Z</time>
      </trkpt>
      <trkpt lat="44.26492" lon="6.62435">
        <ele>1931.8</ele>
        <time>2021-08-07T12:21:57Z</time>
      </trkpt>
      <trkpt lat="44.26492" lon="6.62435">
        <ele>1931.8</ele>
        <time>2021-08-07T12:22:02Z</time>
      </trkpt>
      <trkpt lat="44.26492" lon="6.62435">
        <ele>1931.8</ele>
        <time>2021-08-07T12:22:07Z</time>
      </trkpt>
      <trkpt lat="44.26492" lon="6.62436">
        <ele>1931.6</ele>
        <time>2021-08-07T12:22:10Z</time>
      </trkpt>
      <trkpt lat="44.26492" lon="6.62436">
        <ele>1931.6</ele>
        <time>2021-08-07T12:22:12Z</time>
      </trkpt>
      <trkpt lat="44.26492" lon="6.62436">
        <ele>1931.6</ele>
        <time>2021-08-07T12:22:13Z</time>
      </trkpt>
      <trkpt lat="44.26492" lon="6.62436">
        <ele>1931.6</ele>
        <time>2021-08-07T12:22:15Z</time>
      </trkpt>
      <trkpt lat="44.26492" lon="6.62436">
        <ele>1931.6</ele>
        <time>2021-08-07T12:22:17Z</time>
      </trkpt>
      <trkpt lat="44.26492" lon="6.62436">
        <ele>1932.6</ele>
        <time>2021-08-07T12:22:27Z</time>
      </trkpt>
      <trkpt lat="44.26492" lon="6.62436">
        <ele>1932.4</ele>
        <time>2021-08-07T12:22:28Z</time>
      </trkpt>
      <trkpt lat="44.26492" lon="6.62436">
        <ele>1932</ele>
        <time>2021-08-07T12:22:37Z</time>
      </trkpt>
      <trkpt lat="44.26492" lon="6.62436">
        <ele>1932.2</ele>
        <time>2021-08-07T12:22:39Z</time>
      </trkpt>
      <trkpt lat="44.26492" lon="6.62436">
        <ele>1932.6</ele>
        <time>2021-08-07T12:22:41Z</time>
      </trkpt>
      <trkpt lat="44.26492" lon="6.62436">
        <ele>1932.4</ele>
        <time>2021-08-07T12:22:47Z</time>
      </trkpt>
      <trkpt lat="44.26492" lon="6.62436">
        <ele>1931.4</ele>
        <time>2021-08-07T12:22:52Z</time>
      </trkpt>
      <trkpt lat="44.26492" lon="6.62436">
        <ele>1930.8</ele>
        <time>2021-08-07T12:22:57Z</time>
      </trkpt>
      <trkpt lat="44.26492" lon="6.62436">
        <ele>1930.6</ele>
        <time>2021-08-07T12:23:06Z</time>
      </trkpt>
      <trkpt lat="44.26492" lon="6.62436">
        <ele>1930.6</ele>
        <time>2021-08-07T12:23:07Z</time>
      </trkpt>
      <trkpt lat="44.26492" lon="6.62436">
        <ele>1930.4</ele>
        <time>2021-08-07T12:23:08Z</time>
      </trkpt>
      <trkpt lat="44.26492" lon="6.62436">
        <ele>1930.2</ele>
        <time>2021-08-07T12:23:17Z</time>
      </trkpt>
      <trkpt lat="44.26492" lon="6.62436">
        <ele>1930.2</ele>
        <time>2021-08-07T12:23:19Z</time>
      </trkpt>
      <trkpt lat="44.26492" lon="6.62436">
        <ele>1931.2</ele>
        <time>2021-08-07T12:23:25Z</time>
      </trkpt>
      <trkpt lat="44.26492" lon="6.62436">
        <ele>1931.6</ele>
        <time>2021-08-07T12:23:26Z</time>
      </trkpt>
      <trkpt lat="44.26492" lon="6.62436">
        <ele>1931.8</ele>
        <time>2021-08-07T12:23:27Z</time>
      </trkpt>
      <trkpt lat="44.26492" lon="6.62436">
        <ele>1932.4</ele>
        <time>2021-08-07T12:23:34Z</time>
      </trkpt>
      <trkpt lat="44.26492" lon="6.62436">
        <ele>1932.4</ele>
        <time>2021-08-07T12:23:37Z</time>
      </trkpt>
      <trkpt lat="44.26492" lon="6.62436">
        <ele>1932.6</ele>
        <time>2021-08-07T12:23:38Z</time>
      </trkpt>
      <trkpt lat="44.26492" lon="6.62436">
        <ele>1932.8</ele>
        <time>2021-08-07T12:23:40Z</time>
      </trkpt>
      <trkpt lat="44.26492" lon="6.62436">
        <ele>1932.6</ele>
        <time>2021-08-07T12:23:47Z</time>
      </trkpt>
      <trkpt lat="44.26492" lon="6.62436">
        <ele>1933.6</ele>
        <time>2021-08-07T12:23:55Z</time>
      </trkpt>
      <trkpt lat="44.26492" lon="6.62437">
        <ele>1933.8</ele>
        <time>2021-08-07T12:23:57Z</time>
      </trkpt>
      <trkpt lat="44.26492" lon="6.62437">
        <ele>1933.8</ele>
        <time>2021-08-07T12:24:07Z</time>
      </trkpt>
      <trkpt lat="44.26492" lon="6.62437">
        <ele>1933.4</ele>
        <time>2021-08-07T12:24:09Z</time>
      </trkpt>
      <trkpt lat="44.26492" lon="6.62437">
        <ele>1932.4</ele>
        <time>2021-08-07T12:24:13Z</time>
      </trkpt>
      <trkpt lat="44.26492" lon="6.62437">
        <ele>1933</ele>
        <time>2021-08-07T12:24:17Z</time>
      </trkpt>
      <trkpt lat="44.26492" lon="6.62437">
        <ele>1933.2</ele>
        <time>2021-08-07T12:24:18Z</time>
      </trkpt>
      <trkpt lat="44.26492" lon="6.62437">
        <ele>1933.6</ele>
        <time>2021-08-07T12:24:19Z</time>
      </trkpt>
      <trkpt lat="44.26492" lon="6.62437">
        <ele>1934</ele>
        <time>2021-08-07T12:24:20Z</time>
      </trkpt>
      <trkpt lat="44.26492" lon="6.62437">
        <ele>1934.4</ele>
        <time>2021-08-07T12:24:22Z</time>
      </trkpt>
      <trkpt lat="44.26492" lon="6.62437">
        <ele>1934.6</ele>
        <time>2021-08-07T12:24:24Z</time>
      </trkpt>
      <trkpt lat="44.26492" lon="6.62437">
        <ele>1934.4</ele>
        <time>2021-08-07T12:24:27Z</time>
      </trkpt>
      <trkpt lat="44.26492" lon="6.62437">
        <ele>1934</ele>
        <time>2021-08-07T12:24:30Z</time>
      </trkpt>
      <trkpt lat="44.26492" lon="6.62437">
        <ele>1933.8</ele>
        <time>2021-08-07T12:24:31Z</time>
      </trkpt>
      <trkpt lat="44.26492" lon="6.62437">
        <ele>1933.8</ele>
        <time>2021-08-07T12:24:32Z</time>
      </trkpt>
      <trkpt lat="44.26492" lon="6.62437">
        <ele>1933.8</ele>
        <time>2021-08-07T12:24:33Z</time>
      </trkpt>
      <trkpt lat="44.26492" lon="6.62437">
        <ele>1933.8</ele>
        <time>2021-08-07T12:24:34Z</time>
      </trkpt>
      <trkpt lat="44.26492" lon="6.62437">
        <ele>1934.2</ele>
        <time>2021-08-07T12:24:37Z</time>
      </trkpt>
      <trkpt lat="44.26492" lon="6.62437">
        <ele>1934.4</ele>
        <time>2021-08-07T12:24:45Z</time>
      </trkpt>
      <trkpt lat="44.26492" lon="6.62437">
        <ele>1934.4</ele>
        <time>2021-08-07T12:24:47Z</time>
      </trkpt>
      <trkpt lat="44.26492" lon="6.62437">
        <ele>1934</ele>
        <time>2021-08-07T12:24:50Z</time>
      </trkpt>
      <trkpt lat="44.26492" lon="6.62436">
        <ele>1934</ele>
        <time>2021-08-07T12:24:56Z</time>
      </trkpt>
      <trkpt lat="44.26492" lon="6.62436">
        <ele>1934</ele>
        <time>2021-08-07T12:24:57Z</time>
      </trkpt>
      <trkpt lat="44.26493" lon="6.62436">
        <ele>1933.8</ele>
        <time>2021-08-07T12:25:03Z</time>
      </trkpt>
      <trkpt lat="44.26493" lon="6.62436">
        <ele>1933.8</ele>
        <time>2021-08-07T12:25:04Z</time>
      </trkpt>
      <trkpt lat="44.26493" lon="6.62436">
        <ele>1933.8</ele>
        <time>2021-08-07T12:25:05Z</time>
      </trkpt>
      <trkpt lat="44.26493" lon="6.62436">
        <ele>1934.2</ele>
        <time>2021-08-07T12:25:07Z</time>
      </trkpt>
      <trkpt lat="44.26493" lon="6.62436">
        <ele>1934.8</ele>
        <time>2021-08-07T12:25:10Z</time>
      </trkpt>
      <trkpt lat="44.26493" lon="6.62436">
        <ele>1935.2</ele>
        <time>2021-08-07T12:25:13Z</time>
      </trkpt>
      <trkpt lat="44.26493" lon="6.62437">
        <ele>1935.2</ele>
        <time>2021-08-07T12:25:17Z</time>
      </trkpt>
      <trkpt lat="44.26492" lon="6.62437">
        <ele>1935</ele>
        <time>2021-08-07T12:25:19Z</time>
      </trkpt>
      <trkpt lat="44.26492" lon="6.62437">
        <ele>1934.8</ele>
        <time>2021-08-07T12:25:22Z</time>
      </trkpt>
      <trkpt lat="44.26491" lon="6.62437">
        <ele>1934.8</ele>
        <time>2021-08-07T12:25:23Z</time>
      </trkpt>
      <trkpt lat="44.26489" lon="6.62437">
        <ele>1934.4</ele>
        <time>2021-08-07T12:25:27Z</time>
      </trkpt>
      <trkpt lat="44.26488" lon="6.62438">
        <ele>1934.4</ele>
        <time>2021-08-07T12:25:28Z</time>
      </trkpt>
      <trkpt lat="44.26488" lon="6.62437">
        <ele>1934.4</ele>
        <time>2021-08-07T12:25:30Z</time>
      </trkpt>
      <trkpt lat="44.2649" lon="6.62438">
        <ele>1934.4</ele>
        <time>2021-08-07T12:25:37Z</time>
      </trkpt>
      <trkpt lat="44.26491" lon="6.62439">
        <ele>1934.4</ele>
        <time>2021-08-07T12:25:44Z</time>
      </trkpt>
      <trkpt lat="44.26492" lon="6.62438">
        <ele>1934.4</ele>
        <time>2021-08-07T12:25:47Z</time>
      </trkpt>
      <trkpt lat="44.26492" lon="6.62439">
        <ele>1934.4</ele>
        <time>2021-08-07T12:25:50Z</time>
      </trkpt>
      <trkpt lat="44.26492" lon="6.62439">
        <ele>1934.4</ele>
        <time>2021-08-07T12:25:51Z</time>
      </trkpt>
      <trkpt lat="44.26492" lon="6.62439">
        <ele>1934.4</ele>
        <time>2021-08-07T12:25:56Z</time>
      </trkpt>
      <trkpt lat="44.26492" lon="6.62439">
        <ele>1934.4</ele>
        <time>2021-08-07T12:25:57Z</time>
      </trkpt>
      <trkpt lat="44.26492" lon="6.62438">
        <ele>1934.4</ele>
        <time>2021-08-07T12:26:00Z</time>
      </trkpt>
      <trkpt lat="44.26492" lon="6.62438">
        <ele>1934.4</ele>
        <time>2021-08-07T12:26:01Z</time>
      </trkpt>
      <trkpt lat="44.26492" lon="6.62438">
        <ele>1934.4</ele>
        <time>2021-08-07T12:26:02Z</time>
      </trkpt>
      <trkpt lat="44.26492" lon="6.62438">
        <ele>1934.4</ele>
        <time>2021-08-07T12:26:07Z</time>
      </trkpt>
      <trkpt lat="44.26492" lon="6.62437">
        <ele>1934.4</ele>
        <time>2021-08-07T12:26:17Z</time>
      </trkpt>
      <trkpt lat="44.26493" lon="6.62437">
        <ele>1934.4</ele>
        <time>2021-08-07T12:26:21Z</time>
      </trkpt>
      <trkpt lat="44.26493" lon="6.62437">
        <ele>1934.4</ele>
        <time>2021-08-07T12:26:26Z</time>
      </trkpt>
      <trkpt lat="44.26493" lon="6.62437">
        <ele>1934.4</ele>
        <time>2021-08-07T12:26:27Z</time>
      </trkpt>
      <trkpt lat="44.26492" lon="6.62436">
        <ele>1934.4</ele>
        <time>2021-08-07T12:26:31Z</time>
      </trkpt>
      <trkpt lat="44.26493" lon="6.62436">
        <ele>1934.4</ele>
        <time>2021-08-07T12:26:37Z</time>
      </trkpt>
      <trkpt lat="44.26493" lon="6.62436">
        <ele>1934.4</ele>
        <time>2021-08-07T12:26:41Z</time>
      </trkpt>
      <trkpt lat="44.26493" lon="6.62436">
        <ele>1934.4</ele>
        <time>2021-08-07T12:26:43Z</time>
      </trkpt>
      <trkpt lat="44.26493" lon="6.62436">
        <ele>1934.4</ele>
        <time>2021-08-07T12:26:44Z</time>
      </trkpt>
      <trkpt lat="44.26493" lon="6.62436">
        <ele>1934.4</ele>
        <time>2021-08-07T12:26:45Z</time>
      </trkpt>
      <trkpt lat="44.26493" lon="6.62436">
        <ele>1934.4</ele>
        <time>2021-08-07T12:26:46Z</time>
      </trkpt>
      <trkpt lat="44.26493" lon="6.62436">
        <ele>1934.4</ele>
        <time>2021-08-07T12:26:47Z</time>
      </trkpt>
      <trkpt lat="44.26493" lon="6.62436">
        <ele>1934.4</ele>
        <time>2021-08-07T12:26:48Z</time>
      </trkpt>
      <trkpt lat="44.26493" lon="6.62436">
        <ele>1934.4</ele>
        <time>2021-08-07T12:26:56Z</time>
      </trkpt>
      <trkpt lat="44.26493" lon="6.62436">
        <ele>1934.4</ele>
        <time>2021-08-07T12:26:57Z</time>
      </trkpt>
      <trkpt lat="44.26493" lon="6.62436">
        <ele>1934.4</ele>
        <time>2021-08-07T12:27:05Z</time>
      </trkpt>
      <trkpt lat="44.26493" lon="6.62436">
        <ele>1934.4</ele>
        <time>2021-08-07T12:27:07Z</time>
      </trkpt>
      <trkpt lat="44.26493" lon="6.62436">
        <ele>1934.4</ele>
        <time>2021-08-07T12:27:12Z</time>
      </trkpt>
      <trkpt lat="44.26493" lon="6.62436">
        <ele>1934.4</ele>
        <time>2021-08-07T12:27:14Z</time>
      </trkpt>
      <trkpt lat="44.26493" lon="6.62436">
        <ele>1934.4</ele>
        <time>2021-08-07T12:27:17Z</time>
      </trkpt>
      <trkpt lat="44.26493" lon="6.62436">
        <ele>1934.4</ele>
        <time>2021-08-07T12:27:21Z</time>
      </trkpt>
      <trkpt lat="44.26493" lon="6.62436">
        <ele>1934.4</ele>
        <time>2021-08-07T12:27:27Z</time>
      </trkpt>
      <trkpt lat="44.26493" lon="6.62437">
        <ele>1934.4</ele>
        <time>2021-08-07T12:27:33Z</time>
      </trkpt>
      <trkpt lat="44.26493" lon="6.62437">
        <ele>1934.4</ele>
        <time>2021-08-07T12:27:37Z</time>
      </trkpt>
      <trkpt lat="44.26492" lon="6.62437">
        <ele>1934.4</ele>
        <time>2021-08-07T12:27:47Z</time>
      </trkpt>
      <trkpt lat="44.26493" lon="6.62436">
        <ele>1934.4</ele>
        <time>2021-08-07T12:27:57Z</time>
      </trkpt>
      <trkpt lat="44.26493" lon="6.62437">
        <ele>1934.4</ele>
        <time>2021-08-07T12:28:01Z</time>
      </trkpt>
      <trkpt lat="44.26493" lon="6.62437">
        <ele>1934.4</ele>
        <time>2021-08-07T12:28:07Z</time>
      </trkpt>
      <trkpt lat="44.26493" lon="6.62437">
        <ele>1934.4</ele>
        <time>2021-08-07T12:28:17Z</time>
      </trkpt>
      <trkpt lat="44.26493" lon="6.62437">
        <ele>1934.4</ele>
        <time>2021-08-07T12:28:19Z</time>
      </trkpt>
      <trkpt lat="44.26493" lon="6.62437">
        <ele>1934.4</ele>
        <time>2021-08-07T12:28:24Z</time>
      </trkpt>
      <trkpt lat="44.26493" lon="6.62437">
        <ele>1934.4</ele>
        <time>2021-08-07T12:28:27Z</time>
      </trkpt>
      <trkpt lat="44.26493" lon="6.62437">
        <ele>1934.4</ele>
        <time>2021-08-07T12:28:29Z</time>
      </trkpt>
      <trkpt lat="44.26493" lon="6.62437">
        <ele>1934.4</ele>
        <time>2021-08-07T12:28:30Z</time>
      </trkpt>
      <trkpt lat="44.26493" lon="6.62437">
        <ele>1934.4</ele>
        <time>2021-08-07T12:28:31Z</time>
      </trkpt>
      <trkpt lat="44.26493" lon="6.62437">
        <ele>1934.4</ele>
        <time>2021-08-07T12:28:33Z</time>
      </trkpt>
      <trkpt lat="44.26493" lon="6.62437">
        <ele>1934.4</ele>
        <time>2021-08-07T12:28:34Z</time>
      </trkpt>
      <trkpt lat="44.26493" lon="6.62437">
        <ele>1934.4</ele>
        <time>2021-08-07T12:28:36Z</time>
      </trkpt>
      <trkpt lat="44.26493" lon="6.62437">
        <ele>1934.4</ele>
        <time>2021-08-07T12:28:37Z</time>
      </trkpt>
      <trkpt lat="44.26493" lon="6.62438">
        <ele>1934.4</ele>
        <time>2021-08-07T12:28:42Z</time>
      </trkpt>
      <trkpt lat="44.26494" lon="6.62438">
        <ele>1934.4</ele>
        <time>2021-08-07T12:28:44Z</time>
      </trkpt>
      <trkpt lat="44.26494" lon="6.62439">
        <ele>1934.4</ele>
        <time>2021-08-07T12:28:47Z</time>
      </trkpt>
      <trkpt lat="44.26494" lon="6.62439">
        <ele>1934.4</ele>
        <time>2021-08-07T12:28:51Z</time>
      </trkpt>
      <trkpt lat="44.26494" lon="6.62439">
        <ele>1934.4</ele>
        <time>2021-08-07T12:28:52Z</time>
      </trkpt>
      <trkpt lat="44.26494" lon="6.62439">
        <ele>1934.4</ele>
        <time>2021-08-07T12:28:53Z</time>
      </trkpt>
      <trkpt lat="44.26494" lon="6.62439">
        <ele>1934.4</ele>
        <time>2021-08-07T12:28:54Z</time>
      </trkpt>
      <trkpt lat="44.26495" lon="6.62439">
        <ele>1934.4</ele>
        <time>2021-08-07T12:28:57Z</time>
      </trkpt>
      <trkpt lat="44.26495" lon="6.62439">
        <ele>1934.4</ele>
        <time>2021-08-07T12:29:07Z</time>
      </trkpt>
      <trkpt lat="44.26495" lon="6.62439">
        <ele>1934.4</ele>
        <time>2021-08-07T12:29:08Z</time>
      </trkpt>
      <trkpt lat="44.26494" lon="6.62437">
        <ele>1934.4</ele>
        <time>2021-08-07T12:29:17Z</time>
      </trkpt>
      <trkpt lat="44.26494" lon="6.62437">
        <ele>1934.4</ele>
        <time>2021-08-07T12:29:25Z</time>
      </trkpt>
      <trkpt lat="44.26494" lon="6.62437">
        <ele>1934.4</ele>
        <time>2021-08-07T12:29:27Z</time>
      </trkpt>
      <trkpt lat="44.26494" lon="6.62438">
        <ele>1934.4</ele>
        <time>2021-08-07T12:29:37Z</time>
      </trkpt>
      <trkpt lat="44.26494" lon="6.62438">
        <ele>1934.4</ele>
        <time>2021-08-07T12:29:47Z</time>
      </trkpt>
      <trkpt lat="44.26494" lon="6.62438">
        <ele>1934.4</ele>
        <time>2021-08-07T12:29:57Z</time>
      </trkpt>
      <trkpt lat="44.26495" lon="6.62438">
        <ele>1934.4</ele>
        <time>2021-08-07T12:30:07Z</time>
      </trkpt>
      <trkpt lat="44.26495" lon="6.62439">
        <ele>1934.4</ele>
        <time>2021-08-07T12:30:17Z</time>
      </trkpt>
      <trkpt lat="44.26495" lon="6.62438">
        <ele>1934.4</ele>
        <time>2021-08-07T12:30:18Z</time>
      </trkpt>
      <trkpt lat="44.26495" lon="6.62438">
        <ele>1934.4</ele>
        <time>2021-08-07T12:30:27Z</time>
      </trkpt>
      <trkpt lat="44.26496" lon="6.62439">
        <ele>1934.4</ele>
        <time>2021-08-07T12:30:37Z</time>
      </trkpt>
      <trkpt lat="44.26496" lon="6.62438">
        <ele>1934.4</ele>
        <time>2021-08-07T12:30:45Z</time>
      </trkpt>
      <trkpt lat="44.26496" lon="6.62437">
        <ele>1934.4</ele>
        <time>2021-08-07T12:30:47Z</time>
      </trkpt>
      <trkpt lat="44.26496" lon="6.62437">
        <ele>1934.4</ele>
        <time>2021-08-07T12:30:49Z</time>
      </trkpt>
      <trkpt lat="44.26495" lon="6.62436">
        <ele>1934.4</ele>
        <time>2021-08-07T12:30:57Z</time>
      </trkpt>
      <trkpt lat="44.26495" lon="6.62436">
        <ele>1934.4</ele>
        <time>2021-08-07T12:31:03Z</time>
      </trkpt>
      <trkpt lat="44.26495" lon="6.62436">
        <ele>1934.4</ele>
        <time>2021-08-07T12:31:07Z</time>
      </trkpt>
      <trkpt lat="44.26496" lon="6.62437">
        <ele>1934.4</ele>
        <time>2021-08-07T12:31:17Z</time>
      </trkpt>
      <trkpt lat="44.265" lon="6.62435">
        <ele>1934.4</ele>
        <time>2021-08-07T12:31:22Z</time>
      </trkpt>
      <trkpt lat="44.26491" lon="6.62436">
        <ele>1937.2</ele>
        <time>2021-08-07T12:35:35Z</time>
      </trkpt>
      <trkpt lat="44.2649" lon="6.62435">
        <ele>1937.2</ele>
        <time>2021-08-07T12:35:37Z</time>
      </trkpt>
      <trkpt lat="44.26488" lon="6.62435">
        <ele>1937</ele>
        <time>2021-08-07T12:35:39Z</time>
      </trkpt>
      <trkpt lat="44.26482" lon="6.62436">
        <ele>1937</ele>
        <time>2021-08-07T12:35:41Z</time>
      </trkpt>
      <trkpt lat="44.26472" lon="6.62449">
        <ele>1936</ele>
        <time>2021-08-07T12:35:45Z</time>
      </trkpt>
      <trkpt lat="44.26475" lon="6.62456">
        <ele>1934.6</ele>
        <time>2021-08-07T12:35:47Z</time>
      </trkpt>
      <trkpt lat="44.26475" lon="6.62461">
        <ele>1933.8</ele>
        <time>2021-08-07T12:35:48Z</time>
      </trkpt>
      <trkpt lat="44.26473" lon="6.62465">
        <ele>1933.2</ele>
        <time>2021-08-07T12:35:49Z</time>
      </trkpt>
      <trkpt lat="44.26469" lon="6.62468">
        <ele>1932.4</ele>
        <time>2021-08-07T12:35:50Z</time>
      </trkpt>
      <trkpt lat="44.26465" lon="6.62467">
        <ele>1931.8</ele>
        <time>2021-08-07T12:35:51Z</time>
      </trkpt>
      <trkpt lat="44.26461" lon="6.62466">
        <ele>1931</ele>
        <time>2021-08-07T12:35:52Z</time>
      </trkpt>
      <trkpt lat="44.26461" lon="6.62468">
        <ele>1930.4</ele>
        <time>2021-08-07T12:35:53Z</time>
      </trkpt>
      <trkpt lat="44.26462" lon="6.6248">
        <ele>1929</ele>
        <time>2021-08-07T12:35:55Z</time>
      </trkpt>
      <trkpt lat="44.26468" lon="6.62491">
        <ele>1927.6</ele>
        <time>2021-08-07T12:35:57Z</time>
      </trkpt>
      <trkpt lat="44.26472" lon="6.625">
        <ele>1925.8</ele>
        <time>2021-08-07T12:35:59Z</time>
      </trkpt>
      <trkpt lat="44.26464" lon="6.62506">
        <ele>1924</ele>
        <time>2021-08-07T12:36:01Z</time>
      </trkpt>
      <trkpt lat="44.26459" lon="6.62508">
        <ele>1922.8</ele>
        <time>2021-08-07T12:36:03Z</time>
      </trkpt>
      <trkpt lat="44.26455" lon="6.6251">
        <ele>1921.6</ele>
        <time>2021-08-07T12:36:05Z</time>
      </trkpt>
      <trkpt lat="44.26451" lon="6.62509">
        <ele>1921</ele>
        <time>2021-08-07T12:36:06Z</time>
      </trkpt>
      <trkpt lat="44.26448" lon="6.62507">
        <ele>1920.2</ele>
        <time>2021-08-07T12:36:07Z</time>
      </trkpt>
      <trkpt lat="44.26445" lon="6.62508">
        <ele>1919.2</ele>
        <time>2021-08-07T12:36:08Z</time>
      </trkpt>
      <trkpt lat="44.26444" lon="6.6251">
        <ele>1918.4</ele>
        <time>2021-08-07T12:36:09Z</time>
      </trkpt>
      <trkpt lat="44.26447" lon="6.62518">
        <ele>1917</ele>
        <time>2021-08-07T12:36:11Z</time>
      </trkpt>
      <trkpt lat="44.26445" lon="6.62525">
        <ele>1915.8</ele>
        <time>2021-08-07T12:36:13Z</time>
      </trkpt>
      <trkpt lat="44.26441" lon="6.62527">
        <ele>1914.4</ele>
        <time>2021-08-07T12:36:15Z</time>
      </trkpt>
      <trkpt lat="44.26441" lon="6.6253">
        <ele>1913.6</ele>
        <time>2021-08-07T12:36:16Z</time>
      </trkpt>
      <trkpt lat="44.26442" lon="6.62533">
        <ele>1913</ele>
        <time>2021-08-07T12:36:17Z</time>
      </trkpt>
      <trkpt lat="44.26442" lon="6.62536">
        <ele>1912.4</ele>
        <time>2021-08-07T12:36:18Z</time>
      </trkpt>
      <trkpt lat="44.26444" lon="6.62541">
        <ele>1911.6</ele>
        <time>2021-08-07T12:36:19Z</time>
      </trkpt>
      <trkpt lat="44.26447" lon="6.62548">
        <ele>1910.6</ele>
        <time>2021-08-07T12:36:20Z</time>
      </trkpt>
      <trkpt lat="44.26451" lon="6.62554">
        <ele>1909.8</ele>
        <time>2021-08-07T12:36:21Z</time>
      </trkpt>
      <trkpt lat="44.26462" lon="6.62567">
        <ele>1908.2</ele>
        <time>2021-08-07T12:36:23Z</time>
      </trkpt>
      <trkpt lat="44.26467" lon="6.62573">
        <ele>1907.6</ele>
        <time>2021-08-07T12:36:24Z</time>
      </trkpt>
      <trkpt lat="44.26473" lon="6.62577">
        <ele>1907.2</ele>
        <time>2021-08-07T12:36:25Z</time>
      </trkpt>
      <trkpt lat="44.26478" lon="6.6258">
        <ele>1906.2</ele>
        <time>2021-08-07T12:36:26Z</time>
      </trkpt>
      <trkpt lat="44.26483" lon="6.62581">
        <ele>1905.4</ele>
        <time>2021-08-07T12:36:27Z</time>
      </trkpt>
      <trkpt lat="44.2649" lon="6.62581">
        <ele>1904.4</ele>
        <time>2021-08-07T12:36:28Z</time>
      </trkpt>
      <trkpt lat="44.26492" lon="6.62584">
        <ele>1903.6</ele>
        <time>2021-08-07T12:36:29Z</time>
      </trkpt>
      <trkpt lat="44.26481" lon="6.62588">
        <ele>1902.2</ele>
        <time>2021-08-07T12:36:32Z</time>
      </trkpt>
      <trkpt lat="44.26475" lon="6.62589">
        <ele>1901.8</ele>
        <time>2021-08-07T12:36:33Z</time>
      </trkpt>
      <trkpt lat="44.26468" lon="6.6259">
        <ele>1901.2</ele>
        <time>2021-08-07T12:36:34Z</time>
      </trkpt>
      <trkpt lat="44.26455" lon="6.62594">
        <ele>1900</ele>
        <time>2021-08-07T12:36:36Z</time>
      </trkpt>
      <trkpt lat="44.26448" lon="6.62597">
        <ele>1899.8</ele>
        <time>2021-08-07T12:36:37Z</time>
      </trkpt>
      <trkpt lat="44.2644" lon="6.62602">
        <ele>1899.4</ele>
        <time>2021-08-07T12:36:38Z</time>
      </trkpt>
      <trkpt lat="44.26425" lon="6.6261">
        <ele>1898</ele>
        <time>2021-08-07T12:36:40Z</time>
      </trkpt>
      <trkpt lat="44.26418" lon="6.62613">
        <ele>1896.8</ele>
        <time>2021-08-07T12:36:41Z</time>
      </trkpt>
      <trkpt lat="44.26411" lon="6.62613">
        <ele>1895.6</ele>
        <time>2021-08-07T12:36:42Z</time>
      </trkpt>
      <trkpt lat="44.26404" lon="6.62612">
        <ele>1894.4</ele>
        <time>2021-08-07T12:36:43Z</time>
      </trkpt>
      <trkpt lat="44.26397" lon="6.6261">
        <ele>1893.4</ele>
        <time>2021-08-07T12:36:44Z</time>
      </trkpt>
      <trkpt lat="44.26389" lon="6.62611">
        <ele>1892</ele>
        <time>2021-08-07T12:36:45Z</time>
      </trkpt>
      <trkpt lat="44.26382" lon="6.62612">
        <ele>1890.6</ele>
        <time>2021-08-07T12:36:46Z</time>
      </trkpt>
      <trkpt lat="44.26377" lon="6.62613">
        <ele>1889.4</ele>
        <time>2021-08-07T12:36:47Z</time>
      </trkpt>
      <trkpt lat="44.26374" lon="6.62614">
        <ele>1888.4</ele>
        <time>2021-08-07T12:36:48Z</time>
      </trkpt>
      <trkpt lat="44.26374" lon="6.62619">
        <ele>1887.4</ele>
        <time>2021-08-07T12:36:49Z</time>
      </trkpt>
      <trkpt lat="44.26382" lon="6.62625">
        <ele>1885.6</ele>
        <time>2021-08-07T12:36:51Z</time>
      </trkpt>
      <trkpt lat="44.26392" lon="6.62632">
        <ele>1884</ele>
        <time>2021-08-07T12:36:53Z</time>
      </trkpt>
      <trkpt lat="44.26403" lon="6.62638">
        <ele>1882</ele>
        <time>2021-08-07T12:36:55Z</time>
      </trkpt>
      <trkpt lat="44.26405" lon="6.62643">
        <ele>1881</ele>
        <time>2021-08-07T12:36:56Z</time>
      </trkpt>
      <trkpt lat="44.26403" lon="6.62646">
        <ele>1880.2</ele>
        <time>2021-08-07T12:36:57Z</time>
      </trkpt>
      <trkpt lat="44.26397" lon="6.6265">
        <ele>1879</ele>
        <time>2021-08-07T12:36:59Z</time>
      </trkpt>
      <trkpt lat="44.26386" lon="6.62655">
        <ele>1878</ele>
        <time>2021-08-07T12:37:01Z</time>
      </trkpt>
      <trkpt lat="44.26373" lon="6.62653">
        <ele>1876.4</ele>
        <time>2021-08-07T12:37:03Z</time>
      </trkpt>
      <trkpt lat="44.26365" lon="6.62653">
        <ele>1875.2</ele>
        <time>2021-08-07T12:37:04Z</time>
      </trkpt>
      <trkpt lat="44.26357" lon="6.62651">
        <ele>1874</ele>
        <time>2021-08-07T12:37:05Z</time>
      </trkpt>
      <trkpt lat="44.26349" lon="6.62651">
        <ele>1872.6</ele>
        <time>2021-08-07T12:37:06Z</time>
      </trkpt>
      <trkpt lat="44.26341" lon="6.62651">
        <ele>1871.4</ele>
        <time>2021-08-07T12:37:07Z</time>
      </trkpt>
      <trkpt lat="44.26324" lon="6.6265">
        <ele>1869.6</ele>
        <time>2021-08-07T12:37:09Z</time>
      </trkpt>
      <trkpt lat="44.26316" lon="6.6265">
        <ele>1868.4</ele>
        <time>2021-08-07T12:37:10Z</time>
      </trkpt>
      <trkpt lat="44.26307" lon="6.6265">
        <ele>1867.2</ele>
        <time>2021-08-07T12:37:11Z</time>
      </trkpt>
      <trkpt lat="44.26292" lon="6.62649">
        <ele>1865</ele>
        <time>2021-08-07T12:37:13Z</time>
      </trkpt>
      <trkpt lat="44.26283" lon="6.62646">
        <ele>1863.8</ele>
        <time>2021-08-07T12:37:14Z</time>
      </trkpt>
      <trkpt lat="44.26275" lon="6.62643">
        <ele>1862.4</ele>
        <time>2021-08-07T12:37:15Z</time>
      </trkpt>
      <trkpt lat="44.26266" lon="6.6264">
        <ele>1860.8</ele>
        <time>2021-08-07T12:37:16Z</time>
      </trkpt>
      <trkpt lat="44.26258" lon="6.62638">
        <ele>1859.2</ele>
        <time>2021-08-07T12:37:17Z</time>
      </trkpt>
      <trkpt lat="44.2625" lon="6.62635">
        <ele>1857.4</ele>
        <time>2021-08-07T12:37:18Z</time>
      </trkpt>
      <trkpt lat="44.26244" lon="6.62632">
        <ele>1856</ele>
        <time>2021-08-07T12:37:19Z</time>
      </trkpt>
      <trkpt lat="44.2624" lon="6.6263">
        <ele>1854</ele>
        <time>2021-08-07T12:37:20Z</time>
      </trkpt>
      <trkpt lat="44.26237" lon="6.62628">
        <ele>1852.2</ele>
        <time>2021-08-07T12:37:21Z</time>
      </trkpt>
      <trkpt lat="44.26236" lon="6.62627">
        <ele>1850.6</ele>
        <time>2021-08-07T12:37:22Z</time>
      </trkpt>
      <trkpt lat="44.26237" lon="6.62627">
        <ele>1849.6</ele>
        <time>2021-08-07T12:37:24Z</time>
      </trkpt>
      <trkpt lat="44.26236" lon="6.62624">
        <ele>1848.8</ele>
        <time>2021-08-07T12:37:27Z</time>
      </trkpt>
      <trkpt lat="44.26236" lon="6.62623">
        <ele>1848.4</ele>
        <time>2021-08-07T12:37:34Z</time>
      </trkpt>
      <trkpt lat="44.26236" lon="6.62623">
        <ele>1847.8</ele>
        <time>2021-08-07T12:37:37Z</time>
      </trkpt>
      <trkpt lat="44.26236" lon="6.62622">
        <ele>1847.4</ele>
        <time>2021-08-07T12:37:43Z</time>
      </trkpt>
      <trkpt lat="44.26236" lon="6.62622">
        <ele>1847</ele>
        <time>2021-08-07T12:37:47Z</time>
      </trkpt>
      <trkpt lat="44.26236" lon="6.62622">
        <ele>1846.8</ele>
        <time>2021-08-07T12:37:57Z</time>
      </trkpt>
      <trkpt lat="44.26236" lon="6.62622">
        <ele>1846.8</ele>
        <time>2021-08-07T12:38:07Z</time>
      </trkpt>
      <trkpt lat="44.26237" lon="6.62622">
        <ele>1847</ele>
        <time>2021-08-07T12:38:17Z</time>
      </trkpt>
      <trkpt lat="44.26237" lon="6.62623">
        <ele>1848</ele>
        <time>2021-08-07T12:38:33Z</time>
      </trkpt>
      <trkpt lat="44.26238" lon="6.62622">
        <ele>1847.6</ele>
        <time>2021-08-07T12:38:37Z</time>
      </trkpt>
      <trkpt lat="44.26235" lon="6.62619">
        <ele>1847.4</ele>
        <time>2021-08-07T12:38:40Z</time>
      </trkpt>
      <trkpt lat="44.26227" lon="6.62615">
        <ele>1846.8</ele>
        <time>2021-08-07T12:38:42Z</time>
      </trkpt>
      <trkpt lat="44.26222" lon="6.62613">
        <ele>1846.4</ele>
        <time>2021-08-07T12:38:43Z</time>
      </trkpt>
      <trkpt lat="44.26211" lon="6.62608">
        <ele>1845</ele>
        <time>2021-08-07T12:38:45Z</time>
      </trkpt>
      <trkpt lat="44.26198" lon="6.62602">
        <ele>1843</ele>
        <time>2021-08-07T12:38:47Z</time>
      </trkpt>
      <trkpt lat="44.26184" lon="6.62593">
        <ele>1841.4</ele>
        <time>2021-08-07T12:38:49Z</time>
      </trkpt>
      <trkpt lat="44.26172" lon="6.62583">
        <ele>1840</ele>
        <time>2021-08-07T12:38:51Z</time>
      </trkpt>
      <trkpt lat="44.26163" lon="6.62574">
        <ele>1838.6</ele>
        <time>2021-08-07T12:38:53Z</time>
      </trkpt>
      <trkpt lat="44.26157" lon="6.62568">
        <ele>1837.2</ele>
        <time>2021-08-07T12:38:55Z</time>
      </trkpt>
      <trkpt lat="44.26154" lon="6.62565">
        <ele>1836.2</ele>
        <time>2021-08-07T12:38:56Z</time>
      </trkpt>
      <trkpt lat="44.2615" lon="6.62561">
        <ele>1835</ele>
        <time>2021-08-07T12:38:57Z</time>
      </trkpt>
      <trkpt lat="44.26146" lon="6.62557">
        <ele>1833.8</ele>
        <time>2021-08-07T12:38:58Z</time>
      </trkpt>
      <trkpt lat="44.26141" lon="6.62552">
        <ele>1832.8</ele>
        <time>2021-08-07T12:38:59Z</time>
      </trkpt>
      <trkpt lat="44.26137" lon="6.62548">
        <ele>1831.6</ele>
        <time>2021-08-07T12:39:00Z</time>
      </trkpt>
      <trkpt lat="44.2613" lon="6.62539">
        <ele>1830.6</ele>
        <time>2021-08-07T12:39:02Z</time>
      </trkpt>
      <trkpt lat="44.26124" lon="6.62528">
        <ele>1829</ele>
        <time>2021-08-07T12:39:04Z</time>
      </trkpt>
      <trkpt lat="44.26121" lon="6.62522">
        <ele>1828</ele>
        <time>2021-08-07T12:39:05Z</time>
      </trkpt>
      <trkpt lat="44.26118" lon="6.62516">
        <ele>1827</ele>
        <time>2021-08-07T12:39:06Z</time>
      </trkpt>
      <trkpt lat="44.26116" lon="6.62511">
        <ele>1826.4</ele>
        <time>2021-08-07T12:39:07Z</time>
      </trkpt>
      <trkpt lat="44.26109" lon="6.62498">
        <ele>1825.2</ele>
        <time>2021-08-07T12:39:10Z</time>
      </trkpt>
      <trkpt lat="44.26109" lon="6.62485">
        <ele>1824.2</ele>
        <time>2021-08-07T12:39:13Z</time>
      </trkpt>
      <trkpt lat="44.26109" lon="6.62483">
        <ele>1823.6</ele>
        <time>2021-08-07T12:39:14Z</time>
      </trkpt>
      <trkpt lat="44.2611" lon="6.62483">
        <ele>1822.6</ele>
        <time>2021-08-07T12:39:17Z</time>
      </trkpt>
      <trkpt lat="44.2611" lon="6.62482">
        <ele>1822.6</ele>
        <time>2021-08-07T12:39:18Z</time>
      </trkpt>
      <trkpt lat="44.26111" lon="6.62482">
        <ele>1822.6</ele>
        <time>2021-08-07T12:39:22Z</time>
      </trkpt>
      <trkpt lat="44.26111" lon="6.62482">
        <ele>1822.4</ele>
        <time>2021-08-07T12:39:25Z</time>
      </trkpt>
      <trkpt lat="44.26111" lon="6.62482">
        <ele>1822.2</ele>
        <time>2021-08-07T12:39:27Z</time>
      </trkpt>
      <trkpt lat="44.26111" lon="6.62482">
        <ele>1822</ele>
        <time>2021-08-07T12:39:31Z</time>
      </trkpt>
      <trkpt lat="44.2611" lon="6.62482">
        <ele>1821.4</ele>
        <time>2021-08-07T12:39:34Z</time>
      </trkpt>
      <trkpt lat="44.2611" lon="6.62482">
        <ele>1821.2</ele>
        <time>2021-08-07T12:39:37Z</time>
      </trkpt>
      <trkpt lat="44.2611" lon="6.62482">
        <ele>1822</ele>
        <time>2021-08-07T12:39:47Z</time>
      </trkpt>
      <trkpt lat="44.2611" lon="6.62483">
        <ele>1821.8</ele>
        <time>2021-08-07T12:39:56Z</time>
      </trkpt>
      <trkpt lat="44.26109" lon="6.62483">
        <ele>1821.8</ele>
        <time>2021-08-07T12:39:57Z</time>
      </trkpt>
      <trkpt lat="44.26109" lon="6.62485">
        <ele>1822.4</ele>
        <time>2021-08-07T12:40:01Z</time>
      </trkpt>
      <trkpt lat="44.26109" lon="6.62485">
        <ele>1822.8</ele>
        <time>2021-08-07T12:40:03Z</time>
      </trkpt>
      <trkpt lat="44.26102" lon="6.62483">
        <ele>1820.2</ele>
        <time>2021-08-07T12:49:12Z</time>
      </trkpt>
      <trkpt lat="44.26102" lon="6.62484">
        <ele>1820</ele>
        <time>2021-08-07T12:49:17Z</time>
      </trkpt>
      <trkpt lat="44.26101" lon="6.62484">
        <ele>1820.2</ele>
        <time>2021-08-07T12:49:19Z</time>
      </trkpt>
      <trkpt lat="44.26098" lon="6.62489">
        <ele>1820.2</ele>
        <time>2021-08-07T12:49:21Z</time>
      </trkpt>
      <trkpt lat="44.26097" lon="6.62496">
        <ele>1819.4</ele>
        <time>2021-08-07T12:49:23Z</time>
      </trkpt>
      <trkpt lat="44.26095" lon="6.62508">
        <ele>1817.8</ele>
        <time>2021-08-07T12:49:25Z</time>
      </trkpt>
      <trkpt lat="44.26093" lon="6.62522">
        <ele>1816.6</ele>
        <time>2021-08-07T12:49:27Z</time>
      </trkpt>
      <trkpt lat="44.26089" lon="6.62542">
        <ele>1815.4</ele>
        <time>2021-08-07T12:49:30Z</time>
      </trkpt>
      <trkpt lat="44.26083" lon="6.62571">
        <ele>1814.2</ele>
        <time>2021-08-07T12:49:34Z</time>
      </trkpt>
      <trkpt lat="44.26082" lon="6.62594">
        <ele>1812.6</ele>
        <time>2021-08-07T12:49:37Z</time>
      </trkpt>
      <trkpt lat="44.26085" lon="6.6261">
        <ele>1810.8</ele>
        <time>2021-08-07T12:49:39Z</time>
      </trkpt>
      <trkpt lat="44.26088" lon="6.62616">
        <ele>1809.4</ele>
        <time>2021-08-07T12:49:40Z</time>
      </trkpt>
      <trkpt lat="44.26091" lon="6.6262">
        <ele>1808.2</ele>
        <time>2021-08-07T12:49:41Z</time>
      </trkpt>
      <trkpt lat="44.26093" lon="6.62625">
        <ele>1807.4</ele>
        <time>2021-08-07T12:49:42Z</time>
      </trkpt>
      <trkpt lat="44.26093" lon="6.62628">
        <ele>1806.8</ele>
        <time>2021-08-07T12:49:43Z</time>
      </trkpt>
      <trkpt lat="44.26089" lon="6.62628">
        <ele>1806.2</ele>
        <time>2021-08-07T12:49:44Z</time>
      </trkpt>
      <trkpt lat="44.26085" lon="6.62625">
        <ele>1805.8</ele>
        <time>2021-08-07T12:49:45Z</time>
      </trkpt>
      <trkpt lat="44.26082" lon="6.6262">
        <ele>1805.6</ele>
        <time>2021-08-07T12:49:46Z</time>
      </trkpt>
      <trkpt lat="44.26078" lon="6.62616">
        <ele>1804.8</ele>
        <time>2021-08-07T12:49:47Z</time>
      </trkpt>
      <trkpt lat="44.26074" lon="6.62613">
        <ele>1804</ele>
        <time>2021-08-07T12:49:48Z</time>
      </trkpt>
      <trkpt lat="44.2607" lon="6.62612">
        <ele>1802.8</ele>
        <time>2021-08-07T12:49:49Z</time>
      </trkpt>
      <trkpt lat="44.26059" lon="6.6261">
        <ele>1800.8</ele>
        <time>2021-08-07T12:49:51Z</time>
      </trkpt>
      <trkpt lat="44.26054" lon="6.62609">
        <ele>1799.8</ele>
        <time>2021-08-07T12:49:52Z</time>
      </trkpt>
      <trkpt lat="44.26049" lon="6.62609">
        <ele>1798.4</ele>
        <time>2021-08-07T12:49:53Z</time>
      </trkpt>
      <trkpt lat="44.26044" lon="6.62609">
        <ele>1797.6</ele>
        <time>2021-08-07T12:49:54Z</time>
      </trkpt>
      <trkpt lat="44.26038" lon="6.62609">
        <ele>1796.8</ele>
        <time>2021-08-07T12:49:55Z</time>
      </trkpt>
      <trkpt lat="44.26026" lon="6.62609">
        <ele>1795.4</ele>
        <time>2021-08-07T12:49:57Z</time>
      </trkpt>
      <trkpt lat="44.26019" lon="6.6261">
        <ele>1794</ele>
        <time>2021-08-07T12:49:58Z</time>
      </trkpt>
      <trkpt lat="44.26012" lon="6.62611">
        <ele>1792.4</ele>
        <time>2021-08-07T12:49:59Z</time>
      </trkpt>
      <trkpt lat="44.26005" lon="6.62613">
        <ele>1790.8</ele>
        <time>2021-08-07T12:50:00Z</time>
      </trkpt>
      <trkpt lat="44.25998" lon="6.62615">
        <ele>1789.6</ele>
        <time>2021-08-07T12:50:01Z</time>
      </trkpt>
      <trkpt lat="44.25992" lon="6.62618">
        <ele>1788.8</ele>
        <time>2021-08-07T12:50:02Z</time>
      </trkpt>
      <trkpt lat="44.25987" lon="6.62618">
        <ele>1788</ele>
        <time>2021-08-07T12:50:03Z</time>
      </trkpt>
      <trkpt lat="44.25983" lon="6.62618">
        <ele>1787.2</ele>
        <time>2021-08-07T12:50:04Z</time>
      </trkpt>
      <trkpt lat="44.2598" lon="6.62618">
        <ele>1786.2</ele>
        <time>2021-08-07T12:50:05Z</time>
      </trkpt>
      <trkpt lat="44.2598" lon="6.62623">
        <ele>1784.8</ele>
        <time>2021-08-07T12:50:07Z</time>
      </trkpt>
      <trkpt lat="44.25982" lon="6.62626">
        <ele>1783.8</ele>
        <time>2021-08-07T12:50:08Z</time>
      </trkpt>
      <trkpt lat="44.25985" lon="6.62628">
        <ele>1783</ele>
        <time>2021-08-07T12:50:09Z</time>
      </trkpt>
      <trkpt lat="44.25989" lon="6.62629">
        <ele>1782.4</ele>
        <time>2021-08-07T12:50:10Z</time>
      </trkpt>
      <trkpt lat="44.25994" lon="6.6263">
        <ele>1782</ele>
        <time>2021-08-07T12:50:11Z</time>
      </trkpt>
      <trkpt lat="44.26" lon="6.62631">
        <ele>1781.4</ele>
        <time>2021-08-07T12:50:12Z</time>
      </trkpt>
      <trkpt lat="44.26005" lon="6.62632">
        <ele>1780.8</ele>
        <time>2021-08-07T12:50:13Z</time>
      </trkpt>
      <trkpt lat="44.26011" lon="6.62634">
        <ele>1780.4</ele>
        <time>2021-08-07T12:50:14Z</time>
      </trkpt>
      <trkpt lat="44.26018" lon="6.62637">
        <ele>1779.8</ele>
        <time>2021-08-07T12:50:15Z</time>
      </trkpt>
      <trkpt lat="44.26024" lon="6.62642">
        <ele>1779.4</ele>
        <time>2021-08-07T12:50:16Z</time>
      </trkpt>
      <trkpt lat="44.26029" lon="6.62648">
        <ele>1779</ele>
        <time>2021-08-07T12:50:17Z</time>
      </trkpt>
      <trkpt lat="44.26035" lon="6.62654">
        <ele>1778.8</ele>
        <time>2021-08-07T12:50:18Z</time>
      </trkpt>
      <trkpt lat="44.26041" lon="6.62661">
        <ele>1778</ele>
        <time>2021-08-07T12:50:19Z</time>
      </trkpt>
      <trkpt lat="44.26046" lon="6.6267">
        <ele>1777</ele>
        <time>2021-08-07T12:50:20Z</time>
      </trkpt>
      <trkpt lat="44.2605" lon="6.62679">
        <ele>1775.8</ele>
        <time>2021-08-07T12:50:21Z</time>
      </trkpt>
      <trkpt lat="44.26054" lon="6.62688">
        <ele>1774.8</ele>
        <time>2021-08-07T12:50:22Z</time>
      </trkpt>
      <trkpt lat="44.26055" lon="6.62696">
        <ele>1774</ele>
        <time>2021-08-07T12:50:23Z</time>
      </trkpt>
      <trkpt lat="44.26053" lon="6.62703">
        <ele>1773.2</ele>
        <time>2021-08-07T12:50:24Z</time>
      </trkpt>
      <trkpt lat="44.26051" lon="6.62711">
        <ele>1772.6</ele>
        <time>2021-08-07T12:50:25Z</time>
      </trkpt>
      <trkpt lat="44.26047" lon="6.62726">
        <ele>1771</ele>
        <time>2021-08-07T12:50:27Z</time>
      </trkpt>
      <trkpt lat="44.26045" lon="6.62733">
        <ele>1770</ele>
        <time>2021-08-07T12:50:28Z</time>
      </trkpt>
      <trkpt lat="44.26044" lon="6.62739">
        <ele>1769.2</ele>
        <time>2021-08-07T12:50:29Z</time>
      </trkpt>
      <trkpt lat="44.26043" lon="6.62745">
        <ele>1768.4</ele>
        <time>2021-08-07T12:50:30Z</time>
      </trkpt>
      <trkpt lat="44.26044" lon="6.6275">
        <ele>1767.8</ele>
        <time>2021-08-07T12:50:31Z</time>
      </trkpt>
      <trkpt lat="44.2605" lon="6.62763">
        <ele>1766.8</ele>
        <time>2021-08-07T12:50:34Z</time>
      </trkpt>
      <trkpt lat="44.26052" lon="6.62766">
        <ele>1766.2</ele>
        <time>2021-08-07T12:50:35Z</time>
      </trkpt>
      <trkpt lat="44.26052" lon="6.62768">
        <ele>1765.6</ele>
        <time>2021-08-07T12:50:36Z</time>
      </trkpt>
      <trkpt lat="44.2605" lon="6.62768">
        <ele>1765</ele>
        <time>2021-08-07T12:50:37Z</time>
      </trkpt>
      <trkpt lat="44.26048" lon="6.62767">
        <ele>1764.2</ele>
        <time>2021-08-07T12:50:38Z</time>
      </trkpt>
      <trkpt lat="44.26044" lon="6.62763">
        <ele>1762.8</ele>
        <time>2021-08-07T12:50:40Z</time>
      </trkpt>
      <trkpt lat="44.26034" lon="6.62758">
        <ele>1761.4</ele>
        <time>2021-08-07T12:50:43Z</time>
      </trkpt>
      <trkpt lat="44.26024" lon="6.6276">
        <ele>1760</ele>
        <time>2021-08-07T12:50:45Z</time>
      </trkpt>
      <trkpt lat="44.26018" lon="6.62764">
        <ele>1758</ele>
        <time>2021-08-07T12:50:47Z</time>
      </trkpt>
      <trkpt lat="44.26016" lon="6.62767">
        <ele>1757</ele>
        <time>2021-08-07T12:50:48Z</time>
      </trkpt>
      <trkpt lat="44.26016" lon="6.6277">
        <ele>1756.6</ele>
        <time>2021-08-07T12:50:49Z</time>
      </trkpt>
      <trkpt lat="44.26016" lon="6.62774">
        <ele>1756</ele>
        <time>2021-08-07T12:50:50Z</time>
      </trkpt>
      <trkpt lat="44.26016" lon="6.62778">
        <ele>1755.4</ele>
        <time>2021-08-07T12:50:51Z</time>
      </trkpt>
      <trkpt lat="44.26012" lon="6.62785">
        <ele>1754.2</ele>
        <time>2021-08-07T12:50:53Z</time>
      </trkpt>
      <trkpt lat="44.26002" lon="6.62785">
        <ele>1752.8</ele>
        <time>2021-08-07T12:50:56Z</time>
      </trkpt>
      <trkpt lat="44.26" lon="6.62785">
        <ele>1752.6</ele>
        <time>2021-08-07T12:50:57Z</time>
      </trkpt>
      <trkpt lat="44.25986" lon="6.62783">
        <ele>1751.6</ele>
        <time>2021-08-07T12:51:03Z</time>
      </trkpt>
      <trkpt lat="44.25977" lon="6.62783">
        <ele>1750.6</ele>
        <time>2021-08-07T12:51:06Z</time>
      </trkpt>
      <trkpt lat="44.25974" lon="6.62783">
        <ele>1750</ele>
        <time>2021-08-07T12:51:07Z</time>
      </trkpt>
      <trkpt lat="44.25971" lon="6.62783">
        <ele>1749.4</ele>
        <time>2021-08-07T12:51:08Z</time>
      </trkpt>
      <trkpt lat="44.25965" lon="6.62782">
        <ele>1748.4</ele>
        <time>2021-08-07T12:51:10Z</time>
      </trkpt>
      <trkpt lat="44.25962" lon="6.62781">
        <ele>1748</ele>
        <time>2021-08-07T12:51:11Z</time>
      </trkpt>
      <trkpt lat="44.25954" lon="6.62776">
        <ele>1747</ele>
        <time>2021-08-07T12:51:13Z</time>
      </trkpt>
      <trkpt lat="44.25945" lon="6.62768">
        <ele>1745.4</ele>
        <time>2021-08-07T12:51:15Z</time>
      </trkpt>
      <trkpt lat="44.25934" lon="6.62756">
        <ele>1744</ele>
        <time>2021-08-07T12:51:17Z</time>
      </trkpt>
      <trkpt lat="44.25921" lon="6.62741">
        <ele>1742.8</ele>
        <time>2021-08-07T12:51:19Z</time>
      </trkpt>
      <trkpt lat="44.25914" lon="6.62734">
        <ele>1741.6</ele>
        <time>2021-08-07T12:51:20Z</time>
      </trkpt>
      <trkpt lat="44.25906" lon="6.62728">
        <ele>1740.2</ele>
        <time>2021-08-07T12:51:21Z</time>
      </trkpt>
      <trkpt lat="44.25899" lon="6.62722">
        <ele>1738.8</ele>
        <time>2021-08-07T12:51:22Z</time>
      </trkpt>
      <trkpt lat="44.25891" lon="6.62717">
        <ele>1737.8</ele>
        <time>2021-08-07T12:51:23Z</time>
      </trkpt>
      <trkpt lat="44.25876" lon="6.6271">
        <ele>1736.2</ele>
        <time>2021-08-07T12:51:25Z</time>
      </trkpt>
      <trkpt lat="44.25861" lon="6.62701">
        <ele>1735</ele>
        <time>2021-08-07T12:51:27Z</time>
      </trkpt>
      <trkpt lat="44.25842" lon="6.62679">
        <ele>1734</ele>
        <time>2021-08-07T12:51:31Z</time>
      </trkpt>
      <trkpt lat="44.25833" lon="6.62662">
        <ele>1732.8</ele>
        <time>2021-08-07T12:51:35Z</time>
      </trkpt>
      <trkpt lat="44.2583" lon="6.62657">
        <ele>1732.4</ele>
        <time>2021-08-07T12:51:36Z</time>
      </trkpt>
      <trkpt lat="44.25827" lon="6.62654">
        <ele>1732</ele>
        <time>2021-08-07T12:51:37Z</time>
      </trkpt>
      <trkpt lat="44.25824" lon="6.62652">
        <ele>1731.6</ele>
        <time>2021-08-07T12:51:38Z</time>
      </trkpt>
      <trkpt lat="44.25821" lon="6.62652">
        <ele>1731.4</ele>
        <time>2021-08-07T12:51:39Z</time>
      </trkpt>
      <trkpt lat="44.2582" lon="6.62651">
        <ele>1731.2</ele>
        <time>2021-08-07T12:51:47Z</time>
      </trkpt>
      <trkpt lat="44.2582" lon="6.62651">
        <ele>1730.6</ele>
        <time>2021-08-07T12:51:55Z</time>
      </trkpt>
      <trkpt lat="44.2582" lon="6.62651">
        <ele>1730.4</ele>
        <time>2021-08-07T12:51:57Z</time>
      </trkpt>
      <trkpt lat="44.25821" lon="6.62651">
        <ele>1729.6</ele>
        <time>2021-08-07T12:52:07Z</time>
      </trkpt>
      <trkpt lat="44.25821" lon="6.62651">
        <ele>1729.6</ele>
        <time>2021-08-07T12:52:08Z</time>
      </trkpt>
      <trkpt lat="44.25821" lon="6.62651">
        <ele>1729.6</ele>
        <time>2021-08-07T12:52:17Z</time>
      </trkpt>
      <trkpt lat="44.2582" lon="6.62652">
        <ele>1730</ele>
        <time>2021-08-07T12:52:27Z</time>
      </trkpt>
      <trkpt lat="44.2582" lon="6.62652">
        <ele>1730</ele>
        <time>2021-08-07T12:52:35Z</time>
      </trkpt>
      <trkpt lat="44.2582" lon="6.62652">
        <ele>1730</ele>
        <time>2021-08-07T12:52:37Z</time>
      </trkpt>
      <trkpt lat="44.25819" lon="6.62653">
        <ele>1730</ele>
        <time>2021-08-07T12:52:47Z</time>
      </trkpt>
      <trkpt lat="44.25815" lon="6.6265">
        <ele>1729.2</ele>
        <time>2021-08-07T12:52:57Z</time>
      </trkpt>
      <trkpt lat="44.25812" lon="6.62648">
        <ele>1728.6</ele>
        <time>2021-08-07T12:53:05Z</time>
      </trkpt>
      <trkpt lat="44.25812" lon="6.62647">
        <ele>1728.4</ele>
        <time>2021-08-07T12:53:07Z</time>
      </trkpt>
      <trkpt lat="44.25813" lon="6.62647">
        <ele>1728.4</ele>
        <time>2021-08-07T12:53:08Z</time>
      </trkpt>
      <trkpt lat="44.25816" lon="6.6265">
        <ele>1729</ele>
        <time>2021-08-07T12:53:13Z</time>
      </trkpt>
      <trkpt lat="44.25818" lon="6.62651">
        <ele>1729.4</ele>
        <time>2021-08-07T12:53:17Z</time>
      </trkpt>
      <trkpt lat="44.25818" lon="6.62651">
        <ele>1729.6</ele>
        <time>2021-08-07T12:53:20Z</time>
      </trkpt>
      <trkpt lat="44.25818" lon="6.6265">
        <ele>1730</ele>
        <time>2021-08-07T12:53:27Z</time>
      </trkpt>
      <trkpt lat="44.2582" lon="6.62645">
        <ele>1729.8</ele>
        <time>2021-08-07T12:53:37Z</time>
      </trkpt>
      <trkpt lat="44.25819" lon="6.6265">
        <ele>1730.2</ele>
        <time>2021-08-07T12:53:47Z</time>
      </trkpt>
      <trkpt lat="44.25819" lon="6.6265">
        <ele>1730.6</ele>
        <time>2021-08-07T12:53:54Z</time>
      </trkpt>
      <trkpt lat="44.2582" lon="6.6265">
        <ele>1731</ele>
        <time>2021-08-07T12:53:57Z</time>
      </trkpt>
      <trkpt lat="44.25821" lon="6.62653">
        <ele>1730.6</ele>
        <time>2021-08-07T12:54:07Z</time>
      </trkpt>
      <trkpt lat="44.25821" lon="6.62653">
        <ele>1730.4</ele>
        <time>2021-08-07T12:54:12Z</time>
      </trkpt>
      <trkpt lat="44.25821" lon="6.62653">
        <ele>1730.4</ele>
        <time>2021-08-07T12:54:13Z</time>
      </trkpt>
      <trkpt lat="44.25821" lon="6.62653">
        <ele>1730.4</ele>
        <time>2021-08-07T12:54:14Z</time>
      </trkpt>
      <trkpt lat="44.2582" lon="6.62653">
        <ele>1730.2</ele>
        <time>2021-08-07T12:54:17Z</time>
      </trkpt>
      <trkpt lat="44.25818" lon="6.62653">
        <ele>1730</ele>
        <time>2021-08-07T12:54:27Z</time>
      </trkpt>
      <trkpt lat="44.25818" lon="6.62651">
        <ele>1730.2</ele>
        <time>2021-08-07T12:54:34Z</time>
      </trkpt>
      <trkpt lat="44.25818" lon="6.62651">
        <ele>1730.2</ele>
        <time>2021-08-07T12:54:35Z</time>
      </trkpt>
      <trkpt lat="44.25818" lon="6.62651">
        <ele>1730.2</ele>
        <time>2021-08-07T12:54:36Z</time>
      </trkpt>
      <trkpt lat="44.25818" lon="6.62651">
        <ele>1730.2</ele>
        <time>2021-08-07T12:54:37Z</time>
      </trkpt>
      <trkpt lat="44.25817" lon="6.62649">
        <ele>1729.6</ele>
        <time>2021-08-07T12:54:46Z</time>
      </trkpt>
      <trkpt lat="44.25817" lon="6.62649">
        <ele>1729.4</ele>
        <time>2021-08-07T12:54:47Z</time>
      </trkpt>
      <trkpt lat="44.25816" lon="6.62649">
        <ele>1729.2</ele>
        <time>2021-08-07T12:54:48Z</time>
      </trkpt>
      <trkpt lat="44.25813" lon="6.62647">
        <ele>1728.8</ele>
        <time>2021-08-07T12:54:51Z</time>
      </trkpt>
      <trkpt lat="44.25808" lon="6.62645">
        <ele>1728.4</ele>
        <time>2021-08-07T12:54:53Z</time>
      </trkpt>
      <trkpt lat="44.25798" lon="6.62641">
        <ele>1726.6</ele>
        <time>2021-08-07T12:54:56Z</time>
      </trkpt>
      <trkpt lat="44.25794" lon="6.6264">
        <ele>1725.2</ele>
        <time>2021-08-07T12:54:57Z</time>
      </trkpt>
      <trkpt lat="44.25791" lon="6.62639">
        <ele>1723.6</ele>
        <time>2021-08-07T12:54:58Z</time>
      </trkpt>
      <trkpt lat="44.25788" lon="6.62636">
        <ele>1722.2</ele>
        <time>2021-08-07T12:54:59Z</time>
      </trkpt>
      <trkpt lat="44.25784" lon="6.62627">
        <ele>1720.2</ele>
        <time>2021-08-07T12:55:01Z</time>
      </trkpt>
      <trkpt lat="44.25782" lon="6.62622">
        <ele>1719.2</ele>
        <time>2021-08-07T12:55:02Z</time>
      </trkpt>
      <trkpt lat="44.25779" lon="6.62619">
        <ele>1718</ele>
        <time>2021-08-07T12:55:03Z</time>
      </trkpt>
      <trkpt lat="44.25773" lon="6.6261">
        <ele>1716</ele>
        <time>2021-08-07T12:55:05Z</time>
      </trkpt>
      <trkpt lat="44.25766" lon="6.62596">
        <ele>1714</ele>
        <time>2021-08-07T12:55:07Z</time>
      </trkpt>
      <trkpt lat="44.25762" lon="6.6259">
        <ele>1713</ele>
        <time>2021-08-07T12:55:08Z</time>
      </trkpt>
      <trkpt lat="44.25756" lon="6.62584">
        <ele>1712.2</ele>
        <time>2021-08-07T12:55:09Z</time>
      </trkpt>
      <trkpt lat="44.25748" lon="6.62573">
        <ele>1710.4</ele>
        <time>2021-08-07T12:55:11Z</time>
      </trkpt>
      <trkpt lat="44.25745" lon="6.62567">
        <ele>1709.2</ele>
        <time>2021-08-07T12:55:12Z</time>
      </trkpt>
      <trkpt lat="44.25741" lon="6.62556">
        <ele>1707.6</ele>
        <time>2021-08-07T12:55:14Z</time>
      </trkpt>
      <trkpt lat="44.25741" lon="6.62545">
        <ele>1707</ele>
        <time>2021-08-07T12:55:17Z</time>
      </trkpt>
      <trkpt lat="44.25742" lon="6.6254">
        <ele>1707.4</ele>
        <time>2021-08-07T12:55:19Z</time>
      </trkpt>
      <trkpt lat="44.25745" lon="6.62524">
        <ele>1708.4</ele>
        <time>2021-08-07T12:55:27Z</time>
      </trkpt>
      <trkpt lat="44.25745" lon="6.62524">
        <ele>1708.6</ele>
        <time>2021-08-07T12:55:28Z</time>
      </trkpt>
      <trkpt lat="44.25745" lon="6.62524">
        <ele>1708.8</ele>
        <time>2021-08-07T12:55:29Z</time>
      </trkpt>
      <trkpt lat="44.25745" lon="6.62525">
        <ele>1708.8</ele>
        <time>2021-08-07T12:55:35Z</time>
      </trkpt>
      <trkpt lat="44.25745" lon="6.62525">
        <ele>1708.8</ele>
        <time>2021-08-07T12:55:36Z</time>
      </trkpt>
      <trkpt lat="44.25745" lon="6.62525">
        <ele>1708.6</ele>
        <time>2021-08-07T12:55:37Z</time>
      </trkpt>
      <trkpt lat="44.25745" lon="6.62525">
        <ele>1708.4</ele>
        <time>2021-08-07T12:55:41Z</time>
      </trkpt>
      <trkpt lat="44.25745" lon="6.62525">
        <ele>1708.2</ele>
        <time>2021-08-07T12:55:42Z</time>
      </trkpt>
      <trkpt lat="44.25745" lon="6.62525">
        <ele>1708.2</ele>
        <time>2021-08-07T12:55:43Z</time>
      </trkpt>
      <trkpt lat="44.25744" lon="6.62525">
        <ele>1708</ele>
        <time>2021-08-07T12:55:45Z</time>
      </trkpt>
      <trkpt lat="44.25745" lon="6.62525">
        <ele>1708</ele>
        <time>2021-08-07T12:55:46Z</time>
      </trkpt>
      <trkpt lat="44.25745" lon="6.62525">
        <ele>1708</ele>
        <time>2021-08-07T12:55:47Z</time>
      </trkpt>
      <trkpt lat="44.25745" lon="6.62525">
        <ele>1707.8</ele>
        <time>2021-08-07T12:55:53Z</time>
      </trkpt>
      <trkpt lat="44.25745" lon="6.62525">
        <ele>1707.6</ele>
        <time>2021-08-07T12:55:57Z</time>
      </trkpt>
      <trkpt lat="44.25745" lon="6.62524">
        <ele>1707.8</ele>
        <time>2021-08-07T12:56:07Z</time>
      </trkpt>
      <trkpt lat="44.25745" lon="6.62524">
        <ele>1707.8</ele>
        <time>2021-08-07T12:56:12Z</time>
      </trkpt>
      <trkpt lat="44.25745" lon="6.62524">
        <ele>1707.8</ele>
        <time>2021-08-07T12:56:13Z</time>
      </trkpt>
      <trkpt lat="44.25745" lon="6.62524">
        <ele>1707.8</ele>
        <time>2021-08-07T12:56:14Z</time>
      </trkpt>
      <trkpt lat="44.25745" lon="6.62524">
        <ele>1707.8</ele>
        <time>2021-08-07T12:56:15Z</time>
      </trkpt>
      <trkpt lat="44.25745" lon="6.62524">
        <ele>1707.8</ele>
        <time>2021-08-07T12:56:16Z</time>
      </trkpt>
      <trkpt lat="44.25745" lon="6.62524">
        <ele>1707.8</ele>
        <time>2021-08-07T12:56:17Z</time>
      </trkpt>
      <trkpt lat="44.25745" lon="6.62524">
        <ele>1707.6</ele>
        <time>2021-08-07T12:56:27Z</time>
      </trkpt>
      <trkpt lat="44.25745" lon="6.62524">
        <ele>1707.6</ele>
        <time>2021-08-07T12:56:33Z</time>
      </trkpt>
      <trkpt lat="44.25745" lon="6.62524">
        <ele>1708</ele>
        <time>2021-08-07T12:56:37Z</time>
      </trkpt>
      <trkpt lat="44.25745" lon="6.62524">
        <ele>1708.2</ele>
        <time>2021-08-07T12:56:39Z</time>
      </trkpt>
      <trkpt lat="44.25744" lon="6.62525">
        <ele>1708.2</ele>
        <time>2021-08-07T12:56:41Z</time>
      </trkpt>
      <trkpt lat="44.25744" lon="6.62524">
        <ele>1708.2</ele>
        <time>2021-08-07T12:56:42Z</time>
      </trkpt>
      <trkpt lat="44.25744" lon="6.62524">
        <ele>1708.4</ele>
        <time>2021-08-07T12:56:43Z</time>
      </trkpt>
      <trkpt lat="44.25745" lon="6.62518">
        <ele>1708.2</ele>
        <time>2021-08-07T12:56:47Z</time>
      </trkpt>
      <trkpt lat="44.25743" lon="6.62507">
        <ele>1708.2</ele>
        <time>2021-08-07T12:56:57Z</time>
      </trkpt>
      <trkpt lat="44.25742" lon="6.62504">
        <ele>1708.2</ele>
        <time>2021-08-07T12:56:59Z</time>
      </trkpt>
      <trkpt lat="44.25741" lon="6.62501">
        <ele>1708.4</ele>
        <time>2021-08-07T12:57:01Z</time>
      </trkpt>
      <trkpt lat="44.2574" lon="6.62496">
        <ele>1708</ele>
        <time>2021-08-07T12:57:07Z</time>
      </trkpt>
      <trkpt lat="44.2574" lon="6.62496">
        <ele>1707.6</ele>
        <time>2021-08-07T12:57:15Z</time>
      </trkpt>
      <trkpt lat="44.2574" lon="6.62496">
        <ele>1707.6</ele>
        <time>2021-08-07T12:57:17Z</time>
      </trkpt>
      <trkpt lat="44.2574" lon="6.62496">
        <ele>1707.6</ele>
        <time>2021-08-07T12:57:27Z</time>
      </trkpt>
      <trkpt lat="44.2574" lon="6.62496">
        <ele>1707.4</ele>
        <time>2021-08-07T12:57:32Z</time>
      </trkpt>
      <trkpt lat="44.2574" lon="6.62496">
        <ele>1707.4</ele>
        <time>2021-08-07T12:57:37Z</time>
      </trkpt>
      <trkpt lat="44.2574" lon="6.62496">
        <ele>1707.8</ele>
        <time>2021-08-07T12:57:44Z</time>
      </trkpt>
      <trkpt lat="44.2574" lon="6.62496">
        <ele>1707.6</ele>
        <time>2021-08-07T12:57:47Z</time>
      </trkpt>
      <trkpt lat="44.2574" lon="6.62496">
        <ele>1707.8</ele>
        <time>2021-08-07T12:57:52Z</time>
      </trkpt>
      <trkpt lat="44.25734" lon="6.62494">
        <ele>1707.8</ele>
        <time>2021-08-07T12:57:57Z</time>
      </trkpt>
      <trkpt lat="44.25719" lon="6.62493">
        <ele>1706.8</ele>
        <time>2021-08-07T12:58:00Z</time>
      </trkpt>
      <trkpt lat="44.25715" lon="6.62489">
        <ele>1706.2</ele>
        <time>2021-08-07T12:58:01Z</time>
      </trkpt>
      <trkpt lat="44.25711" lon="6.62486">
        <ele>1705</ele>
        <time>2021-08-07T12:58:02Z</time>
      </trkpt>
      <trkpt lat="44.25708" lon="6.62484">
        <ele>1703.6</ele>
        <time>2021-08-07T12:58:03Z</time>
      </trkpt>
      <trkpt lat="44.25704" lon="6.62485">
        <ele>1702.2</ele>
        <time>2021-08-07T12:58:04Z</time>
      </trkpt>
      <trkpt lat="44.25701" lon="6.62487">
        <ele>1701.2</ele>
        <time>2021-08-07T12:58:05Z</time>
      </trkpt>
      <trkpt lat="44.25697" lon="6.62487">
        <ele>1700.4</ele>
        <time>2021-08-07T12:58:06Z</time>
      </trkpt>
      <trkpt lat="44.25694" lon="6.62487">
        <ele>1699.8</ele>
        <time>2021-08-07T12:58:07Z</time>
      </trkpt>
      <trkpt lat="44.25689" lon="6.62484">
        <ele>1699.2</ele>
        <time>2021-08-07T12:58:08Z</time>
      </trkpt>
      <trkpt lat="44.25684" lon="6.62482">
        <ele>1698</ele>
        <time>2021-08-07T12:58:09Z</time>
      </trkpt>
      <trkpt lat="44.25679" lon="6.62481">
        <ele>1696.4</ele>
        <time>2021-08-07T12:58:10Z</time>
      </trkpt>
      <trkpt lat="44.25674" lon="6.62482">
        <ele>1694.8</ele>
        <time>2021-08-07T12:58:11Z</time>
      </trkpt>
      <trkpt lat="44.25668" lon="6.62483">
        <ele>1693.6</ele>
        <time>2021-08-07T12:58:12Z</time>
      </trkpt>
      <trkpt lat="44.25663" lon="6.62483">
        <ele>1692.6</ele>
        <time>2021-08-07T12:58:13Z</time>
      </trkpt>
      <trkpt lat="44.25656" lon="6.62479">
        <ele>1691.4</ele>
        <time>2021-08-07T12:58:14Z</time>
      </trkpt>
      <trkpt lat="44.2565" lon="6.62474">
        <ele>1689.8</ele>
        <time>2021-08-07T12:58:15Z</time>
      </trkpt>
      <trkpt lat="44.25644" lon="6.62471">
        <ele>1687.4</ele>
        <time>2021-08-07T12:58:16Z</time>
      </trkpt>
      <trkpt lat="44.25638" lon="6.62469">
        <ele>1685</ele>
        <time>2021-08-07T12:58:17Z</time>
      </trkpt>
      <trkpt lat="44.25631" lon="6.62469">
        <ele>1683.2</ele>
        <time>2021-08-07T12:58:18Z</time>
      </trkpt>
      <trkpt lat="44.25624" lon="6.62468">
        <ele>1682</ele>
        <time>2021-08-07T12:58:19Z</time>
      </trkpt>
      <trkpt lat="44.25618" lon="6.62465">
        <ele>1681</ele>
        <time>2021-08-07T12:58:20Z</time>
      </trkpt>
      <trkpt lat="44.25614" lon="6.6246">
        <ele>1680</ele>
        <time>2021-08-07T12:58:21Z</time>
      </trkpt>
      <trkpt lat="44.25611" lon="6.62454">
        <ele>1679</ele>
        <time>2021-08-07T12:58:22Z</time>
      </trkpt>
      <trkpt lat="44.25607" lon="6.6245">
        <ele>1677.6</ele>
        <time>2021-08-07T12:58:23Z</time>
      </trkpt>
      <trkpt lat="44.25603" lon="6.62448">
        <ele>1676.2</ele>
        <time>2021-08-07T12:58:24Z</time>
      </trkpt>
      <trkpt lat="44.256" lon="6.62447">
        <ele>1674.6</ele>
        <time>2021-08-07T12:58:25Z</time>
      </trkpt>
      <trkpt lat="44.25598" lon="6.62444">
        <ele>1673.2</ele>
        <time>2021-08-07T12:58:26Z</time>
      </trkpt>
      <trkpt lat="44.25598" lon="6.6244">
        <ele>1672.2</ele>
        <time>2021-08-07T12:58:27Z</time>
      </trkpt>
      <trkpt lat="44.25598" lon="6.62436">
        <ele>1671.4</ele>
        <time>2021-08-07T12:58:28Z</time>
      </trkpt>
      <trkpt lat="44.25599" lon="6.62433">
        <ele>1671</ele>
        <time>2021-08-07T12:58:29Z</time>
      </trkpt>
      <trkpt lat="44.256" lon="6.62429">
        <ele>1670.4</ele>
        <time>2021-08-07T12:58:30Z</time>
      </trkpt>
      <trkpt lat="44.25599" lon="6.62427">
        <ele>1669.6</ele>
        <time>2021-08-07T12:58:31Z</time>
      </trkpt>
      <trkpt lat="44.25597" lon="6.62424">
        <ele>1668.6</ele>
        <time>2021-08-07T12:58:32Z</time>
      </trkpt>
      <trkpt lat="44.25595" lon="6.62421">
        <ele>1667.4</ele>
        <time>2021-08-07T12:58:33Z</time>
      </trkpt>
      <trkpt lat="44.25595" lon="6.62418">
        <ele>1666.2</ele>
        <time>2021-08-07T12:58:34Z</time>
      </trkpt>
      <trkpt lat="44.256" lon="6.62416">
        <ele>1664.8</ele>
        <time>2021-08-07T12:58:36Z</time>
      </trkpt>
      <trkpt lat="44.25603" lon="6.62416">
        <ele>1664.4</ele>
        <time>2021-08-07T12:58:37Z</time>
      </trkpt>
      <trkpt lat="44.25609" lon="6.62416">
        <ele>1663.2</ele>
        <time>2021-08-07T12:58:39Z</time>
      </trkpt>
      <trkpt lat="44.25615" lon="6.62414">
        <ele>1662</ele>
        <time>2021-08-07T12:58:41Z</time>
      </trkpt>
      <trkpt lat="44.2562" lon="6.62411">
        <ele>1660.6</ele>
        <time>2021-08-07T12:58:43Z</time>
      </trkpt>
      <trkpt lat="44.2562" lon="6.62408">
        <ele>1660.4</ele>
        <time>2021-08-07T12:58:44Z</time>
      </trkpt>
      <trkpt lat="44.25612" lon="6.62403">
        <ele>1659.6</ele>
        <time>2021-08-07T12:58:47Z</time>
      </trkpt>
      <trkpt lat="44.256" lon="6.62393">
        <ele>1658.4</ele>
        <time>2021-08-07T12:58:50Z</time>
      </trkpt>
      <trkpt lat="44.25597" lon="6.62389">
        <ele>1657.8</ele>
        <time>2021-08-07T12:58:51Z</time>
      </trkpt>
      <trkpt lat="44.25592" lon="6.62382">
        <ele>1657.2</ele>
        <time>2021-08-07T12:58:53Z</time>
      </trkpt>
      <trkpt lat="44.2559" lon="6.62376">
        <ele>1657.6</ele>
        <time>2021-08-07T12:58:55Z</time>
      </trkpt>
      <trkpt lat="44.25586" lon="6.62371">
        <ele>1658.2</ele>
        <time>2021-08-07T12:58:57Z</time>
      </trkpt>
      <trkpt lat="44.25585" lon="6.62369">
        <ele>1658.4</ele>
        <time>2021-08-07T12:58:58Z</time>
      </trkpt>
      <trkpt lat="44.2557" lon="6.62348">
        <ele>1659.2</ele>
        <time>2021-08-07T12:59:06Z</time>
      </trkpt>
      <trkpt lat="44.25569" lon="6.62345">
        <ele>1659.6</ele>
        <time>2021-08-07T12:59:07Z</time>
      </trkpt>
      <trkpt lat="44.25567" lon="6.62342">
        <ele>1659.6</ele>
        <time>2021-08-07T12:59:08Z</time>
      </trkpt>
      <trkpt lat="44.25566" lon="6.6234">
        <ele>1659.6</ele>
        <time>2021-08-07T12:59:09Z</time>
      </trkpt>
      <trkpt lat="44.25565" lon="6.62337">
        <ele>1659.8</ele>
        <time>2021-08-07T12:59:10Z</time>
      </trkpt>
      <trkpt lat="44.25561" lon="6.62327">
        <ele>1660.2</ele>
        <time>2021-08-07T12:59:14Z</time>
      </trkpt>
      <trkpt lat="44.25561" lon="6.62325">
        <ele>1660.4</ele>
        <time>2021-08-07T12:59:15Z</time>
      </trkpt>
      <trkpt lat="44.2556" lon="6.6232">
        <ele>1660.6</ele>
        <time>2021-08-07T12:59:17Z</time>
      </trkpt>
      <trkpt lat="44.25555" lon="6.62313">
        <ele>1660.8</ele>
        <time>2021-08-07T12:59:20Z</time>
      </trkpt>
      <trkpt lat="44.25539" lon="6.62291">
        <ele>1659.8</ele>
        <time>2021-08-07T12:59:27Z</time>
      </trkpt>
      <trkpt lat="44.25535" lon="6.62285">
        <ele>1660.2</ele>
        <time>2021-08-07T12:59:30Z</time>
      </trkpt>
      <trkpt lat="44.2553" lon="6.62269">
        <ele>1661.4</ele>
        <time>2021-08-07T12:59:37Z</time>
      </trkpt>
      <trkpt lat="44.25519" lon="6.62257">
        <ele>1659.2</ele>
        <time>2021-08-07T12:59:41Z</time>
      </trkpt>
      <trkpt lat="44.25518" lon="6.62253">
        <ele>1658.6</ele>
        <time>2021-08-07T12:59:42Z</time>
      </trkpt>
      <trkpt lat="44.25518" lon="6.6225">
        <ele>1658.2</ele>
        <time>2021-08-07T12:59:43Z</time>
      </trkpt>
      <trkpt lat="44.25516" lon="6.6225">
        <ele>1656.6</ele>
        <time>2021-08-07T12:59:45Z</time>
      </trkpt>
      <trkpt lat="44.25512" lon="6.62255">
        <ele>1655.2</ele>
        <time>2021-08-07T12:59:47Z</time>
      </trkpt>
      <trkpt lat="44.25509" lon="6.6225">
        <ele>1654</ele>
        <time>2021-08-07T12:59:49Z</time>
      </trkpt>
      <trkpt lat="44.25507" lon="6.62248">
        <ele>1652.6</ele>
        <time>2021-08-07T12:59:52Z</time>
      </trkpt>
      <trkpt lat="44.25506" lon="6.6225">
        <ele>1651.8</ele>
        <time>2021-08-07T12:59:53Z</time>
      </trkpt>
      <trkpt lat="44.25505" lon="6.62252">
        <ele>1651</ele>
        <time>2021-08-07T12:59:54Z</time>
      </trkpt>
      <trkpt lat="44.25502" lon="6.62249">
        <ele>1649.8</ele>
        <time>2021-08-07T12:59:56Z</time>
      </trkpt>
      <trkpt lat="44.25502" lon="6.62246">
        <ele>1649.4</ele>
        <time>2021-08-07T12:59:57Z</time>
      </trkpt>
      <trkpt lat="44.255" lon="6.62245">
        <ele>1648.6</ele>
        <time>2021-08-07T12:59:59Z</time>
      </trkpt>
      <trkpt lat="44.25494" lon="6.62246">
        <ele>1647.4</ele>
        <time>2021-08-07T13:00:01Z</time>
      </trkpt>
      <trkpt lat="44.2549" lon="6.62245">
        <ele>1646.2</ele>
        <time>2021-08-07T13:00:02Z</time>
      </trkpt>
      <trkpt lat="44.25487" lon="6.62244">
        <ele>1645.2</ele>
        <time>2021-08-07T13:00:03Z</time>
      </trkpt>
      <trkpt lat="44.25486" lon="6.62245">
        <ele>1644</ele>
        <time>2021-08-07T13:00:04Z</time>
      </trkpt>
      <trkpt lat="44.25482" lon="6.62249">
        <ele>1642.4</ele>
        <time>2021-08-07T13:00:06Z</time>
      </trkpt>
      <trkpt lat="44.25479" lon="6.6225">
        <ele>1641.8</ele>
        <time>2021-08-07T13:00:07Z</time>
      </trkpt>
      <trkpt lat="44.25476" lon="6.62251">
        <ele>1641.4</ele>
        <time>2021-08-07T13:00:08Z</time>
      </trkpt>
      <trkpt lat="44.25468" lon="6.62254">
        <ele>1640</ele>
        <time>2021-08-07T13:00:10Z</time>
      </trkpt>
      <trkpt lat="44.25465" lon="6.62254">
        <ele>1639</ele>
        <time>2021-08-07T13:00:11Z</time>
      </trkpt>
      <trkpt lat="44.25461" lon="6.62255">
        <ele>1638</ele>
        <time>2021-08-07T13:00:12Z</time>
      </trkpt>
      <trkpt lat="44.25454" lon="6.62258">
        <ele>1636.8</ele>
        <time>2021-08-07T13:00:14Z</time>
      </trkpt>
      <trkpt lat="44.25446" lon="6.62264">
        <ele>1635</ele>
        <time>2021-08-07T13:00:16Z</time>
      </trkpt>
      <trkpt lat="44.25441" lon="6.62264">
        <ele>1634</ele>
        <time>2021-08-07T13:00:17Z</time>
      </trkpt>
      <trkpt lat="44.25434" lon="6.62265">
        <ele>1632</ele>
        <time>2021-08-07T13:00:19Z</time>
      </trkpt>
      <trkpt lat="44.25431" lon="6.6227">
        <ele>1631</ele>
        <time>2021-08-07T13:00:20Z</time>
      </trkpt>
      <trkpt lat="44.25427" lon="6.62274">
        <ele>1630</ele>
        <time>2021-08-07T13:00:21Z</time>
      </trkpt>
      <trkpt lat="44.25423" lon="6.62277">
        <ele>1629.2</ele>
        <time>2021-08-07T13:00:22Z</time>
      </trkpt>
      <trkpt lat="44.25418" lon="6.6228">
        <ele>1628.6</ele>
        <time>2021-08-07T13:00:23Z</time>
      </trkpt>
      <trkpt lat="44.25414" lon="6.62284">
        <ele>1627.8</ele>
        <time>2021-08-07T13:00:24Z</time>
      </trkpt>
      <trkpt lat="44.25408" lon="6.62289">
        <ele>1626.6</ele>
        <time>2021-08-07T13:00:26Z</time>
      </trkpt>
      <trkpt lat="44.25404" lon="6.62292">
        <ele>1625.6</ele>
        <time>2021-08-07T13:00:27Z</time>
      </trkpt>
      <trkpt lat="44.25401" lon="6.62295">
        <ele>1624.6</ele>
        <time>2021-08-07T13:00:28Z</time>
      </trkpt>
      <trkpt lat="44.25398" lon="6.62296">
        <ele>1623.6</ele>
        <time>2021-08-07T13:00:29Z</time>
      </trkpt>
      <trkpt lat="44.25394" lon="6.62295">
        <ele>1622.4</ele>
        <time>2021-08-07T13:00:30Z</time>
      </trkpt>
      <trkpt lat="44.2539" lon="6.62293">
        <ele>1621.4</ele>
        <time>2021-08-07T13:00:31Z</time>
      </trkpt>
      <trkpt lat="44.25387" lon="6.6229">
        <ele>1620.2</ele>
        <time>2021-08-07T13:00:32Z</time>
      </trkpt>
      <trkpt lat="44.25383" lon="6.62285">
        <ele>1618.4</ele>
        <time>2021-08-07T13:00:33Z</time>
      </trkpt>
      <trkpt lat="44.2538" lon="6.6228">
        <ele>1616.6</ele>
        <time>2021-08-07T13:00:34Z</time>
      </trkpt>
      <trkpt lat="44.25377" lon="6.62273">
        <ele>1615</ele>
        <time>2021-08-07T13:00:35Z</time>
      </trkpt>
      <trkpt lat="44.25375" lon="6.62267">
        <ele>1613.6</ele>
        <time>2021-08-07T13:00:36Z</time>
      </trkpt>
      <trkpt lat="44.25373" lon="6.62261">
        <ele>1612.8</ele>
        <time>2021-08-07T13:00:37Z</time>
      </trkpt>
      <trkpt lat="44.25371" lon="6.62255">
        <ele>1612.2</ele>
        <time>2021-08-07T13:00:38Z</time>
      </trkpt>
      <trkpt lat="44.25366" lon="6.6225">
        <ele>1610.6</ele>
        <time>2021-08-07T13:00:40Z</time>
      </trkpt>
      <trkpt lat="44.25362" lon="6.62252">
        <ele>1609.4</ele>
        <time>2021-08-07T13:00:41Z</time>
      </trkpt>
      <trkpt lat="44.25359" lon="6.62254">
        <ele>1608.2</ele>
        <time>2021-08-07T13:00:42Z</time>
      </trkpt>
      <trkpt lat="44.25355" lon="6.62255">
        <ele>1607.2</ele>
        <time>2021-08-07T13:00:43Z</time>
      </trkpt>
      <trkpt lat="44.25351" lon="6.62252">
        <ele>1606.6</ele>
        <time>2021-08-07T13:00:44Z</time>
      </trkpt>
      <trkpt lat="44.25347" lon="6.62248">
        <ele>1605.8</ele>
        <time>2021-08-07T13:00:45Z</time>
      </trkpt>
      <trkpt lat="44.25344" lon="6.62246">
        <ele>1605</ele>
        <time>2021-08-07T13:00:46Z</time>
      </trkpt>
      <trkpt lat="44.25338" lon="6.62245">
        <ele>1603.6</ele>
        <time>2021-08-07T13:00:47Z</time>
      </trkpt>
      <trkpt lat="44.25332" lon="6.62248">
        <ele>1602</ele>
        <time>2021-08-07T13:00:48Z</time>
      </trkpt>
      <trkpt lat="44.25325" lon="6.62254">
        <ele>1600</ele>
        <time>2021-08-07T13:00:49Z</time>
      </trkpt>
      <trkpt lat="44.25317" lon="6.6226">
        <ele>1598</ele>
        <time>2021-08-07T13:00:50Z</time>
      </trkpt>
      <trkpt lat="44.25311" lon="6.62265">
        <ele>1596</ele>
        <time>2021-08-07T13:00:51Z</time>
      </trkpt>
      <trkpt lat="44.25305" lon="6.62268">
        <ele>1594.4</ele>
        <time>2021-08-07T13:00:52Z</time>
      </trkpt>
      <trkpt lat="44.253" lon="6.6227">
        <ele>1593.4</ele>
        <time>2021-08-07T13:00:53Z</time>
      </trkpt>
      <trkpt lat="44.25295" lon="6.62273">
        <ele>1592.6</ele>
        <time>2021-08-07T13:00:54Z</time>
      </trkpt>
      <trkpt lat="44.2529" lon="6.62279">
        <ele>1591.8</ele>
        <time>2021-08-07T13:00:55Z</time>
      </trkpt>
      <trkpt lat="44.25285" lon="6.62286">
        <ele>1590.6</ele>
        <time>2021-08-07T13:00:56Z</time>
      </trkpt>
      <trkpt lat="44.2528" lon="6.62294">
        <ele>1589.4</ele>
        <time>2021-08-07T13:00:57Z</time>
      </trkpt>
      <trkpt lat="44.25275" lon="6.623">
        <ele>1588.4</ele>
        <time>2021-08-07T13:00:58Z</time>
      </trkpt>
      <trkpt lat="44.25262" lon="6.62303">
        <ele>1586.6</ele>
        <time>2021-08-07T13:01:00Z</time>
      </trkpt>
      <trkpt lat="44.25256" lon="6.62304">
        <ele>1585.6</ele>
        <time>2021-08-07T13:01:01Z</time>
      </trkpt>
      <trkpt lat="44.25249" lon="6.62307">
        <ele>1584</ele>
        <time>2021-08-07T13:01:02Z</time>
      </trkpt>
      <trkpt lat="44.25242" lon="6.62312">
        <ele>1582.8</ele>
        <time>2021-08-07T13:01:03Z</time>
      </trkpt>
      <trkpt lat="44.25235" lon="6.62317">
        <ele>1581.2</ele>
        <time>2021-08-07T13:01:04Z</time>
      </trkpt>
      <trkpt lat="44.25227" lon="6.62323">
        <ele>1579.4</ele>
        <time>2021-08-07T13:01:05Z</time>
      </trkpt>
      <trkpt lat="44.2522" lon="6.62327">
        <ele>1577.4</ele>
        <time>2021-08-07T13:01:06Z</time>
      </trkpt>
      <trkpt lat="44.25212" lon="6.62331">
        <ele>1575.8</ele>
        <time>2021-08-07T13:01:07Z</time>
      </trkpt>
      <trkpt lat="44.25204" lon="6.62333">
        <ele>1574</ele>
        <time>2021-08-07T13:01:08Z</time>
      </trkpt>
      <trkpt lat="44.25196" lon="6.62332">
        <ele>1572.2</ele>
        <time>2021-08-07T13:01:09Z</time>
      </trkpt>
      <trkpt lat="44.2519" lon="6.6233">
        <ele>1571</ele>
        <time>2021-08-07T13:01:10Z</time>
      </trkpt>
      <trkpt lat="44.25177" lon="6.62329">
        <ele>1569.2</ele>
        <time>2021-08-07T13:01:12Z</time>
      </trkpt>
      <trkpt lat="44.25172" lon="6.62328">
        <ele>1568.4</ele>
        <time>2021-08-07T13:01:13Z</time>
      </trkpt>
      <trkpt lat="44.25168" lon="6.6233">
        <ele>1567.6</ele>
        <time>2021-08-07T13:01:14Z</time>
      </trkpt>
      <trkpt lat="44.2516" lon="6.62334">
        <ele>1566.8</ele>
        <time>2021-08-07T13:01:16Z</time>
      </trkpt>
      <trkpt lat="44.25156" lon="6.62336">
        <ele>1566.4</ele>
        <time>2021-08-07T13:01:17Z</time>
      </trkpt>
      <trkpt lat="44.2515" lon="6.62335">
        <ele>1565</ele>
        <time>2021-08-07T13:01:19Z</time>
      </trkpt>
      <trkpt lat="44.25143" lon="6.62335">
        <ele>1563.6</ele>
        <time>2021-08-07T13:01:21Z</time>
      </trkpt>
      <trkpt lat="44.25135" lon="6.62338">
        <ele>1561.8</ele>
        <time>2021-08-07T13:01:23Z</time>
      </trkpt>
      <trkpt lat="44.2513" lon="6.62342">
        <ele>1560.2</ele>
        <time>2021-08-07T13:01:25Z</time>
      </trkpt>
      <trkpt lat="44.25127" lon="6.62346">
        <ele>1558.6</ele>
        <time>2021-08-07T13:01:27Z</time>
      </trkpt>
      <trkpt lat="44.25125" lon="6.6235">
        <ele>1557.4</ele>
        <time>2021-08-07T13:01:29Z</time>
      </trkpt>
      <trkpt lat="44.25117" lon="6.62358">
        <ele>1557.2</ele>
        <time>2021-08-07T13:01:36Z</time>
      </trkpt>
      <trkpt lat="44.25115" lon="6.6236">
        <ele>1557</ele>
        <time>2021-08-07T13:01:37Z</time>
      </trkpt>
      <trkpt lat="44.25106" lon="6.62365">
        <ele>1556.2</ele>
        <time>2021-08-07T13:01:40Z</time>
      </trkpt>
      <trkpt lat="44.25102" lon="6.62365">
        <ele>1555.4</ele>
        <time>2021-08-07T13:01:41Z</time>
      </trkpt>
      <trkpt lat="44.25097" lon="6.62363">
        <ele>1554.4</ele>
        <time>2021-08-07T13:01:42Z</time>
      </trkpt>
      <trkpt lat="44.25092" lon="6.62361">
        <ele>1553</ele>
        <time>2021-08-07T13:01:43Z</time>
      </trkpt>
      <trkpt lat="44.25087" lon="6.62359">
        <ele>1551.4</ele>
        <time>2021-08-07T13:01:44Z</time>
      </trkpt>
      <trkpt lat="44.25083" lon="6.62359">
        <ele>1549.6</ele>
        <time>2021-08-07T13:01:45Z</time>
      </trkpt>
      <trkpt lat="44.2508" lon="6.62361">
        <ele>1547.8</ele>
        <time>2021-08-07T13:01:46Z</time>
      </trkpt>
      <trkpt lat="44.25078" lon="6.62364">
        <ele>1546.2</ele>
        <time>2021-08-07T13:01:47Z</time>
      </trkpt>
      <trkpt lat="44.25075" lon="6.62365">
        <ele>1545</ele>
        <time>2021-08-07T13:01:48Z</time>
      </trkpt>
      <trkpt lat="44.2507" lon="6.62363">
        <ele>1543.2</ele>
        <time>2021-08-07T13:01:50Z</time>
      </trkpt>
      <trkpt lat="44.25068" lon="6.6236">
        <ele>1542.4</ele>
        <time>2021-08-07T13:01:51Z</time>
      </trkpt>
      <trkpt lat="44.25068" lon="6.62356">
        <ele>1541.4</ele>
        <time>2021-08-07T13:01:52Z</time>
      </trkpt>
      <trkpt lat="44.25069" lon="6.62353">
        <ele>1540.4</ele>
        <time>2021-08-07T13:01:53Z</time>
      </trkpt>
      <trkpt lat="44.25073" lon="6.62348">
        <ele>1538.6</ele>
        <time>2021-08-07T13:01:55Z</time>
      </trkpt>
      <trkpt lat="44.25076" lon="6.62345">
        <ele>1537</ele>
        <time>2021-08-07T13:01:57Z</time>
      </trkpt>
      <trkpt lat="44.25076" lon="6.62345">
        <ele>1536</ele>
        <time>2021-08-07T13:01:59Z</time>
      </trkpt>
      <trkpt lat="44.25077" lon="6.62346">
        <ele>1535.6</ele>
        <time>2021-08-07T13:02:05Z</time>
      </trkpt>
      <trkpt lat="44.25077" lon="6.62346">
        <ele>1535.6</ele>
        <time>2021-08-07T13:02:07Z</time>
      </trkpt>
      <trkpt lat="44.25077" lon="6.62346">
        <ele>1535.6</ele>
        <time>2021-08-07T13:02:11Z</time>
      </trkpt>
      <trkpt lat="44.25077" lon="6.62345">
        <ele>1535.4</ele>
        <time>2021-08-07T13:02:17Z</time>
      </trkpt>
      <trkpt lat="44.25076" lon="6.62345">
        <ele>1535.4</ele>
        <time>2021-08-07T13:02:19Z</time>
      </trkpt>
      <trkpt lat="44.25076" lon="6.62345">
        <ele>1535.6</ele>
        <time>2021-08-07T13:02:22Z</time>
      </trkpt>
      <trkpt lat="44.25077" lon="6.62343">
        <ele>1535.4</ele>
        <time>2021-08-07T13:02:27Z</time>
      </trkpt>
      <trkpt lat="44.25077" lon="6.62341">
        <ele>1535</ele>
        <time>2021-08-07T13:02:30Z</time>
      </trkpt>
      <trkpt lat="44.25079" lon="6.62334">
        <ele>1534.6</ele>
        <time>2021-08-07T13:02:34Z</time>
      </trkpt>
      <trkpt lat="44.25078" lon="6.62332">
        <ele>1534.4</ele>
        <time>2021-08-07T13:02:35Z</time>
      </trkpt>
      <trkpt lat="44.25076" lon="6.6233">
        <ele>1533.8</ele>
        <time>2021-08-07T13:02:36Z</time>
      </trkpt>
      <trkpt lat="44.25072" lon="6.62329">
        <ele>1532.8</ele>
        <time>2021-08-07T13:02:37Z</time>
      </trkpt>
      <trkpt lat="44.25069" lon="6.6233">
        <ele>1531.6</ele>
        <time>2021-08-07T13:02:38Z</time>
      </trkpt>
      <trkpt lat="44.25066" lon="6.6233">
        <ele>1530</ele>
        <time>2021-08-07T13:02:39Z</time>
      </trkpt>
      <trkpt lat="44.25062" lon="6.62329">
        <ele>1528.6</ele>
        <time>2021-08-07T13:02:40Z</time>
      </trkpt>
      <trkpt lat="44.2506" lon="6.62327">
        <ele>1527.2</ele>
        <time>2021-08-07T13:02:41Z</time>
      </trkpt>
      <trkpt lat="44.25057" lon="6.62326">
        <ele>1526</ele>
        <time>2021-08-07T13:02:42Z</time>
      </trkpt>
      <trkpt lat="44.25055" lon="6.62326">
        <ele>1524.6</ele>
        <time>2021-08-07T13:02:43Z</time>
      </trkpt>
      <trkpt lat="44.25054" lon="6.62328">
        <ele>1523.2</ele>
        <time>2021-08-07T13:02:44Z</time>
      </trkpt>
      <trkpt lat="44.25052" lon="6.62332">
        <ele>1521.6</ele>
        <time>2021-08-07T13:02:45Z</time>
      </trkpt>
      <trkpt lat="44.2505" lon="6.62336">
        <ele>1520.4</ele>
        <time>2021-08-07T13:02:46Z</time>
      </trkpt>
      <trkpt lat="44.25049" lon="6.62341">
        <ele>1519.2</ele>
        <time>2021-08-07T13:02:47Z</time>
      </trkpt>
      <trkpt lat="44.25047" lon="6.62349">
        <ele>1518</ele>
        <time>2021-08-07T13:02:49Z</time>
      </trkpt>
      <trkpt lat="44.25046" lon="6.62352">
        <ele>1517.4</ele>
        <time>2021-08-07T13:02:50Z</time>
      </trkpt>
      <trkpt lat="44.25045" lon="6.62356">
        <ele>1517</ele>
        <time>2021-08-07T13:02:51Z</time>
      </trkpt>
      <trkpt lat="44.25044" lon="6.62358">
        <ele>1516.8</ele>
        <time>2021-08-07T13:02:52Z</time>
      </trkpt>
      <trkpt lat="44.25043" lon="6.6236">
        <ele>1516.2</ele>
        <time>2021-08-07T13:02:55Z</time>
      </trkpt>
      <trkpt lat="44.25042" lon="6.62361">
        <ele>1516.2</ele>
        <time>2021-08-07T13:02:56Z</time>
      </trkpt>
      <trkpt lat="44.25041" lon="6.62361">
        <ele>1516.2</ele>
        <time>2021-08-07T13:02:57Z</time>
      </trkpt>
      <trkpt lat="44.25041" lon="6.62361">
        <ele>1516.2</ele>
        <time>2021-08-07T13:02:58Z</time>
      </trkpt>
      <trkpt lat="44.25037" lon="6.62366">
        <ele>1515.8</ele>
        <time>2021-08-07T13:03:02Z</time>
      </trkpt>
      <trkpt lat="44.25035" lon="6.62368">
        <ele>1515.6</ele>
        <time>2021-08-07T13:03:03Z</time>
      </trkpt>
      <trkpt lat="44.2503" lon="6.62372">
        <ele>1515.2</ele>
        <time>2021-08-07T13:03:05Z</time>
      </trkpt>
      <trkpt lat="44.25025" lon="6.62376">
        <ele>1514.6</ele>
        <time>2021-08-07T13:03:07Z</time>
      </trkpt>
      <trkpt lat="44.2502" lon="6.62386">
        <ele>1513.8</ele>
        <time>2021-08-07T13:03:10Z</time>
      </trkpt>
      <trkpt lat="44.25016" lon="6.62394">
        <ele>1513.4</ele>
        <time>2021-08-07T13:03:12Z</time>
      </trkpt>
      <trkpt lat="44.25013" lon="6.624">
        <ele>1513</ele>
        <time>2021-08-07T13:03:13Z</time>
      </trkpt>
      <trkpt lat="44.25007" lon="6.62411">
        <ele>1512</ele>
        <time>2021-08-07T13:03:15Z</time>
      </trkpt>
      <trkpt lat="44.25" lon="6.62418">
        <ele>1511.8</ele>
        <time>2021-08-07T13:03:17Z</time>
      </trkpt>
      <trkpt lat="44.24999" lon="6.62421">
        <ele>1511.8</ele>
        <time>2021-08-07T13:03:18Z</time>
      </trkpt>
      <trkpt lat="44.24996" lon="6.62425">
        <ele>1513.2</ele>
        <time>2021-08-07T13:03:24Z</time>
      </trkpt>
      <trkpt lat="44.24994" lon="6.62425">
        <ele>1513.2</ele>
        <time>2021-08-07T13:03:27Z</time>
      </trkpt>
      <trkpt lat="44.24989" lon="6.62432">
        <ele>1512.6</ele>
        <time>2021-08-07T13:03:32Z</time>
      </trkpt>
      <trkpt lat="44.24986" lon="6.62436">
        <ele>1512.8</ele>
        <time>2021-08-07T13:03:33Z</time>
      </trkpt>
      <trkpt lat="44.24984" lon="6.62437">
        <ele>1512.8</ele>
        <time>2021-08-07T13:03:34Z</time>
      </trkpt>
      <trkpt lat="44.24983" lon="6.62437">
        <ele>1513</ele>
        <time>2021-08-07T13:03:35Z</time>
      </trkpt>
      <trkpt lat="44.24982" lon="6.62437">
        <ele>1513.2</ele>
        <time>2021-08-07T13:03:37Z</time>
      </trkpt>
      <trkpt lat="44.24981" lon="6.62439">
        <ele>1512.8</ele>
        <time>2021-08-07T13:03:42Z</time>
      </trkpt>
      <trkpt lat="44.24981" lon="6.62441">
        <ele>1513</ele>
        <time>2021-08-07T13:03:46Z</time>
      </trkpt>
      <trkpt lat="44.24981" lon="6.62441">
        <ele>1513.2</ele>
        <time>2021-08-07T13:03:47Z</time>
      </trkpt>
      <trkpt lat="44.24977" lon="6.62444">
        <ele>1513.2</ele>
        <time>2021-08-07T13:03:50Z</time>
      </trkpt>
      <trkpt lat="44.24972" lon="6.62446">
        <ele>1513</ele>
        <time>2021-08-07T13:03:52Z</time>
      </trkpt>
      <trkpt lat="44.24965" lon="6.62448">
        <ele>1512.4</ele>
        <time>2021-08-07T13:03:54Z</time>
      </trkpt>
      <trkpt lat="44.24956" lon="6.62451">
        <ele>1512</ele>
        <time>2021-08-07T13:03:56Z</time>
      </trkpt>
      <trkpt lat="44.24951" lon="6.62453">
        <ele>1511.6</ele>
        <time>2021-08-07T13:03:57Z</time>
      </trkpt>
      <trkpt lat="44.2494" lon="6.62456">
        <ele>1511</ele>
        <time>2021-08-07T13:03:59Z</time>
      </trkpt>
      <trkpt lat="44.24927" lon="6.62458">
        <ele>1510</ele>
        <time>2021-08-07T13:04:01Z</time>
      </trkpt>
      <trkpt lat="44.2492" lon="6.62459">
        <ele>1508.8</ele>
        <time>2021-08-07T13:04:02Z</time>
      </trkpt>
      <trkpt lat="44.24914" lon="6.62458">
        <ele>1507.6</ele>
        <time>2021-08-07T13:04:03Z</time>
      </trkpt>
      <trkpt lat="44.24907" lon="6.62457">
        <ele>1506.4</ele>
        <time>2021-08-07T13:04:04Z</time>
      </trkpt>
      <trkpt lat="44.24901" lon="6.62453">
        <ele>1505.6</ele>
        <time>2021-08-07T13:04:05Z</time>
      </trkpt>
      <trkpt lat="44.24895" lon="6.62449">
        <ele>1504.8</ele>
        <time>2021-08-07T13:04:06Z</time>
      </trkpt>
      <trkpt lat="44.24889" lon="6.62443">
        <ele>1503.8</ele>
        <time>2021-08-07T13:04:07Z</time>
      </trkpt>
      <trkpt lat="44.24884" lon="6.62437">
        <ele>1503.4</ele>
        <time>2021-08-07T13:04:08Z</time>
      </trkpt>
      <trkpt lat="44.24874" lon="6.62424">
        <ele>1502.4</ele>
        <time>2021-08-07T13:04:10Z</time>
      </trkpt>
      <trkpt lat="44.24869" lon="6.62417">
        <ele>1502</ele>
        <time>2021-08-07T13:04:11Z</time>
      </trkpt>
      <trkpt lat="44.24859" lon="6.62404">
        <ele>1502.2</ele>
        <time>2021-08-07T13:04:13Z</time>
      </trkpt>
      <trkpt lat="44.24847" lon="6.62392">
        <ele>1503</ele>
        <time>2021-08-07T13:04:15Z</time>
      </trkpt>
      <trkpt lat="44.24833" lon="6.62381">
        <ele>1504.2</ele>
        <time>2021-08-07T13:04:17Z</time>
      </trkpt>
      <trkpt lat="44.24819" lon="6.62371">
        <ele>1504.6</ele>
        <time>2021-08-07T13:04:19Z</time>
      </trkpt>
      <trkpt lat="44.24786" lon="6.62353">
        <ele>1502.4</ele>
        <time>2021-08-07T13:04:23Z</time>
      </trkpt>
      <trkpt lat="44.24778" lon="6.6235">
        <ele>1500.2</ele>
        <time>2021-08-07T13:04:24Z</time>
      </trkpt>
      <trkpt lat="44.24769" lon="6.62346">
        <ele>1497.8</ele>
        <time>2021-08-07T13:04:25Z</time>
      </trkpt>
      <trkpt lat="44.24761" lon="6.62342">
        <ele>1496.2</ele>
        <time>2021-08-07T13:04:26Z</time>
      </trkpt>
      <trkpt lat="44.24753" lon="6.62337">
        <ele>1494.8</ele>
        <time>2021-08-07T13:04:27Z</time>
      </trkpt>
      <trkpt lat="44.24745" lon="6.62332">
        <ele>1493.8</ele>
        <time>2021-08-07T13:04:28Z</time>
      </trkpt>
      <trkpt lat="44.24728" lon="6.62322">
        <ele>1492.6</ele>
        <time>2021-08-07T13:04:30Z</time>
      </trkpt>
      <trkpt lat="44.2471" lon="6.62315">
        <ele>1492</ele>
        <time>2021-08-07T13:04:32Z</time>
      </trkpt>
      <trkpt lat="44.24693" lon="6.62309">
        <ele>1491.4</ele>
        <time>2021-08-07T13:04:34Z</time>
      </trkpt>
      <trkpt lat="44.24675" lon="6.62304">
        <ele>1489.6</ele>
        <time>2021-08-07T13:04:36Z</time>
      </trkpt>
      <trkpt lat="44.24667" lon="6.62301">
        <ele>1489.2</ele>
        <time>2021-08-07T13:04:37Z</time>
      </trkpt>
      <trkpt lat="44.24658" lon="6.62298">
        <ele>1488.4</ele>
        <time>2021-08-07T13:04:38Z</time>
      </trkpt>
      <trkpt lat="44.2464" lon="6.62294">
        <ele>1487.2</ele>
        <time>2021-08-07T13:04:40Z</time>
      </trkpt>
      <trkpt lat="44.24621" lon="6.62292">
        <ele>1485.8</ele>
        <time>2021-08-07T13:04:42Z</time>
      </trkpt>
      <trkpt lat="44.24611" lon="6.62291">
        <ele>1484.6</ele>
        <time>2021-08-07T13:04:43Z</time>
      </trkpt>
      <trkpt lat="44.24593" lon="6.62292">
        <ele>1483.4</ele>
        <time>2021-08-07T13:04:45Z</time>
      </trkpt>
      <trkpt lat="44.24586" lon="6.62292">
        <ele>1483</ele>
        <time>2021-08-07T13:04:46Z</time>
      </trkpt>
      <trkpt lat="44.2458" lon="6.62293">
        <ele>1483</ele>
        <time>2021-08-07T13:04:47Z</time>
      </trkpt>
      <trkpt lat="44.24568" lon="6.62294">
        <ele>1484</ele>
        <time>2021-08-07T13:04:50Z</time>
      </trkpt>
      <trkpt lat="44.24563" lon="6.62295">
        <ele>1484.4</ele>
        <time>2021-08-07T13:04:52Z</time>
      </trkpt>
      <trkpt lat="44.24557" lon="6.62293">
        <ele>1484.6</ele>
        <time>2021-08-07T13:04:57Z</time>
      </trkpt>
      <trkpt lat="44.24558" lon="6.62298">
        <ele>1483.4</ele>
        <time>2021-08-07T13:05:07Z</time>
      </trkpt>
      <trkpt lat="44.24556" lon="6.62308">
        <ele>1483</ele>
        <time>2021-08-07T13:05:11Z</time>
      </trkpt>
      <trkpt lat="44.24553" lon="6.62321">
        <ele>1483.2</ele>
        <time>2021-08-07T13:05:15Z</time>
      </trkpt>
      <trkpt lat="44.24551" lon="6.62328">
        <ele>1483.4</ele>
        <time>2021-08-07T13:05:17Z</time>
      </trkpt>
      <trkpt lat="44.24547" lon="6.62354">
        <ele>1483.4</ele>
        <time>2021-08-07T13:05:23Z</time>
      </trkpt>
      <trkpt lat="44.24542" lon="6.62372">
        <ele>1483</ele>
        <time>2021-08-07T13:05:27Z</time>
      </trkpt>
      <trkpt lat="44.24537" lon="6.62395">
        <ele>1482.6</ele>
        <time>2021-08-07T13:05:32Z</time>
      </trkpt>
      <trkpt lat="44.24536" lon="6.624">
        <ele>1482.8</ele>
        <time>2021-08-07T13:05:33Z</time>
      </trkpt>
      <trkpt lat="44.24534" lon="6.62404">
        <ele>1482.8</ele>
        <time>2021-08-07T13:05:34Z</time>
      </trkpt>
      <trkpt lat="44.24533" lon="6.62409">
        <ele>1482.8</ele>
        <time>2021-08-07T13:05:35Z</time>
      </trkpt>
      <trkpt lat="44.24532" lon="6.62414">
        <ele>1482.8</ele>
        <time>2021-08-07T13:05:36Z</time>
      </trkpt>
      <trkpt lat="44.24531" lon="6.62419">
        <ele>1483</ele>
        <time>2021-08-07T13:05:37Z</time>
      </trkpt>
      <trkpt lat="44.24529" lon="6.62424">
        <ele>1483.2</ele>
        <time>2021-08-07T13:05:38Z</time>
      </trkpt>
      <trkpt lat="44.24528" lon="6.62428">
        <ele>1483.4</ele>
        <time>2021-08-07T13:05:39Z</time>
      </trkpt>
      <trkpt lat="44.24526" lon="6.62433">
        <ele>1483.8</ele>
        <time>2021-08-07T13:05:40Z</time>
      </trkpt>
      <trkpt lat="44.24525" lon="6.62438">
        <ele>1484</ele>
        <time>2021-08-07T13:05:41Z</time>
      </trkpt>
      <trkpt lat="44.24523" lon="6.62442">
        <ele>1484</ele>
        <time>2021-08-07T13:05:42Z</time>
      </trkpt>
      <trkpt lat="44.2451" lon="6.62459">
        <ele>1484.2</ele>
        <time>2021-08-07T13:05:47Z</time>
      </trkpt>
      <trkpt lat="44.24491" lon="6.62463">
        <ele>1484.4</ele>
        <time>2021-08-07T13:05:53Z</time>
      </trkpt>
      <trkpt lat="44.24478" lon="6.62465">
        <ele>1485</ele>
        <time>2021-08-07T13:05:57Z</time>
      </trkpt>
      <trkpt lat="44.24447" lon="6.62469">
        <ele>1484.4</ele>
        <time>2021-08-07T13:06:07Z</time>
      </trkpt>
      <trkpt lat="44.24417" lon="6.62489">
        <ele>1485</ele>
        <time>2021-08-07T13:06:17Z</time>
      </trkpt>
      <trkpt lat="44.24387" lon="6.62513">
        <ele>1484.4</ele>
        <time>2021-08-07T13:06:27Z</time>
      </trkpt>
      <trkpt lat="44.24355" lon="6.62536">
        <ele>1483.2</ele>
        <time>2021-08-07T13:06:36Z</time>
      </trkpt>
      <trkpt lat="44.24351" lon="6.62539">
        <ele>1483.2</ele>
        <time>2021-08-07T13:06:37Z</time>
      </trkpt>
      <trkpt lat="44.24334" lon="6.62553">
        <ele>1482.8</ele>
        <time>2021-08-07T13:06:42Z</time>
      </trkpt>
      <trkpt lat="44.24316" lon="6.62568">
        <ele>1482.8</ele>
        <time>2021-08-07T13:06:47Z</time>
      </trkpt>
      <trkpt lat="44.24275" lon="6.62596">
        <ele>1482.6</ele>
        <time>2021-08-07T13:06:57Z</time>
      </trkpt>
      <trkpt lat="44.2427" lon="6.62601">
        <ele>1482.4</ele>
        <time>2021-08-07T13:06:59Z</time>
      </trkpt>
      <trkpt lat="44.24247" lon="6.62627">
        <ele>1483.4</ele>
        <time>2021-08-07T13:07:07Z</time>
      </trkpt>
      <trkpt lat="44.24218" lon="6.62671">
        <ele>1482.8</ele>
        <time>2021-08-07T13:07:17Z</time>
      </trkpt>
      <trkpt lat="44.242" lon="6.6271">
        <ele>1482</ele>
        <time>2021-08-07T13:07:26Z</time>
      </trkpt>
      <trkpt lat="44.24198" lon="6.62714">
        <ele>1482.2</ele>
        <time>2021-08-07T13:07:27Z</time>
      </trkpt>
      <trkpt lat="44.24189" lon="6.62737">
        <ele>1482.8</ele>
        <time>2021-08-07T13:07:33Z</time>
      </trkpt>
      <trkpt lat="44.24194" lon="6.62746">
        <ele>1483</ele>
        <time>2021-08-07T13:07:37Z</time>
      </trkpt>
      <trkpt lat="44.24196" lon="6.62747">
        <ele>1483.2</ele>
        <time>2021-08-07T13:07:38Z</time>
      </trkpt>
      <trkpt lat="44.24199" lon="6.62751">
        <ele>1483.4</ele>
        <time>2021-08-07T13:07:47Z</time>
      </trkpt>
      <trkpt lat="44.24199" lon="6.62751">
        <ele>1483</ele>
        <time>2021-08-07T13:07:57Z</time>
      </trkpt>
      <trkpt lat="44.242" lon="6.62751">
        <ele>1482.6</ele>
        <time>2021-08-07T13:08:07Z</time>
      </trkpt>
      <trkpt lat="44.242" lon="6.62751">
        <ele>1482</ele>
        <time>2021-08-07T13:08:12Z</time>
      </trkpt>
      <trkpt lat="44.24199" lon="6.6275">
        <ele>1481.4</ele>
        <time>2021-08-07T13:08:17Z</time>
      </trkpt>
      <trkpt lat="44.24199" lon="6.6275">
        <ele>1480.8</ele>
        <time>2021-08-07T13:08:26Z</time>
      </trkpt>
      <trkpt lat="44.24199" lon="6.6275">
        <ele>1480.6</ele>
        <time>2021-08-07T13:08:27Z</time>
      </trkpt>
      <trkpt lat="44.24199" lon="6.6275">
        <ele>1479.8</ele>
        <time>2021-08-07T13:08:34Z</time>
      </trkpt>
      <trkpt lat="44.24199" lon="6.6275">
        <ele>1479.6</ele>
        <time>2021-08-07T13:08:37Z</time>
      </trkpt>
      <trkpt lat="44.24199" lon="6.6275">
        <ele>1480.8</ele>
        <time>2021-08-07T13:08:47Z</time>
      </trkpt>
      <trkpt lat="44.24199" lon="6.6275">
        <ele>1480.8</ele>
        <time>2021-08-07T13:08:48Z</time>
      </trkpt>
      <trkpt lat="44.24199" lon="6.6275">
        <ele>1481.4</ele>
        <time>2021-08-07T13:08:57Z</time>
      </trkpt>
      <trkpt lat="44.24199" lon="6.6275">
        <ele>1481.2</ele>
        <time>2021-08-07T13:09:07Z</time>
      </trkpt>
      <trkpt lat="44.24199" lon="6.6275">
        <ele>1481.2</ele>
        <time>2021-08-07T13:09:17Z</time>
      </trkpt>
      <trkpt lat="44.24199" lon="6.6275">
        <ele>1480.6</ele>
        <time>2021-08-07T13:09:26Z</time>
      </trkpt>
      <trkpt lat="44.24199" lon="6.6275">
        <ele>1480.6</ele>
        <time>2021-08-07T13:09:27Z</time>
      </trkpt>
      <trkpt lat="44.24199" lon="6.6275">
        <ele>1480.6</ele>
        <time>2021-08-07T13:09:34Z</time>
      </trkpt>
    </trkseg>
  </trk>
</gpx>